     2              OBSERVATION DATA    GPS                 RINEX VERSION / TYPE
teqc 1997Jun30 19970702                                     PGM / RUN BY / DATE
                                                            COMMENT
Original Marker Name: HMCP                                  COMMENT
Campaign Name: HMC San Gabriel Valley 1993-1996             COMMENT
4-Character Station Name: HMCP                              COMMENT
6-Character Antenna Code: DMRCHT                            COMMENT
Vertical Measurement Point: BPA                             COMMENT
Vertical Offset to Rinex Ref. Point: 0.0000                 COMMENT
Radial Measurement Point: RRP                               COMMENT
Radial Offset to Rinex Ref. Point: 0.0000                   COMMENT
Antenna Height from Field Measurement: 0.0000 m             COMMENT
Additional Antenna Identification Info.:                    COMMENT
Turborogue and Ashtech Choke Ring                           COMMENT
Original XYZ: -2458554.0294 -4680466.0655 3556420.0686      COMMENT
New XYZ position is based on association with SCEC monument COMMENT
E1D0R2C7+0011. Position of that monument is believed to be  COMMENT
valid to within 1 m horizontally; vertical accuracy         COMMENT
should be no worse than 3-times this value.                 COMMENT
                                                            COMMENT
Revised Rinex header created by UCSD GPS archive for        COMMENT
GSAC on 13-Apr-1999 (1999:103) 17:21:40 GMT                 COMMENT
For assistance contact dagnew@ucsd.edu or hjohnson@ucsd.edu COMMENT
                                                            COMMENT
HMC PHYSICS                                                 MARKER NAME
MGB HARVEY MUDD COLLEGE                                     OBSERVER / AGENCY
262 TURBOROGUE SNR-8000 95.03.08                            REC # / TYPE / VERS
260 DORNE-MARGOL. TYPE T                                    ANT # / TYPE
 -2458598.0000 -4680494.0000  3556451.0000                  APPROX POSITION XYZ
        0.0000        0.0000        0.0000                  ANTENNA: DELTA H/E/N
     1     1     0                                          WAVELENGTH FACT L1/2
     5    L1    L2    C1    P2    P1                        # / TYPES OF OBSERV
     0                                                      INTERVAL
  1996     3     7     4     1    0.000000                  TIME OF FIRST OBS
  1996     3     7    23    59   30.000000                  TIME OF LAST OBS
     0                                                      # OF SATELLITES
                                                            END OF HEADER
 96  3  7  4  1  0.0000000  0  4G17G 5G20G24
        -0.56054        -0.40454  17750216.5794   17750216.0704
        -0.61154         0.23854  15167158.9494   15167158.4104
         0.12554         1.40954  14480406.7254   14480406.2894
         0.03954         0.14054  16870500.4194   16870499.9154
 96  3  7  4  1 30.0000000  0  6G17G 6G16G20G 5G24
    -86343.42744    -67280.53044  17733785.0184   17733785.8124
         0.13354         1.07354  15549409.2964   15549408.3294
        -0.69954        -0.25254  15042232.9754   15042232.6944
     13494.53644     10516.52644  14482974.3804   14482973.9384
     66653.41944     51938.42744  15179842.6594   15179842.1494
     73099.47344     56960.73444  16884410.7194   16884409.4244
 96  3  7  4  2  0.0000000  0  6G17G 6G16G 5G24G20
   -171266.17044   -133454.08644  17717624.8064   17717624.7014
    -59892.18144    -46668.25644  15538012.2524   15538011.0584
     -2681.04344     -2088.82444  15041722.7374   15041722.2944
    134991.16044    105188.59744  15192846.7164   15192846.2134
    147462.99444    114906.34844  16898561.6554   16898561.2644
     28841.28744     22475.02644  14485894.8914   14485894.4284
 96  3  7  4  2 30.0000000  0  6G17G 6G16G 5G20G24
   -251548.79244   -196011.97244  17702347.4264   17702346.6004
   -115236.44644    -89793.65644  15527480.5094   15527479.1534
      -326.88944      -254.41044  15042171.0864   15042170.5794
    208206.41744    162239.43344  15206779.2564   15206778.6354
     49223.60244     38357.33544  14489773.5004   14489773.0714
    226294.25144    176333.27844  16913562.9024   16913562.8454
 96  3  7  4  3  0.0000000  0  6G17G 6G16G 5G24G20
   -318282.22744   -248012.03644  17689649.4814   17689650.5104
   -157128.75644   -122437.01244  15519508.6074   15519507.3554
     15975.13144     12448.46444  15045273.2214   15045272.5784
    295220.48244    230042.59644  15223337.7284   15223336.9404
    318514.55344    248193.25144  16931111.4344   16931111.9974
     83541.28144     65098.37244  14496303.9254   14496303.4774
 96  3  7  4  3 30.0000000  0  6G17G 6G16G20G 5G24
   -378238.55644   -294731.20944  17678239.7984   17678241.4744
   -192344.92544   -149878.17844  15512807.0714   15512805.9214
     39428.47644     30723.80944  15049736.1334   15049735.8474
    125019.63244     97419.15344  14504197.1564   14504196.7714
    389247.07544    303310.06444  15241230.4244   15241229.8594
    417345.88544    325204.67844  16949918.4834   16949918.1104
 96  3  7  4  4  0.0000000  0  6G17G 6G16G 5G24G20
   -432393.18844   -336929.60544  17667934.0354   17667935.7644
   -221861.16244   -172877.84544  15507190.2624   15507188.9804
     69061.87944     53814.77744  15055375.1294   15055374.5404
    489289.05344    381264.84344  15260267.7314   15260267.2384
    521808.00444    406603.73744  16969796.6964   16969796.3274
    172675.93744    134553.92444  14513265.8514   14513265.4434
 96  3  7  4  4 30.0000000  0  6G17G 6G16G 5G24G20
   -477016.95744   -371701.37844  17659442.1264   17659445.1634
   -241934.28844   -188519.24144  15503370.6534   15503369.7544
    108620.13544     84639.39944  15062902.9514   15062902.6584
    599057.82644    466798.93544  15281156.1744   15281155.8464
    635644.64144    495307.61144  16991458.9074   16991459.0404
    230249.62344    179416.52744  14524221.7174   14524221.4984
 96  3  7  4  5  0.0000000  0  6G17G 6G16G20G 5G24
   -513246.99644   -399932.56744  17652548.4554   17652549.2954
   -253688.52444   -197678.38344  15501134.2014   15501132.9704
    156991.77844    122331.59144  15072107.3744   15072107.0484
    296619.58944    231133.37244  14536851.5564   14536851.1404
    717433.14044    559039.42744  15303682.1894   15303681.7584
    757736.06844    590443.77444  17014692.0824   17014693.0934
 96  3  7  4  5 30.0000000  0  6G17G 6G16G 5G24G20
   -541758.09844   -422149.00044  17647122.4094   17647124.3234
   -257797.37444   -200880.08344  15500351.8344   15500350.5594
    213502.65344    166366.05044  15082861.5114   15082860.9514
    843730.79244    657453.17244  15327715.9814   15327715.1704
    887394.63444    691476.40944  17039366.1134   17039365.5624
    371105.13144    289174.04044  14551025.5924   14551025.1604
 96  3  7  4  6  0.0000000  0  6G17G 6G16G 5G20G24
   -559666.53744   -436103.59944  17643713.9664   17643713.4954
   -251364.30544   -195867.30144  15501575.9754   15501574.9514
    281038.32444    218991.25344  15095712.9504   15095712.9064
    980844.46544    764294.98144  15353807.5524   15353807.0834
    456582.29544    355779.61244  14567291.5834   14567291.1664
   1027512.63744    800659.26944  17066029.3144   17066029.4744
 96  3  7  4  6 30.0000000  0  6G17G 6G16G 5G24G20
   -565649.10044   -440765.35244  17642576.3714   17642575.1464
   -233048.27244   -181595.06844  15505061.3194   15505060.2734
    360911.86544    281230.38544  15110912.4864   15110911.9294
   1130115.98944    880610.44344  15382213.0564   15382212.5834
   1179422.19044    919030.35344  17094936.6114   17094936.8574
    554377.90244    431983.97144  14585901.2794   14585900.7374
 96  3  7  4  7  0.0000000  0  6G17G 6G16G20G 5G24
   -566448.23144   -441388.04844  17642424.2614   17642423.4574
   -209575.37444   -163304.49644  15509527.7774   15509526.9154
    446374.12344    347824.36144  15127175.5254   15127174.8434
    657739.99044    512525.84644  14605570.4684   14605570.0144
   1284819.64444   1001158.73444  15411652.5904   15411652.0754
   1336370.91844   1041328.04044  17124803.3064   17124803.2424
 96  3  7  4  7 30.0000000  0  6G17G 6G16G 5G24G20
   -557779.49444   -434633.17544  17644074.4924   17644073.4184
   -176647.74744   -137646.60044  15515794.4314   15515793.1634
    541691.65344    422097.77144  15145313.6174   15145313.0314
   1449240.34844   1129278.75444  15442940.2014   15442939.7374
   1502629.51344   1170880.18144  17156441.0374   17156441.0474
    770940.08444    600733.70044  14627111.7674   14627111.3674
 96  3  7  4  8  0.0000000  0  6G17G 6G16G 5G20G24
   -536594.30044   -418125.20444  17648106.0934   17648104.7994
   -131222.25544   -102250.11044  15524438.5794   15524437.2184
    649899.77044    506415.78944  15165904.8784   15165904.5944
   1626404.41244   1267328.66744  15476653.4834   15476653.2144
    897013.46244    698972.68544  14651102.7564   14651102.3374
   1681237.84744   1310055.50944  17190429.2704   17190428.4014
 96  3  7  4  8 30.0000000  0  6G17G 6G16G 5G24G20
   -503073.52844   -392005.10544  17654484.3044   17654484.0564
    -73511.22744    -57280.47144  15535420.2394   15535419.2624
    770818.23444    600637.97444  15188914.9704   15188914.6044
   1816112.35644   1415153.03244  15512753.7094   15512753.1174
   1871991.93244   1458695.05544  17226728.4854   17226727.8344
   1035760.59244    807087.32344  14677505.6504   14677505.1214
 96  3  7  4  9  0.0000000  0  6G17G 6G16G20G 5G24
   -460515.34144   -358842.88244  17662583.6084   17662582.4444
     -6838.06044     -5327.34744  15548107.9334   15548107.0124
    901150.93544    702195.92544  15213716.5034   15213716.4374
   1183881.13844    922505.92044  14705691.9444   14705691.4494
   2015044.67844   1570165.22244  15550609.5824   15550609.2134
   2071584.73444   1614221.91344  17264709.7674   17264708.5484
 96  3  7  4  9 30.0000000  0  6G17G 6G16G 5G24G20
   -404081.06144   -314868.11044  17673321.8524   17673319.5664
     73598.89444     57350.80344  15563414.4404   15563413.2844
   1045735.83544    814859.48644  15241230.2244   15241229.7924
   2228010.90944   1736112.92644  15591135.3764   15591134.7884
   2284851.17144   1780403.61344  17305293.2524   17305292.8414
   1346224.74244   1049007.41844  14736584.8594   14736584.4964
 96  3  7  4 10  0.0000000  0  6G17G 6G16G 5G24G20
   -332953.97044   -259444.39644  17686856.8644   17686857.0724
    168590.82544    131370.48944  15581490.8484   15581489.7094
   1205397.26744    939270.99244  15271612.3524   15271612.1634
   2455808.67944   1913617.68144  15634483.8004   15634483.4744
   2512610.64844   1957878.37144  17348634.7504   17348635.2604
   1523618.57544   1187236.36544  14770341.7284   14770341.2934
 96  3  7  4 10 30.0000000  0  6G17G 6G16G20G 5G24
   -252395.18244   -196671.29744  17702187.0114   17702187.1734
    272891.96044    212644.10144  15601338.9414   15601337.6754
   1374880.56344   1071335.89844  15303864.2944   15303863.8274
   1710836.04044   1333120.09044  14805968.1094   14805967.8724
   2693196.23244   2098594.99144  15679657.3174   15679656.8284
   2749611.28744   2142554.24444  17393733.9364   17393733.9464
 96  3  7  4 11  0.0000000  0  7G17G 6G16G20G 5G24G25
   -162672.80244   -126757.74844  17719260.6574   17719261.6984
    386273.14344    300993.08344  15622914.6604   15622913.3574
   1553923.25244   1210849.69044  15337934.5664   15337934.4454
   1907644.66344   1486477.44744  14843419.4914   14843419.1614
   2939928.03444   2290853.53344  15726609.0884   15726608.4034
   2995609.75644   2334241.36244  17440545.7284   17440544.9984
        -1.00054        -0.47154  19266695.8794   19266694.4514
 96  3  7  4 11 30.0000000  0  7G17G 6G16G20G 5G24G25
    -62861.82244    -48982.93344  17738253.1214   17738254.7054
    509678.75644    397153.31044  15646397.7964   15646396.9564
   1743439.08044   1358524.36344  15373998.2464   15373997.9324
   2114957.56544   1648019.95744  14882869.8134   14882869.4034
   3196935.30544   2491118.93344  15775515.7474   15775514.7094
   3251524.37344   2533655.34944  17489244.9444   17489244.7244
    192134.10944    149715.00244  19303258.3874   19303257.0454
 96  3  7  4 12  0.0000000  0  7G17G 6G16G20G 5G24G25
     43823.28244     34148.32344  17758553.8454   17758555.6784
    639930.60344    498648.25544  15671183.9664   15671182.8494
   1940207.21844   1511850.18944  15411442.3154   15411441.8904
   2329556.04044   1815239.53844  14923706.5804   14923706.2004
   3461021.20844   2696900.14944  15825769.6524   15825769.3504
   3514141.01744   2738291.68944  17539219.2554   17539219.0434
    391375.00744                  19341174.1624
 96  3  7  4 12 30.0000000  0  7G17G 6G16G20G 5G24G25
    157346.46744    122607.97144  17780157.7594   17780157.0664
    777024.97144    605475.04144  15697271.9474   15697270.9294
   2144192.46844   1670799.73944  15450259.1644   15450258.6574
   2551402.39644   1988106.81944  14965922.5934   14965922.2964
   3732168.21644   2908183.52044  15877366.9784   15877366.5784
   3783420.41144   2948119.77444  17590460.8264   17590462.0234
    597699.40544    465739.87944  19380437.0664   19380437.3624
 96  3  7  4 13  0.0000000  0  7G17G 6G16G20G 5G24G25
    280461.94444    218542.12844  17803585.5634   17803585.8484
    923703.05944    719769.66244  15725184.1514   15725182.8314
   2358159.31244   1837527.15444  15490975.6234   15490975.2724
   2783220.41144   2168744.22344  15010035.9724   15010035.6334
   4013123.50844   3127109.70644  15930830.8934   15930830.6024
   4062111.50144   3165281.66744  17643493.9644   17643493.3754
    813864.50344                  19421569.7364
 96  3  7  4 13 30.0000000  0  7G17G 6G16G20G 5G24G25
    416017.93144    324170.18444  17829380.6554   17829382.0724
   1082803.47644    843744.01544  15755459.8714   15755458.4164
   2584960.41144   2014255.28644  15534134.4444   15534134.0834
   3027845.76144   2359361.36944  15056586.8504   15056586.6424
   4306716.12744   3355883.16844  15986700.1944   15986699.8854
   4353044.46244   3391982.67444  17698857.1594   17698858.0284
   1042724.99844                  19465120.7844
 96  3  7  4 14  0.0000000  0  7G17G 6G16G20G 5G24G25
    557629.14944    434516.65644  17856328.1144   17856328.7184
   1247941.27744    972422.82244  15786884.4854   15786883.5264
   2818225.94144   2196020.63744  15578523.8734   15578523.1394
   3278900.68744   2554988.57244  15104360.8074   15104360.7494
   4606566.29844   3589532.63444  16043759.5324   16043759.1284
   4649842.72644   3623254.05344  17755336.2924   17755335.9054
   1277910.05344                  19509874.5684
 96  3  7  4 14 30.0000000  0  7G17G 6G16G20G 5G24G25
    708414.82244    552011.98544  17885023.5484   17885021.4914
   1422210.22444   1108216.81344  15820046.6454   15820045.7144
   3061073.94544   2385252.84644  15624735.9704   15624735.6014
   3539482.05944   2758038.98044  15153948.0254   15153947.8404
   4915780.95344   3830479.11144  16102601.1174   16102600.9464
   4955624.07144   3861525.22144  17813524.0984   17813523.7724
   1522510.26244                  19556421.9344
 96  3  7  4 15  0.0000000  0  7G17G 6G16G20G 5G24G25
    871441.81944    679046.01544  17916046.4074   17916045.3394
   1608659.95144   1253502.32044  15855527.1794   15855525.9324
   3316568.93344   2584339.86144  15673355.2714   15673354.5734
   3812654.05944   2970900.27044  15205931.0234   15205930.6724
   5237411.74844   4081100.50044  16163805.5004   16163804.9964
   5273470.12144   4109197.46644  17874008.0704   17874007.4224
   1779587.08144                  19605341.7954
 96  3  7  4 15 30.0000000  0  7G17G 6G16G20G 5G24G25
   1045283.11944    814506.78044  17949126.8484   17949126.2114
   1805866.69044   1407169.91244  15893054.3714   15893053.1124
   3583268.90244   2792158.01944  15724106.4584   15724106.2414
   4096994.07344   3192463.90244  15260038.6244   15260038.2174
   5570025.87844   4340280.33944  16227100.2214   16227099.7564
   5601952.31344   4365157.56844  17936516.9734   17936516.0524
   2047701.22644                  19656362.2534
 96  3  7  4 16  0.0000000  0  7G17G 6G16G20G 5G24G25
   1230857.73644    959110.39444  17984439.6154   17984441.0774
   2014739.30944   1569927.79944  15932801.6314   15932800.0814
   3862074.04544   3009408.78644  15777161.2334   15777160.7324
   4393413.70744   3423440.22844  15316445.6064   15316445.2674
   5914541.88544   4608734.35844  16292659.2864   16292658.6824
   5941991.61944   4630123.27144  18001224.0874   18001222.5544
   2327747.35544                  19709652.5434
 96  3  7  4 16 30.0000000  0  7G17G 6G16G20G 5G24G25
   1424184.60544   1109754.76244  18021227.7604   18021229.8904
   2231295.60944   1738672.96844  15974010.4684   15974009.3724
   4149004.21744   3232990.74044  15831762.2564   15831761.6684
   4697942.40344   3660735.30144  15374395.5394   15374395.1774
   6266964.12244   4883349.08144  16359722.8374   16359722.0464
   6289608.56344   4900993.59444  18067373.4114   18067373.5664
   2615737.49644                  19764455.6904
 96  3  7  4 17  0.0000000  0  7G17G 6G16G20G 5G24G25
   1635271.58444   1274238.14244  18061397.9084   18061398.0424
   2465562.56844   1921218.65744  16018590.1664   16018589.3374
   4454075.33644   3470708.49544  15889815.0714   15889814.7324
   5020612.70444   3912166.68744  15435797.8934   15435797.6104
   6637318.52444   5171936.91444  16430198.9604   16430198.4414
   6654806.85344   5185563.66144  18136868.2184   18136867.6194
   2921697.58444   2276646.24944  19822678.1514
 96  3  7  4 17 30.0000000  0  7G17G 6G16G20G 5G24G25
   1857863.41944   1447686.33644  18103755.5794   18103754.8104
   2711284.90944   2112690.61544  16065349.7134   16065348.5164
   4771022.33544   3717680.18844  15950128.4104   15950127.6954
   5355159.96644   4172852.85344  15499460.0094   15499459.6404
   7019341.68444   5469617.28944  16502895.5294   16502895.4394
   7031306.59344   5478940.08644  18208513.5394   18208514.5374
   3239365.70444   2524180.78044  19883129.2994   19883127.7154
 96  3  7  4 18  0.0000000  0  7G17G 6G16G20G 5G24G25
   2098226.98644   1634982.62144  18149495.1994   18149493.7654
   2974735.78744   2317977.01044  16115482.7084   16115481.1004
   5106111.41544   3978788.56744  16013893.4724   16013893.4034
   5707836.40844   4447665.65244  15566572.2634   15566571.9694
   7419293.56544   5781268.08844  16579003.7064   16579003.2944
   7425373.83944   5786005.46944  18283502.1124   18283502.3404
   3575008.01044   2785724.52644  19947001.0614   19947000.5664
 96  3  7  4 18 30.0000000  0  7G17G 6G16G20G 5G24G25
   2345212.51744   1827438.90044  18196494.9914   18196494.3824
   3244770.05444   2528393.32344  16166868.6434   16166867.4754
   5448192.09944   4245344.94544  16078989.6074   16078989.0794
   6067477.73844   4727905.63944  15635009.7674   15635009.5334
   7826019.07244   6098197.04144  16656401.1074   16656400.6234
   7825851.92044   6098066.34344  18359710.4524   18359709.4474
   3917470.84544   3052587.21344  20012168.5284   20012168.0934
 96  3  7  4 19  0.0000000  0  7G17G 6G16G20G 5G24G25
   2607041.90144   2031461.82444  18246319.5394   18246319.2884
   3529605.04344   2750342.66544  16221070.6354   16221069.5134
   5805467.51344   4523741.37544  16146976.5544   16146976.3104
   6442279.91644   5019959.27244  15706331.8004   15706331.7504
   8247731.09644   6426803.80744  16736650.2634   16736650.0314
   8240949.55044   6421519.03844  18438700.9214   18438701.6404
   4274961.63044   3331165.89144  20080196.5404   20080196.3994
 96  3  7  4 19 30.0000000  0  7G17G 6G16G20G 5G24G25
   2880749.29844   2244740.32544  18298404.3124   18298404.2564
   3826272.76744   2981512.31944  16277524.4464   16277523.7724
   6174966.71244   4811662.84044  16217290.2294   16217289.8034
   6829265.19044   5321506.22644  15779972.8704   15779972.8454
   8681425.41544   6764747.42044  16819179.2854   16819179.0614
   8667706.20444   6754056.68044  18519910.0774   18519910.1164
   4644501.50344   3619126.01744  20150518.3344   20150517.8164
 96  3  7  4 20  0.0000000  0  7G17G 6G16G20G 5G24G25
   3166318.42844   2467261.75444  18352745.9004   18352745.2614
   4134763.06344   3221894.36544  16336228.1754   16336227.1064
   6556675.38644   5109098.17444  16289926.8664   16289926.5824
   7228435.50144   5632548.01444  15855932.5834   15855932.2224
   9127093.01244   7112020.86444  16903987.3854   16903987.4574
   9106113.81144   7095672.98344  18603336.3994   18603335.9954
   5026072.70844   3916440.73744  20223128.1094   20223127.9424
 96  3  7  4 20 30.0000000  0  7G17G 6G16G20G 5G24G25
   3465751.57744   2700586.28744  18409725.7334   18409726.1814
   4457073.92244   3473045.68144  16397562.4304   16397561.4194
   6952606.74144   5417616.11744  16365270.1174   16365269.7584
   7641826.32044   5954670.72144  15934598.1164   15934597.8894
   9586737.11744   7470185.08744  16991454.7824   16991454.3894
   9558180.10444   7447932.40544  18689361.6204   18689359.7404
   5421684.33244   4224698.48244  20298410.7424   20298410.6264
 96  3  7  4 21  0.0000000  0  7G17G 6G16G20G 5G24G25
   3781611.33944   2946710.78544  18469832.2354   18469831.6984
   4795777.70944   3736970.71644  16462015.1924   16462014.4834
   7365339.73244   5739226.24544  16443810.6304   16443810.0894
   8072027.41844   6289892.34144  16016462.7144   16016462.3624
  10062927.98744   7841242.90244  17082070.8724   17082070.4524
  10026480.85244   7812842.05544  18778476.0944   18778473.4374
   5833909.59744   4545910.87144  20376855.5624   20376853.4204
 96  3  7  4 21 30.0000000  0  7G17G 6G16G20G 5G24G25
   4106070.07244   3199535.78344  18531574.3114   18531575.4524
   5143057.96344   4007578.70944  16528100.7464   16528099.4284
   7787058.36444   6067838.17244  16524060.6044   16524060.5354
   8511225.94344   6632124.94844  16100039.4844   16100039.2714
  10547855.91744   8219108.80744  17174349.3014   17174348.8554
  10503199.55844   8184311.19644  18869192.3564   18869191.7414
   6254929.57044   4873979.35444  20456972.7304   20456975.1604
 96  3  7  4 22  0.0000000  0  7G17G 6G16G20G 5G24G25
   4443670.10644   3462600.75044  18595817.8574   18595817.2124
   5503451.58544   4288404.90644  16596681.1014   16596679.8954
   8222307.78344   6406993.56544  16606886.0664   16606885.5294
   8963959.64844   6984904.44644  16186191.8104   16186191.6144
  11046093.40344   8607345.80044  17269160.8174   17269160.3744
  10992873.95544   8565875.65044  18962374.3204   18962374.3304
   6689292.86844   5212444.35244  20539630.1604
 96  3  7  4 22 30.0000000  0  7G17G 6G16G20G 5G24G25
   4788939.40744   3731641.78044  18661519.9594   18661519.7234
   5871496.92744   4575193.48544  16666718.1304   16666716.6634
   8665631.54944   6752440.66144  16691247.5274   16691247.4214
   9424732.54944   7343948.25444  16273873.8884   16273873.6904
  11552180.42944   9001699.32144  17365465.9244   17365465.3864
  11490033.36944   8953272.58244  19056981.2644   19056981.8294
   7131531.21344   5557045.76344  20623786.8154
 96  3  7  4 23  0.0000000  0  7G17G 6G16G20G 5G24G25
   5145831.35544   4009739.41044  18729434.6074   18729434.0804
   6251159.60844   4871034.53344  16738965.5664   16738964.3504
   9120983.80644   7107260.59944  16777898.4114   16777898.0524
   9897467.83344   7712313.40244  16363832.7264   16363832.4394
  12070088.00944   9405263.65844  17464020.8364   17464020.2444
  11998635.67444   9349586.05244  19153765.0824   19153765.4894
   7585605.91044   5910870.36644  20710194.0474   20710192.9694
 96  3  7  4 23 30.0000000  0  6G17G 6G16G20G 5G24
   5517769.96344   4299561.70944  18800212.8264   18800212.5224
   6645859.58544   5178592.95544  16814074.3984   16814073.0304
   9591786.12444   7474119.55044  16867489.0174   16867488.4544
  10385572.40744   8092654.61644  16456715.9034   16456715.6754
  12603229.33044   9820698.44644  17565474.0324   17565473.4464
  12522095.40344   9757476.73844  19253375.6124   19253375.1324
 96  3  7  4 24  0.0000000  0  6G17G 6G16G20G 5G24
   5900217.52444   4597572.80644  18872990.3004   18872989.9494
   7051056.93644   5494331.14444  16891180.6014   16891179.8004
  10073483.56944   7849468.21444  16959153.2604   16959152.9354
  10884504.88344   8481433.15944  16551659.5214   16551659.2174
  13147052.82344  10244457.00344  17668960.3874   17668959.9554
  13055866.73544  10173402.46744  19354950.0274   19354947.3834
 96  3  7  4 24 30.0000000  0  6G17G 6G16G20G 5G24
   6290510.64744   4901697.33944  18947260.1894   18947260.9264
   7464092.45644   5816177.01044  16969778.7324   16969777.8984
  10563399.88744   8231221.18944  17052381.0074   17052380.5554
  11391604.46244   8876575.67544  16648157.1574   16648156.9324
  13698864.28244  10674439.95144  17773966.3434   17773965.8504
  13597291.90244  10595292.20444  19457978.7954   19457978.6264
 96  3  7  4 25  0.0000000  0  6G17G 6G16G20G 5G24
   6686039.43444   5209901.59444  19022526.4104   19022527.4734
   7882343.93744   6142087.25544  17049369.6374   17049368.4244
  11058905.51044   8617329.47044  17146672.9084   17146672.4264
  11904276.38744   9276060.27644  16745715.4754   16745715.5194
  14256017.48944  11108585.30344  17879989.0864   17879988.8554
  14143754.60744  11021107.25344  19561967.0364   19561966.9714
 96  3  7  4 25 30.0000000  0  7G23G17G 6G16G20G 5G24
        -0.20954                  21302845.2024
   7085765.81144   5521376.70644  19098592.1344   19098593.1704
   8304758.87044   6471241.75244  17129752.1554   17129751.2384
  11558935.17244   9006962.97444  17241825.2164   17241824.7054
  12421487.37144   9679081.80944  16844137.4984   16844137.3994
  14817439.57644  11546057.04544  17986824.1294   17986823.6194
  14694194.32844  11450021.31344  19666712.5594   19666712.4774
 96  3  7  4 26  0.0000000  0  7G23G17G 6G16G20G 5G24
    369544.63244    287957.64644  21373167.7634
   7489961.20144   5836334.16544  19175508.2804   19175507.3224
   8731594.81444   6803841.19344  17210976.3044   17210974.9704
  12063740.47744   9400317.75944  17337886.1414   17337885.8984
  12943495.66844  10085841.50944  16943472.4354   16943472.3494
  15383389.89844  11987057.28244  18094520.7454   18094520.4894
  15248873.70244  11882239.00944  19772264.4924   19772263.2154
 96  3  7  4 26 30.0000000  0  7G23G17G 6G16G20G 5G24
    755599.75144    588779.79144  21446631.2184   21446637.0574
   7910917.96944   6164352.43744  19255612.5844   19255612.5294
   9175134.26444   7149456.34844  17295379.4084   17295378.0364
  12585631.24944   9806985.88944  17437198.7284   17437198.5604
  13482589.20044  10505914.38144  17046058.6114   17046058.3914
  15966155.92844  12441160.67144  18205417.7374   18205417.2924
  15820081.40244  12327335.91344  19880962.1214   19880960.8364
 96  3  7  4 27  0.0000000  0  7G23G17G 6G16G20G 5G24
   1150691.55844                  21521814.2064
   8341147.07744   6499595.89544  19337483.1914   19337482.8794
   9627880.67344   7502245.76444  17381534.2464   17381533.3064
  13117119.66644  10221132.71244  17538337.9204   17538337.4294
  14031273.61244  10933460.66444  17150469.8804   17150469.4664
  16558263.29844  12902543.02544  18318092.6424   18318092.2164
  16400308.82444  12779461.16544  19991375.5714   19991375.1894
 96  3  7  4 27 30.0000000  0  7G23G17G 6G16G20G 5G24
   1551688.07044   1209108.44944  21598120.9734
   8777520.71644   6839627.31744  19420521.8494   19420521.9874
  10086695.53144   7859763.83444  17468843.2304   17468842.5804
  13655067.60444  10640312.92444  17640705.9204   17640705.6354
  14586402.30244  11366028.46344  17256106.9694   17256106.8784
  17156586.72044  13368769.06644  18431948.9264   18431947.8374
  16986422.89044  13236173.45744  20102909.6114   20102909.4574
 96  3  7  4 28  0.0000000  0  7G23G17G 6G16G20G 5G24
   1962525.60044   1529241.59244  21676300.9554
   9223966.52544   7187507.18044  19505477.5864   19505478.3934
  10555523.21344   8225084.10644  17558058.5734   17558057.6114
  14203431.86644  11067609.74944  17745056.2784   17745055.7514
  15151908.30044  11806682.47344  17363719.3844   17363719.0714
  17765070.94944  13842912.61744  18547739.8884   18547739.4334
  17582363.38644  13700542.65044  20216313.3874   20216314.4494
 96  3  7  4 28 30.0000000  0  7G23G17G 6G16G20G 5G24
   2384099.89244                  21756523.5864
   9681363.85444   7543920.70744  19592518.2724   19592518.3374
  11035280.41944   8598920.89344  17649353.4964   17649352.1094
  14763112.19444  11503724.29744  17851559.7744   17851559.4584
  15728685.31244  12256119.10044  17473476.2094   17473476.3344
  18384610.60944  14325670.78444  18665634.9694   18665634.1284
  18189017.20344  14173259.88844  20331756.0294   20331756.0174
 96  3  7  4 29  0.0000000  0  7G23G17G 6G16G20G 5G24
   2817342.48644   2195332.61944  21838965.8414
  10150641.58144   7909591.68644  19681818.7794   19681818.8874
  11526915.30844   8982013.01444  17742908.5294   17742907.2584
  15335023.52144  11949369.48644  17960390.7954   17960390.4654
  16317656.55144  12715057.72444  17585553.8224   17585553.6024
  19016137.29744  14817769.50844  18785809.5744   18785809.3294
  18807312.95444  14655048.78944  20449412.8604   20449412.9394
 96  3  7  4 29 30.0000000  0  7G23G17G 6G16G20G 5G24
   3266231.42144   2545116.21344  21924386.8084
  10635784.13144   8287624.84344  19774138.3304   19774137.3984
  12034432.90144   9377481.27444  17839485.6374   17839484.5354
  15923168.34444  12407664.15644  18072311.0194   18072310.6404
  16922805.27544  13186602.18244  17700709.8354   17700709.7824
  19663635.75544  15322313.74644  18909024.4704   18909024.3964
  19441247.21444  15149023.52944  20570046.7714   20570046.3954
 96  3  7  4 30  0.0000000  0  7G23G17G 6G16G20G 5G24
   3722331.43444   2900518.90444  22011179.4374   22011182.6464
  11128337.07444   8671432.34344  19867867.5784   19867866.7354
  12549407.30644   9778760.02944  17937481.7764   17937480.5164
  16519109.03244  12872033.53044  18185714.5914   18185714.1114
  17535683.47844  13664169.60544  17817336.7324   17817336.7164
  20318666.09744  15832726.98644  19033672.9854   19033672.3854
  20082371.16044  15648600.60844  20692049.6934   20692046.8754
 96  3  7  4 30 30.0000000  0  7G23G17G 6G16G20G 5G24
   4187208.85544                  22099643.0434
  11629845.69744   9062218.29944  19963301.8314   19963300.8174
  13073377.98144  10187048.86544  18037190.2204   18037189.0824
  17124363.05444  13343660.03944  18300890.8234   18300890.1524
  18157833.52444  14148961.83744  17935727.8364   17935727.5454
  20982770.00444  16350210.54044  19160047.5204   19160047.2344
  20732222.15844  16154977.97944  20815711.5814   20815711.0294
 96  3  7  4 31  0.0000000  0  6G24G17G 6G16G20G 5
  21394239.53544  16670835.68344  20941688.2674   20941687.0024
  12143745.47844   9462659.70244  20061093.3804   20061092.8514
  13609749.23844  10605000.49844  18139258.5614   18139257.4444
  17742356.97644  13825213.74944  18418491.0904   18418490.6584
  18792692.96244  14643657.49144  18056537.5874   18056537.4264
  21659371.73444  16877432.65344  19288800.9014   19288800.4574
 96  3  7  4 31 30.0000000  0  6G24G17G 6G16G20G 5
  22060132.84044  17189713.57544  21068403.9844   21068404.4264
  12661731.21844   9866284.96044  20159663.0774   20159662.1174
  14150213.80444  11026141.71744  18242105.5854   18242104.2714
  18364779.98744  14310218.69344  18536934.0324   18536933.5434
  19431964.88744  15141791.44044  18178187.1754   18178186.8864
  22340154.23944  17407912.51644  19418349.9404   19418349.6734
 96  3  7  4 32  0.0000000  0  7G24G23G17G 6G16G20G 5
  22726060.42344  17708618.20744  21195126.0644   21195124.6994
        -0.64654        -0.29054  22373510.8164   22373515.5154
  13179951.86144  10270093.27144  20258276.6644   20258275.5814
  14690923.32544  11447473.81444  18344998.7404   18344998.0584
  18987763.28044  14795660.22044  18655483.7114   18655483.5454
  20071799.54944  15640363.88744  18299943.4744   18299943.2374
  23021263.23544  17938646.79544  19547959.9784   19547959.5264
 96  3  7  4 32 30.0000000  0  7G24G23G17G 6G16G20G 5
  23392011.46444  18227541.07944  21321852.1974   21321851.6664
    481096.73344    374880.81144  22465060.5464   22465063.5694
  13698392.79944  10674073.23644  20356932.5404   20356932.3374
  15231847.87544  11868973.46344  18447933.5394   18447932.3824
  19611286.86544  15281522.75444  18774136.6894   18774136.2154
  20712173.06044  16139356.21644  18421802.9084   18421802.6074
  23702672.49044  18469615.04044  19677627.8214   19677627.4504
 96  3  7  4 33  0.0000000  0  7G24G23G17G 6G16G20G 5
  24057983.82044  18746480.54644  21448583.0264   21448582.4164
    962189.95844    749758.55144  22556608.1234   22556608.5344
  14217046.89244  11078219.29144  20455629.4324   20455629.3014
  15772978.98644  12290634.06944  18550907.7124   18550906.3264
  20235347.88844  15767804.06944  18892891.7204   18892891.5234
  21353060.50444  16638749.01144  18543759.4834   18543759.2614
  24384358.99044  19000799.31444  19807348.3934   19807347.9574
 96  3  7  4 33 30.0000000  0  7G24G17G 6G16G20G 5G23
  24723974.63144  19265434.37944  21575316.4964   21575315.6784
  14735929.66244  11482543.53444  20554369.7014   20554370.7274
  16314350.50344  12712482.00544  18653926.9314   18653925.6234
  20859950.01444  16254507.02344  19011749.6714   19011749.2184
  21994459.09944  17138540.11144  18665813.3454   18665813.5014
  25066337.12144  19532210.85144  19937124.7404   19937124.3804
   1443294.34644   1124645.13744  22648158.4814   22648161.0614
 96  3  7  4 34  0.0000000  0  7G24G17G 6G16G20G 5G23
  25389963.74544  19784386.94944  21702050.2064   21702046.5594
  15255039.19544  11887044.49044  20653152.8774   20653152.4314
  16855949.05144  13134506.84944  18756989.7524   18756988.7144
  21485096.79144  16741634.38744  19130710.7454   19130710.3674
  22636363.27344  17638725.16744  18787963.7674   18787963.8584
  25748605.95644  20063848.89944  20066956.0184   20066955.6784
   1924427.04844   1499553.78644  22739715.9574   22739719.1284
 96  3  7  4 34 30.0000000  0  7G24G23G17G 6G16G20G 5
  26055932.80344  20303323.86344  21828779.2914   21828778.9734
   2405599.04644   1874492.98444  22831280.5864   22831282.1574
  15774369.28944  12291717.31344  20751977.7694   20751978.5914
  17397755.10244  13556693.38344  18860092.0054   18860090.8674
  22110783.07644  17229182.14144  19249774.6884   19249774.6214
  23278773.36944  18139304.45044  18910210.4744   18910210.3964
  26431143.18744  20595696.07144  20196838.8224   20196839.2314
 96  3  7  4 35  0.0000000  0  7G24G23G17G 6G16G20G 5
  26721860.66944  20822228.70244  21955502.0434   21955502.6264
   2886815.74144   2249467.02144  22922853.2554   22922856.1704
  16293904.74144  12696550.14644  20850842.1544   20850841.8214
  17939752.14944  13979028.74444  18963230.5014   18963229.6684
  22736993.37344  17717138.21744  19368938.9904   19368938.4704
  23921688.80044  18640277.49944  19032552.9584   19032553.1274
  27113923.43944  21127732.63944  20326767.1714   20326767.3784
 96  3  7  4 35 30.0000000  0  7G17G24G23G 6G16G20G 5
  16813654.44444  13101549.93544  20949747.1634   20949746.9254
  27387760.43544  21341111.61944  22082219.2204   22082218.5224
   3368101.50244   2624494.90144  23014436.7664   23014441.4584
  18481951.75444  14401521.94844  19066407.8594   19066406.6194
  23363748.74144  18205519.02344  19488206.5954   19488206.0354
  24565129.29144  19141659.68644  19154996.2534   19154995.7974
  27796948.27244  21659959.75744  20456743.0344   20456742.5924
 96  3  7  4 36  0.0000000  0  7G17G24G23G 6G16G20G 5
  17333609.91444  13506710.04344  21048691.9364   21048692.1384
  28053632.61844  21859973.07844  22208929.6544   22208929.3034
   3849441.99144   2999565.46344  23106032.2914   23106036.7514
  19024335.45744  14824158.59844  19169620.1864   19169618.7394
  23991054.82444  18694328.95544  19607579.1114   19607578.8214
  25209092.18044  19643448.93444  19277537.9254   19277537.4844
  28480204.53244  22192367.21844  20586762.1114   20586761.5714
 96  3  7  4 36 30.0000000  0  7G17G24G23G 6G16G20G 5
  17853781.80544  13912038.79444  21147676.8524   21147676.4624
  28719477.51244  22378813.21244  22335635.1644   22335636.7064
   4330829.26344   3374672.38944  23197638.1174   23197642.2374
  19566926.11244  15246956.50944  19272871.5114   19272870.3454
  24618929.28144  19183581.78344  19727059.3164   19727059.0314
  25853578.24644  20145645.85444  19400179.9114   19400179.6694
  29163697.66144  22724959.26144  20716826.8504   20716826.4724
 96  3  7  4 37  0.0000000  0  7G17G24G23G 6G16G20G 5
  18374175.57844  14317540.44044  21246704.8674   21246705.0644
  29385295.88244  22897632.69244  22462336.5744   22462334.1784
   4812263.54244   3749815.98644  23289252.5264   23289255.3504
  20109736.23544  15669925.43444  19376164.8254   19376163.8654
  25247379.83644  19673283.51444  19846649.7774   19846649.3184
  26498577.31244  20648242.51744  19522918.8294   19522918.6644
  29847444.96444  23257749.36144  20846939.5184   20846938.9924
 96  3  7  4 37 30.0000000  0  7G17G 5G24G23G 6G16G20
  18894787.56144  14723212.12744  21345773.6824   21345773.7344
  30531467.62244  23790754.01844  20977104.1954   20977103.9094
  30051083.32044  23416428.09244  22589031.8204   22589032.3524
   5293749.43544   4124999.81044  23380875.4764   23380878.3844
  20652777.84544  16093074.74444  19479502.2144   19479501.1284
  25876407.54944  20163434.97744  19966349.4934   19966348.9794
  27144080.89844  21151232.31044  19645754.1224   19645754.2124
 96  3  7  4 38  0.0000000  0  7G17G 5G24G 6G16G20G23
  19415614.45744  15129051.27844  21444884.1524   21444884.1404
  31215786.71644  24323989.67244  21107326.3964   21107326.0104
  30716820.15544  23935184.07344  22715716.3134   22715715.6994
  21196054.91544  16516407.53344  19582884.5964   19582883.2814
  26505995.66344  20654023.12244  20086156.3044   20086156.0714
  27790079.40244  21654607.75544  19768683.2964   19768683.4714
   5775276.98344   4500216.08744  23472506.8724   23472509.1274
 96  3  7  4 38 30.0000000  0  7G17G 5G24G23G 6G16G20
  19936667.33644  15535066.52244  21544037.6974   21544037.1354
  31900408.23744  24857460.98044  21237604.9384   21237605.0584
  31382523.50744  24453913.94744  22842396.5074   22842395.7784
   6256851.01244   4875468.56644  23564147.1474   23564149.1444
  21739585.28944  16939937.69344  19686314.9554   19686313.6994
  27136132.97644  21145039.21344  20206067.2434   20206066.6684
  28436576.54544  22158371.74544  19891707.6514   19891707.8854
 96  3  7  4 39  0.0000000  0  7G17G 5G24G23G 6G16G20
  20457937.66744  15941251.20544  21643232.5214   21643231.1944
  32585332.87644  25391168.47344  21367941.7844   21367941.4074
  32048207.99144  24972629.12644  22969071.6484   22969071.6484
   6738464.74944   5250751.99644  23655796.0444   23655800.9954
  22283351.30944  17363651.47244  19789790.2384   19789789.0184
  27766781.31344  21636453.49644  20326075.7854   20326075.2394
  29083562.66144  22662516.75744  20014825.2234   20014825.2044
 96  3  7  4 39 30.0000000  0  7G17G 5G24G23G 6G16G20
  20979429.43444  16347608.43744  21742468.3934   21742468.1224
  33270559.80144  25925111.52844  21498336.5044   21498335.8404
  32713886.93544  25491340.00544  23095745.4504   23095744.9964
   7220101.91744   5626053.68444  23747449.3204   23747455.8114
  22827371.17544  17787563.05844  19893313.7504   19893312.3794
  28397926.93244  22128255.28144  20446178.8834   20446178.3004
  29731041.79244  23167045.93744  20138036.5814   20138036.4774
 96  3  7  4 40  0.0000000  0  7G17G 5G24G23G 6G16G20
  21501150.09544  16754144.03144  21841747.9254   21841748.2624
  33956068.37444  26459274.05644  21628784.2464   21628783.9584
  33379574.31744  26010057.42844  23222422.3084   23222420.8174
   7701757.98944   6001370.12244  23839106.4324   23839107.0424
  23371641.21444  18211669.58244  19996884.9324   19996883.4364
  29029556.67344  22620434.30544  20566373.4484   20566373.3434
  30379015.39044  23671960.41744  20261341.8154   20261341.5704
 96  3  7  4 40 30.0000000  0  7G17G 5G24G23G 6G16G20
  22023098.78844  17160857.30844  21941072.2014   21941070.9374
  34641835.37744  26993637.93244  21759281.4044   21759281.2344
  34045282.11944  26528790.78344  23349102.6904   23349100.3204
   8183456.72144   6376719.77444  23930770.8024   23930773.8824
  23916159.28944  18635969.37844  20100503.2994   20100502.0904
  29661663.94444  23112985.42544  20686659.8824   20686659.4754
  31027488.96344  24177264.48644  20384742.1374   20384741.8514
 96  3  7  4 41  0.0000000  0  7G17G 5G 6G16G20G24G23
  22545265.15544  17567740.20444  22040436.6634   22040437.0984
  35327846.07544  27528191.70244  21889824.9994   21889825.0064
  24460917.95944  19060456.65444  20204167.2454   20204165.9524
  30294255.95644  23605914.26044  20807037.8704   20807037.4414
  31676451.10644  24682949.25744  20508235.5024   20508235.6514
  34710987.81044  27047522.49444  23475782.9664   23475781.1504
   8665210.37644   6752112.20744  24022444.1114   24022446.0684
 96  3  7  4 41 30.0000000  0  7G16G17G 5G24G 6G20G23
  30927369.09444  24099249.17544  20927515.1604   20927515.0764
  23067653.45044  17974796.02744  22139844.1034   22139844.4214
  36014079.16344  28062918.78944  22020410.5454   22020410.0734
  35376681.63944  27566244.92344  23602459.6874   23602460.4014
  25005928.53144  19485140.21844  20307879.1244   20307877.7054
  32325904.83144  25189017.07844  20631822.3774   20631822.5934
   9147036.01744   7127560.76244  24114133.4294   24114138.4344
 96  3  7  4 42  0.0000000  0  7G16G17G 5G24G 6G20G23
  31558731.83344  24591220.14144  21047660.1014   21047659.6864
  23587976.51044  18380242.58844  22238857.5544   22238857.9714
  36698232.83744  28596025.53944  22150601.2044   22150600.6224
  36040067.63744  28083169.06344  23728697.8114   23728697.3404
  25548883.66044  19908222.14044  20411200.0604   20411198.5984
  32973557.43844  25693681.42844  20755066.5164   20755066.6754
   9626664.11544   7501296.94344  24205401.8384   24205404.6684
 96  3  7  4 42 30.0000000  0  7G16G17G 5G 6G20G24G23
  32182331.04444  25077141.60944  21166326.7874   21166326.4454
  24100207.15344  18779383.36044  22336331.6544   22336331.6294
  37374285.32244  29122819.67344  22279249.5374   22279248.9444
  26083758.46944  20325007.70044  20512983.5874   20512982.4494
  33613367.32044  26192234.56144  20876818.6264   20876819.0134
  36695110.61144  28593592.15244  23853347.8914   23853348.1594
  10098062.33344   7868620.24044  24295106.0654   24295107.5474
 96  3  7  4 43  0.0000000  0  7G17G 6G16G20G 5G24G23
  24606497.42144  19173895.26044  22432675.7884   22432675.9924
  26612706.44244  20737174.95144  20613639.1384   20613637.7744
  32800331.46044  25558700.37044  21283928.5354   21283928.1814
  34247474.67644  26686344.17344  20997484.9924   20997485.0804
  38044389.08244  29644978.44844  22406766.0104   22406765.3504
  37343967.99144  29099195.33344  23976821.5814   23976821.7104
  10563362.37744   8231191.67744  24383650.5114   24383652.1364
 96  3  7  4 43 30.0000000  0  7G17G 6G16G20G 5G24G23
  25107251.81144  19564093.49344  22527966.3054   22527966.4744
  27136139.62244  21145044.96044  20713245.0194   20713243.3794
  33413132.66544  26036207.80044  21400540.4924   21400540.0694
  34876285.23244  27176326.41444  21117143.8054   21117144.0254
  38708962.00244  30162827.47044  22533230.2424   22533229.9194
  37987047.20644  29600295.96944  24099194.9354   24099194.8694
  11022975.62744   8589331.87044  24471111.7374   24471116.4424
 96  3  7  4 44  0.0000000  0  7G17G 6G16G20G 5G24G23
  25590741.70944  19940838.88444  22619971.5384   22619971.0324
  27642336.00544  21539483.71344  20809570.8074   20809569.8184
  34008988.72844  26500511.22044  21513928.1434   21513928.0424
  35488079.13344  27653048.92544  21233564.1674   21233564.3854
  39356301.91544  30667248.18344  22656414.6174   22656414.6064
  38612618.35144  30087753.93844  24218236.7004   24218236.3844
  11465182.18644   8933908.43644  24555259.9244   24555262.3544
 96  3  7  4 44 30.0000000  0  7G17G 6G16G20G 5G24G23
  26064979.37444  20310374.74544  22710216.1034   22710215.9184
  28139322.18644  21926745.67744  20904144.3704   20904143.1244
  34595903.89344  26957847.71444  21625614.5884   21625614.1964
  36090876.16544  28122760.89144  21348272.5174   21348272.4284
  39994420.88644  31164483.73944  22777845.3404   22777844.6334
  39228696.02244  30567814.46144  24335473.8184   24335472.7644
  11898005.05544   9271173.01044  24637625.1124   24637623.4584
 96  3  7  4 45  0.0000000  0  7G17G 6G16G20G 5G24G23
  26533587.21744  20675523.71844  22799388.5934   22799388.7304
  28630726.03144  22309657.75044  20997655.2154   20997653.7294
  35177488.92044  27411030.84944  21736286.7234   21736286.2564
  36688308.37444  28588292.47344  21461960.3924   21461960.6374
  40626932.21544  31657349.69644  22898207.3344   22898206.8814
  39838889.18044  31043289.64944  24451589.8724   24451590.1434
  12325086.53644   9603963.77044  24718895.9054   24718897.9374
 96  3  7  4 45 30.0000000  0  7G17G 6G16G20G 5G24G23
  26991666.86444  21032468.91344  22886558.4854   22886558.3434
  29111641.54144  22684397.10044  21089170.3754   21089169.2524
  35748824.27644  27856227.23244  21845007.6364   21845007.5864
  37275482.88644  29045831.04544  21573695.9724   21573695.8284
  41248940.77044  32142031.67944  23016572.3554   23016571.4824
  40438280.27944  31510347.68044  24565650.8314   24565648.0674
  12741543.21344   9928475.47244  24798144.9084   24798146.5704
 96  3  7  4 46  0.0000000  0  7G17G 6G16G20G 5G24G23
  27439232.43444  21381221.31544  22971727.8204   22971727.7714
  29582075.89744  23050969.33244  21178691.3274   21178690.2224
  36309908.70644  28293435.87744  21951778.8594   21951778.4544
  37852400.86544  29495377.51144  21683479.8644   21683479.7724
  41860432.87844  32618519.02944  23132934.9374   23132934.8084
  41026882.68944  31968998.90344  24677657.1424   24677656.3134
  13147361.63044  10244697.63744  24875370.1414   24875371.3174
 96  3  7  4 46 30.0000000  0  7G17G 6G16G20G 5G24G23
  27878627.73944  21723607.27144  23055341.4714   23055340.9244
  30044375.67244  23411202.92944  21266663.7394   21266663.0094
  36863079.39344  28724477.97044  22057043.6854   22057043.2384
  38421388.65644  29938744.59944  21791754.7154   21791754.4334
  42463730.50044  33088621.05644  23247738.8504   23247738.2314
  41607052.62944  32421079.37844  24788059.7824   24788059.0984
  13544875.49244  10554448.70144  24951013.9384   24951016.8484
 96  3  7  4 47  0.0000000  0  7G17G 6G16G20G 5G24G23
  28313964.59444  22062830.80444  23138183.0904   23138182.3734
  30502654.71644  23768303.48544  21353871.5194   21353870.3294
  37412446.13244  29152555.94544  22161584.8404   22161584.3414
  38986554.97744  30379133.91844  21899302.2214   21899302.2674
  43062958.37144  33555551.85144  23361768.2514   23361768.1774
  42182910.84944  32869800.10444  24897642.2284   24897642.1314
  13938195.73944  10860932.03844  25025861.7134   25025862.9294
 96  3  7  4 47 30.0000000  0  7G17G 6G16G20G 5G24G23
  28732968.77744  22389327.58144  23217917.2544   23217916.8754
  30944655.43544  24112719.62544  21437981.2214   21437979.9344
  37945751.27244  29568118.39744  22263069.3314   22263068.8694
  39535627.79644  30806982.84944  22003787.4094   22003787.4914
  43645856.64744  34009758.30944  23472690.1644   23472689.9114
  42742213.12044  33305620.00444  25004073.8624   25004075.0724
  14315045.16544  11154580.94844  25097573.5564   25097573.3624
 96  3  7  4 48  0.0000000  0  7G17G 6G16G20G 5G24G23
  29141768.67544  22707872.96744  23295709.1514   23295709.4994
  31376516.03244  24449234.37544  21520161.7634   21520160.7034
  38469138.68944  29975952.74344  22362666.1744   22362665.8724
  40074730.62244  31227062.96144  22106375.1774   22106375.2254
  44218544.39544  34456008.49344  23581669.3024   23581668.9634
  43291104.19044  33733327.33344  25108523.7634   25108522.8674
  14681538.25144  11440159.98444  25167315.1834   25167317.1474
 96  3  7  4 48 30.0000000  0  7G17G 6G16G20G 5G24G23
  29543694.11744  23021061.63944  23372192.8594   23372192.5214
  31801571.44444  24780446.38444  21601046.9384   21601046.2444
  38985956.33244  30378667.79344  22461013.7154   22461013.2474
  40607217.36544  31641987.68744  22207704.1564   22207703.8684
  44784364.02244  34896906.89144  23689341.0914   23689340.6494
  43832916.57544  34155518.81444  25211626.9944   25211626.4574
  15041033.01544  11720285.77544  25235724.1194   25235725.9944
 96  3  7  4 49  0.0000000  0  7G17G 6G16G20G 5G24G23
  29934683.25444  23325728.51044  23446595.6564   23446595.4674
  32215762.70344  25103192.81544  21679864.8714   21679864.0394
  39492152.89044  30773106.67044  22557339.5664   22557339.5304
  41129039.15844  32048602.06444  22307003.4134   22307003.4054
  45339256.46344  35329290.59944  23794933.3304   23794932.8654
  44363571.20944  34569015.90344  25312606.1054   25312606.9774
  15389470.93844  11991795.82244  25302029.4614   25302030.5834
 96  3  7  4 49 30.0000000  0  7G17G 6G16G20G 5G24G23
  30314638.39344  23621797.45144  23518898.4574   23518898.7254
  32618982.28944  25417389.89244  21756595.2684   21756593.7414
  39987627.14744  31159190.50144  22651625.1114   22651624.8604
  41640090.09044  32446823.55444  22404253.2204   22404253.0064
  45883100.56144  35753065.21644  23898423.1634   23898422.5774
  44882953.86344  34973729.59444  25411442.7604   25411442.3534
  15726748.69444  12254609.68244  25366210.2834   25366211.9224
 96  3  7  4 50  0.0000000  0  7G17G 6G16G20G 5G24G23
  30687826.34944  23912593.26844  23589914.1844   23589914.1134
  33015477.18244  25726346.94744  21832045.7394   21832044.1914
  40476621.46044  31540225.03244  22744678.0764   22744677.5254
  42144627.75844  32839969.77844  22500263.5084   22500263.1794
  46420138.11744  36171536.03544  24000618.7464   24000617.6474
  45395310.35444  35372968.36344  25508941.6764   25508939.1434
  16057140.34344  12512057.74944  25429081.7464   25429082.1274
 96  3  7  4 50 30.0000000  0  7G17G 6G16G20G 5G24G23
  31057633.73744  24200754.88544  23660286.1084   23660285.9534
  33408638.70344  26032706.57544  21906861.7504   21906860.8534
  40962502.66044  31918833.75844  22837138.0814   22837137.6304
  42646031.35944  33230673.87744  22595677.5734   22595677.8674
  46953753.65844  36587340.34844  24102162.4484   24102160.7724
  45904011.16844  35769358.62244  25605744.0944   25605743.6824
  16384051.79044  12766793.91144  25491292.1964   25491292.5764
 96  3  7  4 51  0.0000000  0  7G17G 6G16G20G 5G24G23
  31423673.96344  24485981.03844  23729942.0024   23729941.9734
  33798067.38444  26336157.49644  21980967.5774   21980966.5304
  41444867.44844  32294702.42644  22928928.8834   22928928.1954
  43143879.93444  33618607.83044  22690415.0044   22690414.8464
  47483559.15344  37000175.78544  24202980.5424   24202980.1074
  46408665.15244  36162595.51244  25701776.3684   25701774.7384
  16707084.01044  13018507.33644  25552762.5194   25552763.2704
 96  3  7  4 51 30.0000000  0  7G17G 6G16G20G 5G24G23
  31786918.92744  24769029.08044  23799064.9264   23799064.6514
  34184732.81944  26637455.23744  22054547.3384   22054546.1744
  41924678.43144  32668581.11144  23020234.0374   23020233.5844
  43639122.27844  34004510.94944  22784656.6654   22784656.4304
  48010522.11144  37410796.26944  24303258.2114   24303258.6044
  46910244.28544  36553436.39244  25797224.9484   25797222.3834
  17027207.85144  13267954.53844  25613679.9184   25613680.6644
 96  3  7  4 52  0.0000000  0  7G17G 6G16G20G 5G24G23
  32147944.60344  25050347.79844  23867765.6334   23867765.4144
  34569219.17644  26937054.99644  22127712.8914   22127711.6274
  42402498.53544  33040908.46244  23111160.0754   23111159.6274
  44132324.06244  34388824.01744  22878509.7384   22878509.3654
  48535219.13444  37819651.08244  24403104.6314   24403103.8944
  47409319.38644  36942326.09444  25892195.6964   25892195.0584
  17344996.80844  13515582.27444  25674154.1184   25674154.7024
 96  3  7  4 52 30.0000000  0  7G17G 6G16G20G 5G24G23
  32495018.65744  25320795.12144  23933811.3514   23933811.0604
  34939806.59044  27225824.40744  22198233.4474   22198232.0884
  42866612.48944  33402555.70044  23199478.1524   23199477.7474
  44611756.55544  34762407.76044  22969742.8614   22969742.6804
  49045935.23744  38217611.68144  24500290.9364   24500289.7874
  47894173.78244  37320134.76044  25984460.3934   25984458.6564
  17648713.00444  13752244.21444  25731947.2884   25731948.4464
 96  3  7  4 53  0.0000000  0  7G17G 6G16G20G 5G24G23
  32828647.23544  25580765.44444  23997298.6614   23997298.5174
  35297005.67844  27504161.35744  22266206.0554   22266204.9664
  43317531.43444  33753921.11044  23285284.8704   23285284.7014
  45077921.95344  35125653.51144  23058450.9764   23058450.6134
  49543173.35444  38605069.94344  24594911.0284   24594910.5514
  48365326.11344  37687266.42144  26074115.7604   26074115.4794
  17938862.10744  13978334.44744  25787161.7204   25787162.1894
 96  3  7  4 53 30.0000000  0  7G17G 6G16G20G 5G24G23
  33156035.20744  25835872.96844  24059598.4294   24059598.0064
  35648042.81344  27777696.78344  22333006.1944   22333004.9694
  43762447.92244  34100609.27644  23369949.8374   23369949.3404
  45538039.62944  35484186.74244  23146008.1924   23146008.2364
  50034121.48944  38987626.93044  24688336.2234   24688335.8964
  48829993.77244  38049345.11344  26162538.5244   26162541.6014
  18222654.54244  14199471.43044  25841165.8934   25841166.7944
 96  3  7  4 54  0.0000000  0  7G17G 6G16G20G 5G24G23
  33477004.39144  26085978.83544  24120676.7814   24120676.5564
  35992746.76044  28046297.25944  22398601.1974   22398600.0534
  44201189.42044  34442485.76644  23453439.6924   23453439.1974
  45991942.62044  35837877.36344  23232382.9974   23232383.2514
  50518606.19344  39365147.46444  24780530.4664   24780530.1514
  49288020.23844  38406248.79944  26249698.7894   26249701.9674
  18499932.76344  14415532.38644  25893930.0134   25893931.0604
 96  3  7  4 54 30.0000000  0  7G17G 6G16G20G 5G24G23
  33789565.74744  26329533.14044  24180155.6624   24180155.0374
  36329136.23444  28308418.92844  22462614.1284   22462612.5514
  44631781.75144  34778012.25444  23535378.7494   23535378.2794
  46437645.30044  36185178.13544  23317197.7834   23317198.2864
  50994642.94744  39736085.17344  24871117.9304   24871116.3804
  49737429.33044  38756437.64044  26335219.3154   26335220.0044
  18768717.72544  14624975.20644  25945077.9304   25945077.9324
 96  3  7  4 55  0.0000000  0  7G17G 6G16G20G 5G24G23
  34095325.27344  26567787.32144  24238339.9724   24238339.3444
  36658819.41444  28565314.91744  22525350.7494   22525349.1994
  45055818.94544  35108430.84244  23616070.2004   23616069.7644
  46876753.04244  36527339.98744  23400757.3034   23400757.4024
  51463822.69244  40101679.76344  24960399.0934   24960399.5384
  50179806.73144  39101147.28944  26419401.8034   26419402.1954
  19030621.75744  14829056.31144  25994916.9114   25994915.6464
 96  3  7  4 55 30.0000000  0  7G17G 6G16G20G 5G24G23
  34396590.93044  26802539.78244  24295669.1434   24295668.6394
  36984089.71644  28818772.29744  22587247.3454   22587246.2004
  45475615.70344  35435545.19044  23695955.2914   23695954.8694
  47311582.64444  36866168.23244  23483502.6954   23483502.4154
  51928453.99744  40463730.13444  25048816.2264   25048816.3274
  50617447.99844  39442166.41244  26502682.0164   26502682.0474
  19287950.15744  15029571.95444  26043884.7514   26043887.0604
 96  3  7  4 56  0.0000000  0  7G17G 6G16G20G 5G24G23
  34694335.18144  27034548.29644  24352327.3334   24352327.2424
  37305913.79744  29069544.31244  22648488.4694   22648487.4844
  45892160.32244  35760125.41144  23775220.3174   23775220.2624
  47743105.30644  37202419.64844  23565618.3684   23565618.5204
  52389529.37444  40823009.65744  25136555.3624   25136556.0264
  51051305.88244  39780237.45444  26585243.0064   26585240.3284
  19541680.72344  15227284.08644  26092168.1664   26092167.5194
 96  3  7  4 56 30.0000000  0  7G17G 6G16G20G 5G23G26
  34988421.89344  27263706.77744  24408290.3394   24408290.0824
  37624151.92544  29317522.06944  22709047.4174   22709046.2384
  46305308.04344  36082058.69744  23853840.0564   23853839.5424
  48171201.60444  37536001.16244  23647082.2884   23647082.6344
  52846905.41444  41179406.55844  25223591.5954   25223591.9954
  19791672.62244  15422082.99844  26139739.2304   26139738.8164
        -0.37254                  26164918.0304
 96  3  7  4 57  0.0000000  0  7G17G 6G16G20G 5G23G26
  35274204.53644  27486394.56344  24462673.2744   24462672.6664
  37934159.50444  29559086.41044  22768039.7144   22768038.4514
  46710412.62544  36397724.60644  23930929.0224   23930928.6114
  48591238.07844  37863302.29944  23727012.9274   23727012.6314
  53295947.07444  41529309.12544  25309041.2484   25309042.2884
  20033295.28744  15610360.41844  26185718.5544   26185719.2754
    266807.82044                  26215690.2904
 96  3  7  4 57 30.0000000  0  7G17G 6G16G20G 5G23G26
  35551512.94344  27702479.04244  24515442.8144   24515443.2094
  38235766.03344  29794104.48244  22825433.7454   22825432.6104
  47107306.29544  36706992.39244  24006454.9594   24006454.7114
  49003025.03744  38184175.24344  23805372.9624   23805373.3444
  53736477.97144  41872579.93944  25392871.6474   25392870.4774
  20266377.12744  15791982.66144  26230072.9474   26230074.7514
    525032.39444                  26264828.4944
 96  3  7  4 58  0.0000000  0  7G17G 6G16G20G 5G23G26
  35824910.05244  27915515.75744  24567468.7584   24567468.7004
  38533552.33944  30026145.75644  22882100.5014   22882099.2434
  47500554.66244  37013419.69344  24081287.7644   24081287.4114
  49411113.74444  38502166.42344  23883029.9224   23883030.1924
  54173063.78244  42212776.67544  25475951.4214   25475950.9634
  20495489.08444  15970511.46144  26273672.5104   26273673.5044
    779249.57144                  26313204.8294
 96  3  7  4 58 30.0000000  0  7G 6G17G16G20G 5G23G26
  38823533.22644  30252104.88444  22937281.9354   22937280.8994
  36090423.10744  28122409.05944  24617994.2444   24617993.6474
  47886178.87244  37313906.08644  24154669.8224   24154669.6184
  49811516.07244  38814168.21844  23959224.2804   23959224.4604
  54601709.43344  42546786.26744  25557519.1734   25557518.8534
  20716657.99844  16142850.88244  26315759.4934   26315759.0454
   1025489.42044                  26360061.7944
 96  3  7  4 59  0.0000000  0  6G 6G17G16G20G 5G23
  39102291.62844  30469319.22244  22990327.8754   22990326.6974
  36344640.53544  28320500.56644  24666370.3154   24666369.7904
  48260759.19644  37605786.85844  24225950.4164   24225949.9664
  50200774.66644  39117486.58144  24033297.6674   24033297.9374
  55018984.87844  42871935.95144  25636923.9654   25636923.5734
  20926458.24644  16306331.61144  26355683.7664   26355684.0814
 96  3  7  4 59 30.0000000  0  6G 6G17G16G20G 5G23
  39370086.35644  30677990.43244  23041287.4794   23041286.4034
  36587836.00644  28510003.53444  24712648.9254   24712648.8764
  48624542.18644  37889254.11944  24295175.9254   24295175.2814
  50579127.93144  39412307.28944  24105295.8404   24105296.1914
  55425126.89544  43188410.24244  25714210.5314   25714210.4844
  21125136.47644  16461145.83144  26393489.8044   26393489.6724
 96  3  7  5  0  0.0000000  0  6G 6G17G16G20G 5G23
  39631626.48244  30881787.93244  23091057.1544   23091055.6704
  36824714.58344  28694584.25544  24757725.4364   24757724.7744
  48982216.85644  38167961.64544  24363238.8334   24363238.6234
  50951295.15544  39702307.70144  24176117.0464   24176117.0764
  55824845.14444  43499879.00744  25790274.8564   25790273.7604
  21317396.97344  16610959.20444  26430075.7984   26430076.5654
 96  3  7  5  0 30.0000000  0  6G 6G17G16G20G 5G23
  39890261.07144  31083321.38144  23140273.5534   23140272.2704
  37058616.69844  28876845.65544  24802235.5644   24802235.3424
  49337094.01544  38444489.30744  24430769.8544   24430769.1364
  51320618.26644  39990091.92144  24246397.1004   24246396.9144
  56221463.61444  43808932.34544  25865748.1404   25865748.5864
  21506579.55244  16758374.20844  26466076.7444   26466076.0394
 96  3  7  5  1  0.0000000  0  7G 6G17G16G20G 5G26G23
  40145907.86344  31282526.67944  23188921.5584   23188920.4804
  37289426.53744  29056697.48644  24846156.7724   24846157.1804
  49689058.59244  38718747.41444  24497746.1594   24497746.3464
  51687000.74644  40275584.74444  24316116.9994   24316116.8504
  56614874.62944  44115486.35944  25940612.3054   25940613.3274
        -0.37654                  26569498.6824
  21692571.00244  16903302.62944  26501470.1724   26501470.3854
 96  3  7  5  1 30.0000000  0  7G 6G17G16G20G 5G26G23
  40399019.89244  31479756.83844  23237087.0744   23237085.9654
  37517579.96144  29234479.38044  24889572.8304   24889573.5674
  50038554.26644  38991081.70044  24564253.2234   24564252.8044
  52050910.12544  40559150.47544  24385366.6364   24385366.6494
  57005529.99244  44419893.11644  26014951.0084   26014950.1404
    208065.20644                  26609090.4514
  21875822.67044  17046096.13744  26536341.3004   26536342.5754
 96  3  7  5  2  0.0000000  0  7G 6G17G16G20G 5G26G23
  40649636.74144  31675042.69444  23284777.9214   23284776.6634
  37743105.25944  29410213.39044  24932489.0154   24932488.8094
  50385630.85044  39261530.98544  24630300.0264   24630299.5674
  52412392.83044  40840825.29544  24454154.3134   24454154.4434
  57393482.82644  44722194.01944  26088776.9724   26088777.2454
    413434.13444                  26648171.6894
  22056387.18444  17186795.75644  26570700.6154   26570699.0864
 96  3  7  5  2 30.0000000  0  7G 6G17G16G20G 5G26G23
  40886165.24344  31859350.61244  23329787.9044   23329786.4554
  37954418.32044  29574872.92444  24972700.8244   24972701.0234
  50718723.17444  39521083.43944  24693685.0774   24693684.7734
  52759851.37744  41111572.19944  24520273.5154   24520273.7534
  57767145.93444  45013360.08844  26159882.1664   26159881.9464
    604551.18044                  26684537.9874
  22222683.85244  17316377.58744  26602345.6094   26602346.1804
 96  3  7  5  3  0.0000000  0  7G 6G17G16G20G 5G26G23
  41113121.38244  32036199.54444  23372976.2184   23372974.7534
  38156051.31044  29731989.54844  25011070.4144   25011070.3754
  51042396.50944  39773296.42444  24755277.6644   24755277.2374
  53097808.93244  41374915.72944  24584584.8184   24584584.6284
  58131061.01144  45296930.27944  26229132.3154   26229133.3684
    785971.43644                  26719062.0044
  22379254.69744  17438380.82844  26632140.0174   26632140.6804
 96  3  7  5  3 30.0000000  0  7G 6G17G16G20G 5G26G23
  41334410.65244  32208632.73444  23415085.9894   23415084.8234
  38351930.18344  29884622.44544  25048344.3744   25048344.2644
  51360562.82844  40021218.22944  24815822.9574   24815822.5524
  53430166.88044  41633895.93644  24647830.8194   24647831.2704
  58489153.84844  45575963.66644  26297276.1984   26297276.6424
    961604.22644                  26752483.7834
  22530026.91544  17555865.67844  26660830.9394   26660832.0514
 96  3  7  5  4  0.0000000  0  7G 6G17G16G20G 5G26G23
  41546679.20144  32374036.78544  23455479.3294   23455477.9654
  38538701.29344  30030158.37944  25083885.8814   25083885.8044
  51669860.78444  40262229.62644  24874680.3454   24874680.6294
  53753558.76444  41885889.59344  24709370.2314   24709370.2184
  58838062.88944  45847840.82244  26363671.0894   26363671.4324
   1128087.72144                  26784165.3644
  22671654.47044  17666224.83244  26687781.5024   26687781.6554
 96  3  7  5  4 30.0000000  0  7G 6G17G16G20G 5G26G23
  41750002.19544  32532470.27644  23494170.7404   23494169.4834
  38716423.76844  30168643.43944  25117705.6664   25117705.3714
  51970346.86544  40496374.62144  24931861.3624   24931861.1924
  54068047.42444  42130945.67344  24769215.6064   24769216.0024
  59177827.48144  46112592.43744  26428325.3514   26428325.8584
   1285464.05044                  26814110.4594
  22804189.78944  17769499.08844  26713002.0484   26713002.7154
 96  3  7  5  5  0.0000000  0  7G 6G17G16G20G 5G26G23
  41946217.42944  32685365.25644  23531508.9234   23531507.7374
  38886932.41444  30301507.32944  25150151.7864   25150152.1024
  52263817.90744  40725053.34944  24987706.7444   24987706.6784
  54375466.87144  42370493.27744  24827715.1544   24827715.0204
  59510268.35844  46371637.25344  26491586.5394   26491587.1244
   1435533.02244                  26842668.3794
  22929452.24744  17867106.23244  26736839.8034   26736839.2454
 96  3  7  5  5 30.0000000  0  7G 6G17G16G20G 5G26G23
  42137501.14744  32834417.49744  23567909.0134   23567907.9534
  39052392.76944  30430437.48544  25181637.9474   25181638.4254
  52552411.85644  40949931.74644  25042624.3464   25042623.8044
  54677989.34944  42606225.06944  24885283.1944   24885282.9974
  59837536.39344  46626651.30744  26553864.0334   26553863.0904
   1580444.35744                  26870247.0654
  23049601.25844  17960728.81444  26759702.7854   26759702.3994
 96  3  7  5  6  0.0000000  0  7G 6G17G16G20G 5G26G23
  42326297.10344  32981531.21944  23603835.8344   23603834.4434
  39215241.15644  30557332.34444  25212627.2554   25212626.6564
  52838581.25044  41172920.88144  25097080.4144   25097080.0814
  54978061.46244  42840047.48144  24942385.0094   24942385.4044
  60162052.63844  46879521.13244  26615617.8164   26615617.9634
   1722643.19844                  26897304.7964
  23167073.22244  18052265.43244  26782056.7614   26782058.8664
 96  3  7  5  6 30.0000000  0  7G 6G17G16G20G 5G26G23
  42511934.70244  33126183.88944  23639161.2824   23639160.2864
  39374823.05644  30681681.87844  25242994.7274   25242995.0534
  53121663.20244  41393504.21044  25150949.6684   25150949.1224
  55275009.91744  43071435.87444  24998892.2654   24998892.7804
  60483160.32844  47129734.93744  26676723.0244   26676722.1614
   1861469.70744                  26923722.9454
  23281205.48344  18141199.67744  26803775.0034   26803776.2344
 96  3  7  5  7  0.0000000  0  7G 6G17G16G20G 5G26G23
  42683379.43444  33259777.18744  23671786.3864   23671785.2734
  39520123.98944  30794903.39044  25270644.5304   25270644.0544
  53390629.15644  41603088.07544  25202132.1584   25202131.3234
  55557808.24944  43291798.19344  25052707.4124   25052707.7654
  60789853.72644  47368716.81544  26735085.4714   26735085.5634
   1985914.81444                  26947402.5444
  23381000.43444  18218961.97444  26822765.3174   26822765.7834
 96  3  7  5  7 30.0000000  0  7G 6G17G16G20G 5G26G23
  42845875.52744  33386397.51944  23702708.4444   23702707.1304
  39656367.96344  30901067.53244  25296571.0774   25296570.6234
  53650745.76644  41805776.33844  25251630.3624   25251630.0734
  55831694.02044  43505215.66544  25104826.1774   25104825.9624
  61087378.45344  47600554.24744  26791702.0974   26791702.0184
   2101247.82944                  26969350.7954
  23471721.35644  18289653.61444  26840029.4434   26840029.8724
 96  3  7  5  8  0.0000000  0  8G26G22G 6G17G16G20G 5G23
   2211739.22444                  26990375.8004
        -0.52954                  28207071.4994
  43003672.60844  33509356.28444  23732736.1134   23732735.0214
  39787799.25044  31003481.52844  25321580.9964   25321580.8914
  53906266.10544  42004883.08444  25300254.1314   25300253.9884
  56100909.88744  43714994.24644  25156055.7604   25156056.1274
  61379992.16144  47828564.90944  26847383.9924   26847382.8574
  23557620.45544  18356587.97044  26856375.6644   26856375.7064
 96  3  7  5  8 30.0000000  0  8G26G22G 6G17G16G20G 5G23
   2319986.82544   1807782.63844  27010974.9974
    100982.60344                  28226287.8584
  43159363.35144  33630673.74144  23762363.1884   23762361.8884
  39917002.68044  31104159.52444  25346167.7864   25346167.4854
  54159760.51144  42202411.19144  25348492.5774   25348492.3774
  56368046.10344  43923152.31644  25206890.9984   25206890.8814
  61670294.81144  48054774.75844  26902626.5484   26902626.3824
  23641295.26144  18421789.12344  26872298.2344   26872298.2504
 96  3  7  5  9  0.0000000  0  7G 5G26G 6G17G16G20G23
  61951580.16444  48273958.13944  26956153.8084   26956154.0414
   2419301.42344   1885170.61344  27029873.8024
  43306264.85444  33745142.43644  23790317.5464   23790316.2904
  40037272.78644  31197876.49244  25369054.5574   25369054.3214
  54404533.05944  42393143.04844  25395071.2424   25395071.1274
  56626427.52144  44124488.46544  25256058.9284   25256059.3874
  23716037.88644  18480030.11844  26886521.2054   26886520.9184
 96  3  7  5  9 30.0000000  0  7G 6G 5G26G17G16G20G23
  43448208.64744  33855747.98644  23817328.4554   23817327.3224
  62227652.30344  48489079.28044  27008688.5614   27008688.3064
   2513506.54144   1958577.22744  27047801.7954
  40152425.42144  31287605.82644  25390967.5634   25390967.2214
  54644408.21344  42580058.74844  25440718.2704   25440717.5004
  56879864.08944  44321971.49344  25304285.9124   25304286.4344
  23785646.02744  18534270.23644  26899766.8144   26899766.9154
 96  3  7  5 10  0.0000000  0  8G 6G 5G26G22G17G16G20G23
  43583383.10044  33961078.72744  23843051.5394   23843050.2624
  62496695.53644  48698723.35744  27059886.0464   27059886.4004
   2600778.47744   2026581.33944  27064407.2324
        -0.97354                  28275715.5434
  40260667.02244  31371949.94944  25411565.4044   25411565.2194
  54877550.99744  42761728.44844  25485083.7304   25485083.6104
  57126527.60944  44514176.82044  25351224.7534   25351224.9464
  23848306.64344  18583096.70644  26911690.9554   26911692.3044
 96  3  7  5 10 30.0000000  0  8G 6G 5G26G17G16G20G23G22
  43713925.72244  34062800.25244  23867892.6704   23867891.4054
  62760850.72844  48904558.57044  27110153.1944   27110152.6914
   2683251.31044   2090845.90644  27080101.2174   27080104.4434
  40364158.62944  31452592.76344  25431259.5024   25431258.8924
  55106104.26144  42939821.89244  25528575.8404   25528575.9114
  57368555.34444  44702769.84644  25397281.5074   25397281.2534
  23906168.73144  18628184.05544  26922702.3254   26922703.0474
     75733.88744     59013.86844  28290127.4044   28290123.2384
 96  3  7  5 11  0.0000000  0  8G 6G 5G26G17G16G20G23G22
  43839182.37144  34160402.84244  23891728.4684   23891727.0184
  63019449.46244  49106064.08244  27159362.4834   27159361.4954
   2760272.40444   2150862.35044  27094759.6064
  40462254.59644  31529031.17844  25449925.6454   25449925.5334
  55329420.45044  43113834.50244  25571071.7224   25571071.2804
  57605276.83444  44887228.14244  25442327.7224   25442327.4434
  23958580.94044  18669024.75744  26932675.5744   26932676.7094
    146144.71744    113879.50444  28303526.5174   28303522.6964
 96  3  7  5 11 30.0000000  0  8G 6G 5G26G22G17G16G20G23
  43959491.04444  34254149.85544  23914622.5494   23914621.1194
  63272837.55044  49303509.33344  27207579.9784   27207580.3824
   2832172.38744   2206888.31044  27108439.3714
    211558.58644                  28315973.2474
  40555296.00444  31601530.99144  25467630.8064   25467630.7064
  55547830.87744  43284024.44644  25612633.4954   25612633.2874
  57836999.93344  45067791.58344  25486423.2114   25486423.5244
  24005908.68144  18705903.53644  26941682.1954   26941683.3444
 96  3  7  5 12  0.0000000  0  8G 6G 5G26G22G17G16G20G23
  44066047.55444  34337180.89844  23934899.4034   23934898.6154
  63512221.78044  49490042.51044  27253133.3924   27253134.0014
   2890147.93044   2252064.06244  27119472.7684
    263190.89644                  28325798.9924
  40634481.79744  31663234.21344  25482699.7304   25482699.4964
  55752529.89544  43443530.17244  25651586.5204   25651586.6284
  58054934.21244  45237610.49244  25527894.9424   25527895.4154
  24039365.68444  18731973.93944  26948049.6394   26948049.6734
 96  3  7  5 12 30.0000000  0  8G 6G 5G26G22G17G16G20G23
  44164516.66544  34413910.07044  23953637.4114   23953636.1224
  63743258.60944  49670071.19444  27297098.8254   27297100.3424
   2939872.85144   2290810.77344  27128936.1404   27128932.9754
    306715.37744                  28334078.4674
  40705452.13644  31718535.78344  25496204.8714   25496204.4774
  55949191.59744  43596773.04844  25689010.2264   25689009.5954
  58264758.99244  45401110.31144  25567823.0324   25567822.9914
  24064607.84544  18751643.16044  26952851.7204   26952851.9934
 96  3  7  5 13  0.0000000  0  8G 6G 5G26G22G17G16G20G23
  44255849.69144  34485078.65244  23971017.6384   23971016.3534
  63966881.66044  49844322.93744  27339653.5174   27339652.9654
   2982288.71644   2323862.08644  27137006.9164   27137003.2434
    343075.95544                  28340998.8054
  40769118.19244  31768145.70544  25508320.4214   25508320.3924
  56138747.01644  43744478.55844  25725081.2484   25725080.8684
  58467410.48744  45559020.56144  25606386.4234   25606386.4214
  24082572.03044  18765641.23344  26956269.8004   26956270.8864
 96  3  7  5 13 30.0000000  0  8G 6G 5G26G22G17G16G20G23
  44338495.31844  34549477.83144  23986744.5814   23986743.3884
  64181537.98044  50011587.57544  27380500.2044   27380499.9774
   3015841.69444   2350007.30744  27143393.1914   27143392.9344
    370722.20244    288874.95544  28346256.0704   28346251.6094
  40823905.11044  31810836.82244  25518746.0964   25518745.5974
  56319626.70144  43885423.76044  25759501.4284   25759501.7584
  58661333.81244  45710129.63344  25643288.3794   25643288.8594
  24091694.19944  18772749.44644  26958005.9514   26958007.5244
 96  3  7  5 14  0.0000000  0  8G 5G 6G26G22G17G16G20G23
  64385022.37044  50170146.84144  27419222.3914   27419222.8514
  44410270.22144  34605406.32644  24000402.5904   24000401.4724
   3038369.79044   2367561.64044  27147678.9304
    387458.41944                  28349439.9864
  40867624.77944  31844904.10544  25527065.4274   25527064.9004
  56489638.58244  44017900.55944  25791853.8814   25791853.0734
  58844346.38044  45852736.81944  25678114.4354   25678114.9264
  24089768.51144  18771248.91644  26957639.8264   26957639.1644
 96  3  7  5 14 30.0000000  0  8G 5G 6G26G22G17G16G20G23
  64574112.01044  50317489.39944  27455204.5934   27455204.6894
  44467969.62344  34650366.90544  24011382.5354   24011381.1064
   3046673.27044   2374031.87244  27149259.1014   27149259.9214
    390075.47544                  28349939.0914
  40897075.56044  31867852.77244  25532669.5094   25532669.4814
  56645571.69644  44139406.87944  25821527.0784   25821527.2484
  59013229.10044  45984333.72944  25710251.7954   25710252.2674
  24073589.57044  18758641.96944  26954560.5254   26954559.8984
 96  3  7  5 15  0.0000000  0  8G 6G 5G26G22G17G16G20G23
  44521847.54744  34692349.70744  24021635.2564   24021634.0584
  64759047.11544  50461594.68144  27490396.8154   27490396.2454
   3051011.74244   2377412.49744  27150084.0974   27150084.5104
    388830.64944                  28349703.5914
  40922540.50344  31887695.59244  25537514.9544   25537515.3154
  56797668.44044  44257923.81544  25850470.1664   25850469.6174
  59178223.07444  46112900.44444  25741649.3304   25741649.1624
  24053412.76544  18742919.79244  26950721.7934   26950722.8494
 96  3  7  5 15 30.0000000  0  8G 6G 5G26G22G17G16G20G23
  44565900.80344  34726676.92144  24030018.3614   24030017.1414
  64933814.42744  50597776.99944  27523652.6374   27523652.8864
   3045404.77744   2373043.44644  27149018.2424   27149019.7774
    377733.37444                  28347590.0624
  40938051.24144  31899781.88044  25540466.9864   25540467.0524
  56939939.25444  44368784.18244  25877543.1264   25877542.7314
  59333331.52344  46233764.15044  25771165.8584   25771166.2324
  24023234.92744  18719404.61444  26944979.4344   26944979.5054
 96  3  7  5 16  0.0000000  0  8G 5G 6G26G22G17G16G20G23
  65104007.66244  50730395.11444  27556040.7474   27556040.9804
  44605719.29444  34757704.31444  24037595.7614   24037594.4434
   3035451.49244   2365287.66244  27147123.1174   27147122.6474
    362409.33244    282397.47744  28344678.2234
  40949233.42544  31908495.27644  25542595.1644   25542594.5974
  57077996.14244  44476360.96844  25903814.7054   25903814.5444
  59484166.31144  46351297.74144  25799868.4104   25799868.6454
  23988672.14544  18692472.58944  26938402.0424   26938402.7754
 96  3  7  5 16 30.0000000  0  8G 5G 6G26G22G17G16G20G23
  65263703.26144  50854833.24144  27586429.7804   27586430.3134
  44635355.71644  34780797.62844  24043235.0064   24043233.6984
   3015192.34744   2349501.32144  27143268.2194   27143268.1714
    336925.35544    262539.85544  28339827.5474
  40950147.87444  31909207.84044  25542769.1364   25542768.6244
  57205896.79844  44576023.80444  25928153.7404   25928153.3534
  59624795.15844  46460878.64144  25826629.1064   25826629.5254
  23943789.83144  18657499.36344  26929861.7994   26929860.1204
 96  3  7  5 17  0.0000000  0  8G 5G 6G26G22G17G16G20G23
  65410863.13044  50969503.26944  27614432.2334   27614433.6774
  44652767.99644  34794365.63044  24046548.9264   24046547.7124
   2982576.15544   2324086.11844  27137061.2664   27137059.9724
    299222.01344                  28332653.8904
  40938733.14744  31900313.25544  25540596.8454   25540596.3994
  57321591.44644  44666175.48044  25950169.5454   25950169.1364
  59753167.33544  46560908.89244  25851058.2824   25851058.1264
  23886538.77744  18612888.14444  26918966.9434   26918966.7114
 96  3  7  5 17 30.0000000  0  8G 5G 6G26G22G17G16G20G23
  65552549.32844  51079908.11044  27641395.2724   27641395.1884
  44665008.72344  34803903.85744  24048877.7094   24048876.7904
   2944640.36144   2294525.77044  27129842.4464   27129842.3064
    256344.52144                  28324492.8464
  40922011.63744  31887283.51244  25537414.8214   25537414.6694
  57432128.23344  44752308.03844  25971203.9364   25971203.2974
  59876326.36144  46656876.95744  25874494.6994   25874494.7804
  23823982.67544  18564143.14144  26907063.3854   26907064.4494
 96  3  7  5 18  0.0000000  0  8G 5G 6G26G22G17G16G20G23
  65687359.88844  51184955.29944  27667048.1744   27667049.2384
  44670672.75444  34808317.38244  24049955.6734   24049954.4554
   2899949.77444   2259701.94544  27121338.4484   27121338.3174
    206866.29844    161195.05844  28315079.6124
  40898545.58044  31868998.28444  25532949.3514   25532949.4204
  57536084.74144  44833313.09844  25990986.0254   25990985.7424
  59992851.72344  46747675.91444  25896668.5664   25896668.4644
  23754728.00244  18510178.45544  26893884.2224   26893884.9864
 96  3  7  5 18 30.0000000  0  8G 5G 6G26G22G17G16G20G23
  65808891.34244  51279655.13144  27690175.0064   27690177.0254
  44663382.73844  34802636.84844  24048568.5024   24048566.9644
   2842122.77144   2214641.96744  27110333.9564   27110330.2924
    144362.54744    112490.91744  28303182.8034
  40861920.64444  31840459.37644  25525979.5284   25525979.1734
  57627055.35844  44904199.29044  26008297.5144   26008296.9294
  60096322.92144  46828302.81244  25916357.8504   25916358.0224
  23672367.80444  18446001.69444  26878211.2284   26878211.5904
 96  3  7  5 19  0.0000000  0  8G 5G 6G26G22G17G16G20G23
  65921075.29744  51367071.17944  27711522.8534   27711522.4094
  44647111.20244  34789957.72744  24045472.0694   24045470.8224
   2775138.57844   2162446.50744  27097589.0764   27097588.4804
     72803.40644                  28289567.6764
  40816099.13144  31804754.31344  25517260.3764   25517259.9334
  57709010.90144  44968060.75444  26023892.8704   26023892.5234
  60190682.64744  46901829.85744  25934314.6914   25934314.5774
  23580870.56744  18374705.15744  26860800.4174   26860800.7444
 96  3  7  5 19 30.0000000  0  8G 5G 6G26G22G17G16G20G23
  66022245.45844  51445905.10444  27730774.8434   27730772.9644
  44620198.42744  34768986.71944  24040350.8584   24040349.3754
   2697351.74144   2101833.37344  27082784.6224   27082783.8934
     -9453.52244                  28273916.8834
  40759435.19544  31760600.61044  25506477.6764   25506477.3664
  57780286.27444  45023599.99544  26037455.7384   26037455.4864
  60274266.48344  46966960.10244  25950219.5544   25950219.5814
  23478576.11844  18294995.19144  26841334.6314   26841335.0134
 96  3  7  5 20  0.0000000  0  8G 5G 6G26G22G17G16G20G23
  66114076.03044  51517461.39344  27748250.0794   27748252.0464
  44584309.43944  34741021.26244  24033521.2684   24033520.1494
   2610452.12044   2034119.40244  27066249.2324   27066248.6964
   -100732.08144    -78491.98144  28256549.0644
  40693619.92744  31709315.99344  25493953.3474   25493953.4354
  57842551.66044  45072118.47044  26049304.6314   26049304.7514
  60348750.76344  47024999.78944  25964393.0154   25964393.5774
  23367151.57444  18208170.88644  26820130.6684   26820131.5364
 96  3  7  5 20 30.0000000  0  8G 6G 5G26G22G17G16G20G23
  44542127.80444  34708152.45544  24025494.6034   24025493.3624
  66199261.92944  51583840.01244  27764461.0154   27764459.4214
   2517147.71444   1961414.68544  27048494.1394   27048492.5044
   -198328.17344   -154540.89844  28237979.7554
  40621356.76744  31653007.04144  25480202.2984   25480202.2564
  57898497.99644  45115713.01144  26059951.1604   26059950.3714
  60416824.43944  47078044.19844  25977347.3884   25977347.5804
  23249276.77244  18116320.38744  26797699.6844   26797700.2344
 96  3  7  5 21  0.0000000  0  8G 5G 6G26G22G17G16G20G23
  66275986.38044                  27779060.7474
  44491801.26944  34668936.96644  24015917.6314   24015916.1454
   2415598.68244   1882285.59644  27029167.8874   27029165.9104
   -304050.20944   -236921.58444  28217857.3394
  40540830.35244  31590259.20244  25464878.8614   25464878.6994
  57946289.65244  45152953.26744  26069045.4244   26069045.2084
  60476672.61244  47124679.12244  25988736.7644   25988736.4574
  23123130.17244  18018024.35844  26773695.0544   26773696.2474
 96  3  7  5 21 30.0000000  0  8G 5G 6G26G22G17G16G20G23
  66337653.69944                  27790796.1954
  44426708.55444  34618215.36944  24003530.9054   24003529.7694
   2299186.01244   1791574.43044  27007016.9544   27007016.1334
   -424515.09644   -330790.33844  28194935.7384
  40445432.61244  31515923.31544  25446724.7584   25446724.4854
  57979303.17744  45178678.09144  26075327.7904   26075327.6164
  60521688.86144  47159756.71444  25997303.1224   25997302.7964
  22982095.22844  17908127.00344  26746856.7974   26746856.8864
 96  3  7  5 22  0.0000000  0  8G 5G 6G22G17G16G20G26G23
  66390724.00244                  27800895.5374
  44353325.44944  34561033.72144  23989566.8344   23989565.7004
   -553259.66944                  28170434.3124
  40341633.96744  31435041.27244  25426972.5234   25426972.4804
  58004017.83544  45197936.24344  26080030.4114   26080030.5194
  60558340.82344  47188316.67444  26004277.7154   26004277.7114
   2174376.40944   1694320.19344  26983266.0224   26983265.1714
  22832647.31744  17791674.09444  26718417.9204   26718417.9654
 96  3  7  5 22 30.0000000  0  8G 5G 6G22G17G16G20G26G23
  66435775.00944                  27809467.0754
  44272268.50144  34497872.45644  23974142.1444   23974140.7214
   -689686.50844                  28144475.6144
  40230018.68344  31348068.33744  25405732.7824   25405732.3504
  58021032.96944  45211194.78544  26083268.8104   26083268.3784
  60587216.53344  47210817.22044  26009772.1134   26009772.0444
   2041768.72544   1590989.52144  26958031.8134   26958032.0784
  22675384.30744  17669131.50344  26688492.1914   26688493.4984
 96  3  7  5 23  0.0000000  0  8G 5G 6G22G17G16G20G26G23
  66471146.82544                  27816199.7654
  44181915.76244  34427467.72344  23956948.5604   23956946.9834
   -835438.16444   -650990.15544  28116736.7864
  40108938.85244  31253720.42844  25382692.1084   25382691.7804
  58028705.33844  45217173.25144  26084729.5144   26084729.3364
  60606659.69944  47225967.73044  26013472.5814   26013472.5454
   1899726.67944   1480307.41744  26931002.0974   26931001.2784
  22508668.38644  17539223.00544  26656767.3684   26656766.9274
 96  3  7  5 23 30.0000000  0  8G 5G 6G22G17G16G20G26G23
  66491607.88144                  27820092.7804
  44077073.08444  34345772.12544  23936997.5734   23936996.4974
   -995741.81544   -775902.05344  28086232.0884
  39973144.52444  31147906.68444  25356851.2314   25356850.8094
  58021818.34944  45211806.76344  26083418.1564   26083417.8254
  60611441.49244  47229693.79644  26014382.0244   26014382.2304
   1743038.19644   1358212.51944  26901185.2114   26901184.3244
  22327284.05144  17397884.56244  26622251.3454   26622251.3594
 96  3  7  5 24  0.0000000  0  8G 5G 6G22G17G16G20G26G23
  66506291.65944                  27822884.5644
  43966889.56744  34259914.83244  23916030.3594   23916029.1924
  -1161445.06844                  28054698.4634
  39831757.45044  31037734.95544  25329946.3394   25329946.0214
  58009501.33344  45202209.08244  26081074.0544   26081073.9424
  60610706.12144  47229120.77744  26014242.3784   26014242.9434
   1580849.02644   1231831.36644  26870321.5054   26870321.0314
  22140384.75244  17252248.75744  26586685.0694   26586684.5114
 96  3  7  5 24 30.0000000  0  7G22G 6G17G16G20G26G23
  -1331185.68644                  28022397.8464
  43852706.17244  34170940.75144  23894301.9724   23894300.8454
  39686111.99744  30924245.00344  25302230.5794   25302230.6274
  57993081.11144  45189414.08444  26077949.7814   26077949.0524
  60605803.60744  47225300.61244  26013309.1854   26013309.8574
   1414502.33544   1102210.59444  26838667.4284   26838666.7884
  21949319.65544  17103366.87244  26550326.6384   26550327.1514
 96  3  7  5 25  0.0000000  0  7G22G 6G17G16G20G26G23
  -1508703.94144                  27988616.3694
  43730759.97944  34075917.73744  23871096.2434   23871095.2224
  39532451.71144  30804509.72644  25272990.3204   25272989.8684
  57968798.76944  45170492.77944  26073328.9044   26073328.2234
  60592989.52344  47215315.59444  26010870.2514   26010870.6774
   1240242.07944    966423.38044  26805506.3864   26805505.1324
  21750339.08044  16948317.09944  26512461.0954   26512462.1374
 96  3  7  5 25 30.0000000  0  7G22G 6G17G16G20G26G23
  -1695340.68044                  27953102.7124
  43599691.26844  33973786.26844  23846154.9164   23846153.6574
  39369441.32644  30677488.66444  25241970.6584   25241970.1094
  57935306.34044  45144394.77444  26066954.6994   26066955.0204
  60570942.82544  47198136.33044  26006675.0494   26006675.3534
   1056722.24944    823420.91744  26770583.1464   26770582.7414
  21542103.85944  16786055.90744  26472834.9694   26472835.1574
 96  3  7  5 26  0.0000000  0  7G22G 6G17G16G20G26G23
  -1891917.52744  -1474220.82744  27915693.8274
  43458651.00344  33863884.75144  23819316.0944   23819314.8504
  39196282.40844  30542559.65244  25209019.6094   25209019.2524
  57891757.07544  45110460.27344  26058667.7774   26058667.9174
  60538826.95644  47173110.96344  26000563.2104   26000563.6744
    863119.42644    672561.58744  26733742.5284   26733742.8414
  21323774.64344  16615929.26144  26431288.4684   26431288.1434
 96  3  7  5 26 30.0000000  0  7G22G 6G17G16G20G26G23
  -2103210.70244                  27875485.7944
  43302872.67644  33742499.03444  23789672.0774   23789670.9914
  39008224.55044  30396021.07244  25173232.9214   25173232.9914
  57833395.58744  45064983.78644  26047562.3134   26047562.3704
  60491869.26044  47136520.54344  25991628.1704   25991628.1994
    654677.49444    510139.30444  26694076.7174   26694076.4424
  21090584.10044  16434222.36244  26386914.4704   26386915.0174
 96  3  7  5 27  0.0000000  0  7G22G 6G17G16G20G26G23
  -2322431.78444  -1809686.48644  27833770.3484   27833765.5344
  43139147.94744  33614921.31744  23758516.2924   23758515.2114
  38812077.57144  30243179.28244  25135907.4714   25135907.7384
  57767026.57744  45013267.65944  26034933.0774   26034932.5764
  60436853.44444  47093651.06844  25981159.1414   25981159.4014
    438211.39444    341464.42444  26652884.9514   26652885.0334
  20849331.84444  16246233.61144  26341006.3124   26341005.9984
 96  3  7  5 27 30.0000000  0  7G22G 6G17G16G20G26G23
  -2548877.39544  -1986137.62444  27790678.8274   27790676.4154
  42968182.41344  33481701.41244  23725982.8804   23725981.6604
  38608565.62844  30084598.56244  25097180.6694   25097180.2894
  57693346.37744  44955854.51344  26020912.0714   26020911.4064
  60374467.77544  47045038.84844  25969287.4084   25969287.9124
    214438.02244    167095.58044  26610302.4684   26610301.8414
  20600722.35944  16052511.93544  26293697.3844   26293696.0424
 96  3  7  5 28  0.0000000  0  7G22G 6G17G16G20G26G23
  -2784258.64544  -2169551.60944  27745887.5884   27745888.1794
  42788269.02544  33341509.15844  23691746.3464   23691745.1544
  38395966.30444  29918936.77044  25056724.4584   25056723.9664
  57610645.38744  44891412.19044  26005174.1594   26005173.7944
  60302973.81444  46989329.25844  25955682.7994   25955683.0004
    -18344.85644    -14293.65944  26566005.0494   26566004.0934
  20343042.77244  15851722.65144  26244662.8944   26244662.2834
 96  3  7  5 28 30.0000000  0  7G22G 6G17G16G20G26G23
  -3024605.74044  -2356835.04044  27700150.3514   27700147.5244
  42603396.69644  33197452.78944  23656566.3694   23656565.3974
  38178237.53344  29749278.00644  25015291.3934   25015291.2214
  57522914.99444  44823050.83144  25988479.9674   25988480.4854
  60226333.49344  46929609.49944  25941098.9184   25941099.4074
   -256169.57044   -199611.62444  26520748.7424   26520748.1404
  20080274.30344  15646968.00444  26194659.0284   26194658.8904
 96  3  7  5 29  0.0000000  0  7G22G 6G17G16G20G26G23
  -3268089.97144  -2546562.99544  27653816.8024   27653817.8034
  42415391.84444  33050955.50044  23620790.0624   23620789.1074
  37957204.00944  29577044.10244  24973230.4424   24973230.6344
  57431965.75044  44752181.27244  25971172.9224   25971172.3374
  60146367.34244  46867298.19144  25925881.7994   25925881.4374
   -497206.07344   -387432.26444  26474880.6134   26474879.7784
  19814233.00144  15439663.10344  26144032.5914   26144032.2154
 96  3  7  5 29 30.0000000  0  7G22G 6G17G16G20G26G23
  -3511785.10044  -2736455.29244  27607443.0604
  42227211.01244  32904321.07944  23584980.6764   23584979.3724
  37735790.41044  29404514.04144  24931096.7514   24931096.5714
  57340725.36944  44681084.88444  25953811.0124   25953809.8404
  60066014.81544  46804685.81444  25910591.1114   25910591.0144
   -738529.47544   -575476.47044  26428958.4274   26428958.2474
  19547854.20144  15232095.22944  26093342.2034   26093343.0334
 96  3  7  5 30  0.0000000  0  7G22G 6G17G16G20G26G23
  -3755281.54244                  27561107.0174
  42039276.70344  32757878.76044  23549217.6364   23549216.6214
  37514396.26844  29231999.14544  24888966.7754   24888966.3614
  57249608.86644  44610085.00744  25936472.0924   25936471.7374
  59985698.15044  46742101.38644  25895307.4724   25895307.7854
   -979733.90344   -763427.95844  26383058.9784   26383058.7204
  19281557.21544  15024591.09544  26042667.2374   26042667.2064
 96  3  7  5 30 30.0000000  0  7G22G 6G17G16G20G26G23
  -3998458.09444                  27514833.2794
  41851717.48644  32611728.72144  23513526.3784   23513525.3374
  37293143.78244  29059594.62744  24846863.6804   24846863.3834
  57158720.48744  44539262.87144  25919176.1054   25919176.0024
  59905547.86444  46679646.60244  25880055.2014   25880054.7974
  -1220703.67844   -951196.61344  26337203.1014   26337202.4544
  19015468.99044  14817249.63244  25992033.1234   25992033.1264
 96  3  7  5 31  0.0000000  0  7G22G 6G17G16G20G26G23
  -4241265.84644  -3304881.90444  27468627.6084
  41664590.83444  32465915.73744  23477917.6274   23477916.3164
  37072082.81244  28887339.33544  24804797.3894   24804797.0334
  57068090.00744  44468641.70644  25901929.7104   25901929.2984
  59825616.83444  46617362.67044  25864844.1764   25864844.5154
  -1461384.85044  -1138740.36844  26291404.0064   26291403.3884
  18749650.88044  14610118.64444  25941450.0974   25941449.6904
 96  3  7  5 31 30.0000000  0  7G22G 6G17G16G20G26G23
  -4483695.29644  -3493788.01344  27422494.6774   27422491.4914
  41477903.00544  32320444.69444  23442392.1054   23442390.9044
  36851204.57544  28715226.43944  24762765.7324   24762765.3364
  56977721.40044  44398224.60744  25884732.7734   25884732.1644
  59745895.57344  46555242.19044  25849673.7994   25849674.2774
  -1701792.27844  -1326070.82344  26245655.6014   26245655.5094
  18484104.94644  14403199.74344  25890917.7324   25890917.4484
 96  3  7  5 32  0.0000000  0  7G22G 6G17G16G20G26G23
  -4725715.00044  -3682374.73744  27376439.4024   27376438.0134
  41291650.46444  32175312.84144  23406949.2374   23406948.1024
  36630522.35944  28543266.28544  24720771.2724   24720771.2264
  56887621.63844  44328017.00144  25867587.8794   25867587.1624
  59666381.70044  46493283.30144  25834543.1544   25834543.2884
  -1941906.79944  -1513173.04444  26199963.5244   26199962.5994
  18218841.40244  14196500.88244  25840439.9774   25840439.4484
 96  3  7  5 32 30.0000000  0  7G22G 6G17G16G20G26G23
  -4967334.59344  -3870649.73444  27330460.4474   27330457.2484
  41105818.31844  32030508.57044  23371586.6764   23371585.5314
  36410030.22844  28371454.24644  24678812.9254   24678812.8204
  56797783.07244  44258012.91544  25850491.5934   25850491.0924
  59587053.47344  46431469.08044  25819447.6394   25819448.0234
  -2181721.58244  -1700041.68844  26154328.1354   26154327.2614
  17953852.89744  13990016.34044  25790013.8724   25790014.1234
 96  3  7  5 33  0.0000000  0  7G22G 6G17G16G20G26G23
  -5208515.40444  -4058582.81044  27284566.0024   27284561.5024
  40920420.79844  31886042.96744  23336306.8644   23336305.6284
  36189753.43444  28199809.99444  24636895.6234   24636895.6674
  56708245.68344  44188243.52744  25833453.7804   25833453.0144
  59507923.23844  46369809.14744  25804390.1194   25804389.9344
  -2421210.79844  -1886656.65244  26108754.8064   26108754.1854
  17689154.16844  13783757.60244  25739643.3254   25739643.0744
 96  3  7  5 33 30.0000000  0  7G22G 6G17G16G20G26G23
  -5449261.94244  -4246177.53444  27238753.4864   27238751.2334
  40735424.46844  31741889.97844  23301103.1104   23301101.9074
  35969681.46244  28028325.35144  24595017.2964   24595016.8804
  56619008.35944  44118707.93944  25816471.7914   25816472.3584
  59428979.37244  46308294.43644  25789367.4604   25789367.0734
  -2660376.30244  -2073019.37444  26063242.9434   26063241.4784
  17424714.95744  13577701.08644  25689321.5254   25689321.7114
 96  3  7  5 34  0.0000000  0  7G22G 6G17G16G20G26G23
  -5689573.40744  -4433433.24744  27193023.3284   27193021.7664
  40550830.47444  31598050.49544  23265976.0144   23265974.8624
  35749825.06744  27857008.69344  24553180.0544   24553179.6144
  56530084.30844  44049416.46944  25799550.1924   25799549.6304
  59350237.71144  46246937.29444  25774383.5164   25774383.8554
  -2899183.71444  -2259103.05844  26017798.9094   26017797.9854
  17160558.32344  13371864.75444  25639054.4694   25639055.3744
 96  3  7  5 34 30.0000000  0  7G22G 6G17G16G20G26G23
  -5929470.50844  -4620366.03544  27147373.6694   27147373.7404
  40366634.18744  31454520.91344  23230924.4204   23230923.7234
  35530175.25444  27685853.01144  24511382.1304   24511381.7154
  56441467.94844  43980364.75544  25782687.4764   25782687.6124
  59271692.47044  46185733.19944  25759436.7534   25759436.9524
  -3137639.73844  -2444912.93744  25972423.4414   25972422.2774
  16896684.80644  13166249.04644  25588841.2794   25588842.1144
 96  3  7  5 35  0.0000000  0  7G22G 6G17G16G20G26G23
  -6168946.77544  -4806970.92944  27101802.4514   27101800.3644
  40182836.17944  31311301.67744  23195948.9214   23195947.5834
  35310728.38044  27514855.45544  24469622.9104   24469622.3354
  56353141.65544  43911539.05344  25765879.7374   25765879.4524
  59193345.25544  46124683.40544  25744527.1714   25744527.1424
  -3375758.36644  -2630459.91244  25927110.4004   25927109.5434
  16633091.21744  12960851.45844  25538681.2834   25538681.8194
 96  3  7  5 35 30.0000000  0  7G22G 6G17G16G20G26G23
  -6408028.66144  -4993268.50744  27056306.5374   27056304.8334
  39999433.96444  31168390.85244  23161048.6714   23161047.5144
  35091479.58544  27344012.25044  24427901.1534   24427900.5484
  56265088.38144  43842926.09744  25749123.2754   25749122.7834
  59115197.84544  46063789.31244  25729656.3944   25729656.9284
  -3613533.93544  -2815739.54244  25881863.4464   25881862.7214
  16369781.61944  12755675.15944  25488575.1564   25488575.7924
 96  3  7  5 36  0.0000000  0  7G22G 6G17G16G20G26G23
  -6646700.90944  -5179246.87644  27010888.5394   27010886.3794
  39816458.94344  31025812.90444  23126229.7064   23126228.4414
  34872437.40844  27173330.04644  24386218.7254   24386218.7214
  56177295.33444  43774515.91644  25732417.2304   25732416.2794
  59037256.31844  46003055.63644  25714824.4934   25714824.8284
  -3850965.92644  -3000751.46244  25836681.2294   25836679.9954
  16106784.16044  12550742.08744  25438528.7214   25438529.0734
 96  3  7  5 36 30.0000000  0  7G 6G17G16G20G26G23G22
  39633897.79444  30883557.45544  23091489.6244   23091488.4974
  34653583.32544  27002794.40744  24344572.0064   24344572.0614
  56089721.74344  43706276.75444  25715752.6904   25715752.6054
  58959493.48844  45942461.21544  25700026.7544   25700027.1204
  -4088089.45044  -3185523.01644  25791558.0494   25791557.4164
  15844070.21644  12346029.93644  25388535.9954   25388535.8464
  -6884970.88144  -5364911.77544  26965546.6104   26965548.8944
 96  3  7  5 37  0.0000000  0  7G 6G17G16G20G26G23G22
  39451766.54244  30741636.99444  23056831.1054   23056829.8264
  34434926.09544  26832412.16244  24302962.8284   24302962.8504
  56002376.49444  43638215.50944  25699131.0184   25699131.3334
  58881919.90844  45882014.24944  25685265.0264   25685265.0234
  -4324883.00844  -3370037.46744  25746497.4004   25746496.3334
  15581650.81344  12141547.29544  25338599.0754   25338599.0994
  -7122817.63544  -5550246.92944  26920286.8784   26920287.2744
 96  3  7  5 37 30.0000000  0  7G 6G17G16G20G26G23G22
  39270065.01244  30600051.37344  23022254.3934   23022253.2444
  34216452.31844  26662172.87144  24261388.5804   24261388.5164
  55915259.61044  43570332.22344  25682553.9214   25682553.2884
  58804517.18144  45821700.43144  25670535.7944   25670536.7834
  -4561338.88444  -3554288.76344  25701501.7424   25701499.5914
  15319528.23744  11937295.94244  25288718.9804   25288718.9444
  -7360254.67444  -5735262.79844  26875105.1694   26875105.5264
 96  3  7  5 38  0.0000000  0  7G 6G17G16G20G26G23G22
  39088812.91444  30458815.95744  22987763.6414   22987762.2414
  33998174.66144  26492086.39244  24219851.6364   24219851.9004
  55828379.22744  43502633.20844  25666020.5674   25666020.6984
  58727289.48344  45761522.99144  25655839.7064   25655840.3914
  -4797450.58344  -3738271.89344  25656570.7774   25656570.4184
  15057718.78844  11733288.58944  25238897.8964   25238897.4624
  -7597249.35544  -5919933.99644  26830005.1234   26830005.4424
 96  3  7  5 38 30.0000000  0  7G 6G17G16G20G26G23G22
  38907986.06044  30317911.90444  22953352.9804   22953351.8704
  33780088.56444  26322149.18144  24178351.1614   24178351.1554
  55741737.99844  43435120.57344  25649533.2244   25649533.1274
  58650221.84144  45701470.27444  25641174.8864   25641174.9424
  -5033209.29944  -3921979.97444  25611707.3364   25611707.0824
  14796212.10244  11529517.15044  25189134.2034   25189135.0704
  -7833815.72244  -6104271.42744  26784988.4774   26784986.5284
 96  3  7  5 39  0.0000000  0  7G 6G17G16G20G26G23G22
  38727601.83044  30177352.75644  22919026.9544   22919025.7074
  33562202.39244  26152367.75944  24136889.2014   24136888.8024
  55655361.01644  43367813.81744  25633096.2504   25633095.9104
  58573323.90144  45641549.79444  25626541.6344   25626541.1094
  -5268600.86744  -4105401.96144  25566914.2784   25566913.6834
  14535025.82744  11325995.38944  25139432.5504   25139432.8974
  -8069940.78544  -6288264.99244  26740055.1584   26740054.5124
 96  3  7  5 39 30.0000000  0  7G 6G17G16G20G26G23G22
  38547650.35144  30037130.81444  22884783.6404   22884782.4534
  33344528.41644  25982751.69044  24095467.2314   24095466.6974
  55569242.67844  43300708.61244  25616708.5434   25616708.1504
  58496590.95144  45581757.88144  25611940.3264   25611939.7574
  -5503646.86544  -4288554.66644  25522185.8494   25522185.4094
  14274138.66444  11122706.71044  25089786.8534   25089787.8004
  -8305623.10344  -6471913.58644  26695206.2084   26695202.9214
 96  3  7  5 40  0.0000000  0  7G 6G17G16G20G26G23G22
  38368131.27944  29897245.81344  22850622.1424   22850620.9114
  33127085.10144  25813315.35444  24054089.4164   24054089.0544
  55483389.52144  43233810.04344  25600371.7224   25600371.2564
  58420038.08544  45522106.29744  25597372.6894   25597372.4754
  -5738331.61044  -4471425.89544  25477527.6624   25477526.7204
  14013550.60944  10919651.10344  25040198.5494   25040199.4864
  -8540841.71844  -6655200.82744  26650445.5094   26650444.1394
 96  3  7  5 40 30.0000000  0  7G 6G17G16G20G26G23G22
  38189023.50944  29757681.31144  22816539.1564   22816538.0864
  32909853.88444  25644044.28644  24012751.7544   24012751.4244
  55397782.88844  43167103.58944  25584081.3364   25584081.4654
  58343641.94444  45462576.82444  25582834.0214   25582834.0604
  -5972666.42844  -4654024.43244  25432934.4304   25432934.1504
  13753241.40144  10716812.77644  24990663.9614   24990664.1314
  -8775633.43244  -6838155.41544  26605765.6734   26605765.8344
 96  3  7  5 41  0.0000000  0  7G 6G17G16G20G26G23G22
  38010353.33244  29618457.79044  22782539.4544   22782538.1954
  32692848.95344  25474949.54344  23971457.1004   23971456.6254
  55312431.37244  43100595.90444  25567839.4544   25567839.2874
  58267414.33044  45403178.67844  25568328.7314   25568329.4574
  -6206643.52444  -4836344.24144  25388411.1014   25388410.7064
  13493212.28744  10514192.70144  24941182.3774   24941182.1164
  -9009978.83444  -7020762.22344  26561172.2714   26561172.1694
 96  3  7  5 41 30.0000000  0  7G 6G17G16G20G26G23G22
  37832115.87544  29479571.45244  22748621.8084   22748620.4994
  32476071.90544  25306032.37344  23930205.4264   23930205.3774
  55227324.34844  43034278.73844  25551644.1554   25551643.2264
  58191348.62844  45343906.69044  25553853.0714   25553853.5354
  -6440254.73944  -5018378.95844  25343956.2964   25343955.8084
  13233471.26444  10311797.10044  24891755.7204   24891754.9984
  -9243882.84244  -7203025.12344  26516660.7224   26516661.5244
 96  3  7  5 42  0.0000000  0  7G 6G17G16G20G26G23G22
  37654322.39144  29341031.07044  22714788.9114   22714787.8114
  32259501.75644  25137276.41844  23888993.0834   23888992.9284
  55142457.65644  42968148.83544  25535494.5134   25535494.3834
  58115438.81444  45284756.16744  25539408.0814   25539408.9874
  -6673480.88144  -5200113.60944  25299575.0744   25299574.1314
  12974054.13944  10109653.88944  24842390.2474   24842389.9224
  -9477342.00644  -7384941.37044  26472235.0374   26472233.3814
 96  3  7  5 42 30.0000000  0  7G 6G17G16G20G26G23G22
  37476981.34744  29202843.23444  22681042.1034   22681040.9914
  32043128.21244  24968673.66744  23847818.6654   23847818.7484
  55057821.66544  42902198.69344  25519388.9874   25519388.8614
  58039672.16244  45225717.21244  25524990.7144   25524991.2394
  -6906338.45144  -5381561.05044  25255262.9624   25255262.6334
  12714956.74344   9907759.82444  24793085.3784   24793085.1874
  -9710355.16344  -7566510.10744  26427894.2164   26427894.2364
 96  3  7  5 43  0.0000000  0  7G 6G17G16G20G26G23G22
  37300093.53644  29065008.56544  22647381.3664   22647380.0454
  31826938.06744  24800213.82844  23806679.0794   23806679.1084
  54973416.41044  42836428.36444  25503327.0204   25503325.6534
  57964040.52244  45166783.45644  25510598.2044   25510598.2804
  -7138827.73544  -5562721.52344  25211022.1294   25211021.1894
  12456184.88044   9706119.42744  24743842.3214   24743842.6534
  -9942903.78344  -7747716.80844  26383640.9584   26383639.6654
 96  3  7  5 43 30.0000000  0  7G 6G17G16G20G26G23G22
  37123648.25844  28927518.73044  22613805.0154   22613803.9734
  31610922.93944  24631890.35944  23765572.7084   23765573.0104
  54889232.62244  42770830.62444  25487307.5684   25487306.8754
  57888537.95944  45107950.27944  25496230.5244   25496229.8304
  -7370945.43544  -5743592.44144  25166850.8874   25166849.7184
  12197744.28844   9504737.15844  24694662.5364   24694662.9194
 -10174998.75944  -7928569.97444  26339474.6234   26339477.2374
 96  3  7  5 44  0.0000000  0  7G 6G17G16G20G26G23G22
  36947666.10244  28790389.77444  22580316.6524   22580315.6754
  31395090.83444  24463709.50344  23724501.3124   23724501.3264
  54805270.17044  42705405.31744  25471329.3504   25471329.9504
  57813163.63944  45049217.03144  25481888.1984   25481887.8924
  -7602664.40544  -5924152.65644  25122757.0934   25122756.2144
  11939626.87244   9303606.71944  24645544.7094   24645545.0324
 -10406639.26044  -8109069.10844  26295395.0184   26295395.7964
 96  3  7  5 44 30.0000000  0  7G 6G17G16G20G26G23G22
  36772133.65644  28653611.23844  22546914.3104   22546913.0204
  31179442.00744  24295671.47544  23683464.7804   23683464.6854
  54721513.78944  42640140.59944  25455391.5024   25455390.7134
  57737900.50344  44990570.42444  25467565.5904   25467565.6434
  -7833985.48544  -6104402.82644  25078738.1864   25078737.5834
  11681799.73244   9102702.46544  24596481.9504   24596481.6224
 -10637845.39344  -8289229.77644  26251398.8454   26251398.8814
 96  3  7  5 45  0.0000000  0  7G 6G17G16G20G26G23G22
  36597052.93044  28517184.69544  22513597.1524   22513596.2444
  30963985.46944  24127783.27844  23642465.0004   23642464.8174
  54637963.04144  42575036.11144  25439492.4324   25439491.9324
  57662750.74844  44932012.15744  25453264.9544   25453264.5514
  -8064890.34544  -6284328.66644  25034797.8244   25034796.9844
  11424275.52144   8902034.26444  24547476.5774   24547476.9214
 -10868622.97444  -8469056.44844  26207483.0654   26207483.6084
 96  3  7  5 45 30.0000000  0  7G 6G17G16G20G26G23G22
  36422419.52044  28381106.71044  22480365.5614   22480364.5254
  30748725.02144  23960047.87544  23601502.2174   23601502.0374
  54554599.39844  42510077.41544  25423628.5244   25423628.9634
  57587714.33844  44873542.23044  25438986.8884   25438987.1124
  -8295385.53444  -6463935.28144  24990936.4524   24990935.3374
  11167048.00044   8701597.24844  24498527.4064   24498527.8274
 -11098989.44544  -8648562.77444  26163645.6424   26163645.5154
 96  3  7  5 46  0.0000000  0  7G 6G17G16G20G26G23G22
  36248247.34144  28245388.12444  22447221.7414   22447220.5544
  30533667.66244  23792470.71644  23560578.3784   23560577.8394
  54471435.72344  42445274.53944  25407802.8874   25407802.6064
  57512793.78744  44815162.57744  25424729.3974   25424730.2554
  -8525466.84544  -6643219.39144  24947153.6284   24947152.5264
  10910137.24444   8501407.06044  24449638.8964   24449639.6054
 -11328928.51544  -8827736.10044  26119889.8344   26119888.1064
 96  3  7  5 46 30.0000000  0  7G 6G17G16G20G26G23G22
  36074517.03244  28110013.84844  22414162.0034   22414160.9404
  30318808.18744  23625047.75544  23519691.7164   23519691.5854
  54388474.45044  42380629.39244  25392016.1174   25392014.6754
  57437994.14244  44756877.11544  25410496.0094   25410495.7674
  -8755167.17644  -6822206.65844  24903443.5134   24903442.0604
  10653554.18544   8301472.22544  24400812.9954   24400812.9464
 -11558426.79044  -9006565.96044  26076217.3294   26076217.3994
 96  3  7  5 47  0.0000000  0  7G 6G17G16G20G26G23G22
  35901246.49744  27974997.84044  22381189.6724   22381188.4424
  30104156.89844  23457787.01844  23478844.8364   23478844.6834
  54305738.04344  42316159.47044  25376271.6014   25376271.7714
  57363333.19344  44698699.76544  25396288.0734   25396289.8984
  -8984488.05144  -7000898.22744  24859803.8844   24859803.2874
  10397330.31444   8101817.27144  24352055.5284   24352054.9444
 -11787459.36444  -9185032.88644  26032635.8444   26032633.2054
 96  3  7  5 47 30.0000000  0  7G 6G17G16G20G26G23G22
  35728425.93944  27840332.46544  22348303.2184   22348302.0534
  29889710.90744  23290686.25644  23438036.9774   23438037.0754
  54223224.32144  42251863.05844  25360569.6684   25360570.1144
  57288805.09244  44640625.90544  25382106.2294   25382107.0314
  -9213443.36544  -7179304.94044  24816235.5434   24816234.5534
  10141456.17144   7902434.82244  24303364.6124   24303364.0274
 -12016025.73544  -9363136.56344  25989142.2474   25989139.0324
 96  3  7  5 48  0.0000000  0  7G 6G17G16G20G26G23G22
  35556063.97144  27706024.43644  22315503.6684   22315502.4124
  29675479.48944  23123752.69044  23397270.1854   23397270.0164
  54140948.49644  42187752.00744  25344913.2454   25344913.4804
  57214408.05944  44582654.20144  25367948.3594   25367948.7814
  -9442018.00244  -7357415.02344  24772739.1624   24772738.5714
   9885932.78644   7703325.70144  24254739.6174   24254739.3664
 -12244100.83044  -9540857.40744  25945739.8094   25945737.8024
 96  3  7  5 48 30.0000000  0  7G17G 6G16G20G26G23G22
  29461461.24544  22956985.23244  23356543.9884   23356543.9554
  35384157.29544  27572071.17644  22282790.9304   22282790.0844
  54058900.97844  42123818.87844  25329301.0654   25329299.8294
  57140142.53944  44524784.95444  25353816.4794   25353816.0604
  -9670213.09244  -7535229.35344  24729315.1904   24729314.3314
   9630743.55644   7504476.96144  24206178.6754   24206178.5174
 -12471683.83644  -9718194.83644  25902431.0884   25902429.1274
 96  3  7  5 49  0.0000000  0  7G17G 6G16G20G26G23G22
  29247651.62144  22790380.33644  23315857.3244   23315856.9044
  35212704.00744  27438471.20944  22250164.5184   22250163.3544
  53977060.68744  42060047.23744  25313727.0404   25313726.0214
  57065988.38744  44467002.51144  25339705.0754   25339704.8944
  -9898016.63544  -7712738.59144  24685966.1404   24685964.7964
   9375868.31244   7305872.88744  24157677.7484   24157677.3104
 -12698792.00144  -9895162.27344  25859214.5204   25859211.9044
 96  3  7  5 49 30.0000000  0  7G17G 6G16G20G26G23G22
  29034043.99644  22623932.84644  23275209.1324   23275208.7794
  35041697.08344  27305219.05244  22217622.7744   22217621.8324
  53895410.66544  41996423.83744  25298189.2474   25298188.2854
  56991935.21244  44409298.73044  25325612.8874   25325613.3174
 -10125409.92944  -7889928.13244  24642694.3544   24642692.8664
   9121294.87344   7107503.98444  24109234.0724   24109234.3844
 -12925431.21744 -10071764.27744  25816086.4834   25816084.4084
 96  3  7  5 50  0.0000000  0  7G17G 6G16G20G26G23G22
  28820622.94044  22457630.73244  23234596.3344   23234595.8834
  34871132.65844  27172311.70644  22185165.6104   22185164.5284
  53813933.99444  41932935.51844  25282684.7474   25282685.7544
  56917966.00944  44351660.40144  25311537.4714   25311537.7464
 -10352384.76544  -8066791.63144  24599502.2304   24599501.1784
   8867019.69844   6909367.49344  24060846.5164   24060846.8974
 -13151614.14144 -10248010.72244  25773044.6744   25773044.9774
 96  3  7  5 50 30.0000000  0  8G17G 6G16G20G21G26G23G22
  28607399.51344  22291482.61644  23194021.6154   23194021.2684
  34701030.18844  27039764.31944  22152796.2174   22152795.0804
  53732641.52344  41869590.71744  25267215.3204   25267216.0294
  56844097.98644  44294100.90244  25297480.7374   25297481.3094
        -0.28054                  27536974.9944
 -10578909.99844  -8243304.77344  24556396.2624   24556395.3464
   8613070.71444   6711485.18844  24012521.7084   24012522.1624
 -13377331.27844 -10423894.22244  25730092.3864   25730092.6114
 96  3  7  5 51  0.0000000  0  7G17G 6G16G20G26G23G22
  28394357.40144  22125475.78144  23153480.6904   23153480.3134
  34531376.42444  26907566.57544  22120512.3224   22120511.0024
  53651514.71144  41806375.00944  25251776.6874   25251776.2784
  56770302.38444  44236597.81744  25283437.7484   25283438.1664
 -10804987.99344  -8419469.43644  24513374.5274   24513373.0794
   8359447.43944   6513856.67244  23964258.7954   23964258.7734
 -13602609.42544 -10599435.64144  25687223.3554   25687222.0374
 96  3  7  5 51 30.0000000  0  7G17G 6G16G20G26G23G22
  28181498.44144  21959611.67044  23112975.0374   23112974.4544
  34362175.80844  26775721.93144  22088314.0364   22088313.2114
  53570562.16344  41743295.10944  25236371.8134   25236372.0954
  56696588.17144  44179158.16944  25269410.4924   25269410.4874
 -11030619.44644  -8595286.14444  24470438.3964   24470437.5474
   8106168.34844   6316496.35244  23916061.3194   23916061.6984
 -13827446.94944 -10774633.72144  25644439.1144   25644438.7174
 96  3  7  5 52  0.0000000  0  7G17G 6G16G20G26G23G22
  27968833.25744  21793898.55144  23072506.2884   23072505.6754
  34193446.88344  26644244.84144  22056206.3024   22056205.2084
  53489807.13444  41680369.10644  25221004.7644   25221005.0314
  56622975.91044  44121797.96744  25255402.5794   25255402.3294
 -11255802.49944  -8770753.45444  24427587.7364   24427586.6744
   7853247.89444   6119415.49344  23867932.4414   23867932.7084
 -14051829.82744 -10949477.52444  25601739.0324   25601739.9284
 96  3  7  5 52 30.0000000  0  7G17G 6G16G20G26G23G22
  27756371.35644  21628343.82744  23032076.0334   23032075.4464
  34025203.57344  26513146.15344  22024190.5404   22024189.5104
  53409257.50444  41617603.15444  25205676.1894   25205677.2504
  56549479.58244  44064528.09944  25241416.1714   25241416.3554
 -11480540.27144  -8945873.78944  24384821.6774   24384819.5264
   7600697.68444   5922623.13344  23819874.0004   23819873.6694
 -14275743.02344 -11123955.37144  25559129.6234   25559128.5804
 96  3  7  5 53  0.0000000  0  8G17G 6G16G20G21G26G23G22
  27544115.10544  21462949.35544  22991685.0414   22991684.4414
  33857448.23444  26382427.70044  21992267.9964   21992266.9224
  53328902.76144  41554989.05944  25190385.6014   25190384.7014
  56476098.36044  44007347.90644  25227453.5744   25227454.1184
        -0.26554         0.35054  27273855.6444
 -11704855.07644  -9120664.53744  24342135.9464   24342134.6404
   7348515.68144   5726117.68444  23771885.1674   23771884.8564
 -14499191.42244 -11298071.02044  25516608.7744   25516607.6204
 96  3  7  5 53 30.0000000  0  8G17G 6G16G20G21G26G23G22
  27332069.79444  21297719.23844  22951334.2284   22951333.8154
  33690191.24344  26252097.57644  21960439.9444   21960438.9414
  53248751.40544  41492533.46144  25175134.0224   25175133.3814
  56402844.16344  43950266.71844  25213513.3464   25213512.8134
   -276332.17044   -215323.24744  27221272.6574   27221271.0894
 -11928742.60444  -9295122.33444  24299530.8254   24299530.1724
   7096702.27944   5529899.45744  23723966.5764   23723966.6924
 -14722139.64344 -11471796.92344  25474182.2394   25474183.7044
 96  3  7  5 54  0.0000000  0  8G17G 6G16G20G21G26G23G22
  27120215.00444  21132637.58444  22911019.6694   22911019.1654
  33523413.98644  26122141.26344  21928703.2354   21928702.2224
  53168770.89444  41430210.97444  25159914.0184   25159913.6434
  56329677.91944  43893254.03844  25199589.9204   25199589.2824
   -552577.25844   -430579.18044  27168702.9114   27168698.4614
 -12152216.09644  -9469257.49944  24257004.5254   24257003.8894
   6845232.45744   5333948.95444  23676112.9564   23676112.9154
 -14944591.99144 -11645136.41844  25431851.5074   25431851.0024
 96  3  7  5 54 30.0000000  0  8G17G 6G16G20G21G26G23G22
  26908557.80044  20967709.89544  22870742.3654   22870741.8714
  33357117.56044  25992559.62944  21897058.0464   21897056.9964
  53088929.66444  41367997.02044  25144720.4174   25144721.1224
  56256579.39844  43836294.13444  25185680.4234   25185679.2704
   -828743.62544   -645773.84244  27116149.8574
 -12375270.90944  -9643066.42544  24214559.5094   24214559.4044
   6594112.08244   5138270.74844  23628326.6184   23628326.7414
 -15166546.40144 -11818087.88744  25389615.1454   25389615.8734
 96  3  7  5 55  0.0000000  0  8G17G 6G16G20G21G26G23G22
  26697097.54844  20802935.67844  22830502.9874   22830502.7964
  33191292.37144  25863345.18944  21865502.4384   21865501.2844
  53009225.15444  41305889.59144  25129552.8974   25129553.4124
  56183533.15744  43779374.98544  25171779.6404   25171780.0724
  -1104831.00644   -860906.85744  27063611.3504
 -12597898.13844  -9816542.16644  24172195.2534   24172194.5404
   6343324.37144   4942851.76744  23580603.7344   23580604.0584
 -15388006.09544 -11990653.86444  25347473.5854   25347473.2294
 96  3  7  5 55 30.0000000  0  8G17G 6G16G20G21G26G23G22
  26485823.91144  20638306.87544  22790298.7904   22790298.4904
  33025913.40344  25734478.45144  21834032.1164   21834030.7744
  52929656.30444  41243887.89344  25114412.1064   25114411.4044
  56110519.59144  43722481.28144  25157886.6214   25157886.1374
  -1380845.07544                  27011086.3414
 -12820091.52444  -9989679.84244  24129913.0764   24129912.4104
   6092853.99444   4747680.05344  23532940.7454   23532940.6764
 -15608969.73844 -12162833.33944  25305425.5434   25305423.9194
 96  3  7  5 56  0.0000000  0  8G17G 6G16G20G21G26G23G22
  26274738.48444  20473824.72844  22750130.3744   22750129.9924
  32860978.43444  25605957.69144  21802646.0524   21802645.1494
  52850220.41444  41181989.80644  25099295.7084   25099296.2034
  56037535.31844  43665610.41144  25143997.2204   25143997.0624
  -1656798.94544                  26958573.6424
 -13041847.05144 -10162476.33044  24087714.7884   24087713.6004
   5842695.13144   4552751.07544  23485337.1604   23485336.7584
 -15829460.94044 -12334644.68644  25263467.9594   25263466.7334
 96  3  7  5 56 30.0000000  0  8G17G 6G16G20G21G26G23G22
  26063845.41944  20309492.46344  22709998.8734   22709998.5344
  32696496.30044  25477789.78844  21771346.2414   21771345.0314
  52770930.34344  41120205.33044  25084206.7404   25084206.4064
  55964593.83044  43608772.88144  25130116.9264   25130116.8664
  -1932689.03344                  26906070.8734
 -13263158.45944 -10334926.74644  24045600.2224   24045599.5184
   5592844.98044   4358062.65444  23437792.3004   23437792.2104
 -16049483.11244 -12506090.56844  25221598.3804   25221596.3094
 96  3  7  5 57  0.0000000  0  8G17G 6G16G20G21G26G23G22
  25853157.93244  20145320.39444  22669906.4114   22669906.1344
  32532469.08244  25349976.36044  21740132.6374   21740131.9894
  52691826.75644  41058566.16544  25069154.9554   25069154.8214
  55891703.40344  43551975.15144  25116246.4304   25116246.8254
  -2208499.86044                  26853584.6254
 -13484009.82644 -10507018.69244  24003573.4564   24003571.7844
   5343320.68544   4163628.14844  23390309.4284   23390309.7254
 -16269016.25644 -12677155.36544  25179822.9904   25179823.1134
 96  3  7  5 57 30.0000000  0  8G17G 6G16G20G21G26G23G22
  25642667.70044  19981302.04244  22629851.5884   22629851.7274
  32368897.95544  25222518.33044  21709006.2074   21709005.1534
  52612913.54144  40997075.35644  25054138.0484   25054139.3234
  55818866.18644  43495218.90144  25102385.4784   25102385.2924
  -2484240.59644  -1935771.56944  26801115.6184
 -13704395.44544 -10678747.72844  23961635.6754   23961634.4844
   5094147.48044   3969467.21844  23342893.3084   23342893.1344
 -16488059.64944 -12847838.52844  25138140.5484   25138141.0514
 96  3  7  5 58  0.0000000  0  8G17G 6G16G20G21G26G23G22
  25432362.44944  19817427.83044  22589831.7854   22589831.8224
  32205801.33144  25095430.03944  21677969.9494   21677969.0074
  52534180.33644  40935724.79744  25039155.7404   25039154.4014
  55746082.48544  43438504.33344  25088535.5704   25088536.8474
  -2759908.20644  -2150577.54444  26748660.0564   26748661.6314
 -13924311.63144 -10850110.97844  23919787.3054   23919786.3464
   4845335.22144   3775587.54644  23295545.5024   23295545.5944
 -16706619.13844 -13018144.68244  25096549.5844   25096549.4484
 96  3  7  5 58 30.0000000  0  8G17G 6G16G20G21G26G23G22
  25222247.78444  19653702.12544  22549848.4444   22549848.2514
  32043175.11444  24968708.29844  21647023.2034   21647022.1074
  52455621.75844  40874510.32544  25024207.3534   25024207.7634
  55673360.65044  43381837.96144  25074697.4964   25074698.1514
  -3035481.65844  -2365310.10344  26696221.9634   26696221.5044
 -14143753.04444 -11021104.27544  23878028.4764   23878027.6024
   4596915.61344   3582013.83344  23248273.0094   23248272.7484
 -16924685.27044 -13188066.34444  25055053.0034   25055052.3824
 96  3  7  5 59  0.0000000  0  8G17G 6G16G20G21G26G23G22
  25012312.53744  19490116.22444  22509899.0384   22509898.8764
  31881002.91044  24842340.33644  21616162.8664   21616161.9744
  52377225.47344  40813422.32044  25009288.1154   25009288.2294
  55600697.73044  43325217.50544  25060869.5304   25060869.9724
  -3310974.55044  -2579979.94444  26643796.9444   26643797.3154
 -14362718.80844 -11191726.92644  23836360.6094   23836359.7644
   4348899.79544   3388754.76344  23201077.3534   23201077.2894
 -17142268.58044 -13357611.77344  25013648.2174   25013647.8534
 96  3  7  5 59 30.0000000  0  8G17G 6G16G20G21G26G23G22
  24802541.72544  19326658.44944  22469981.1814   22469980.8134
  31719294.12544  24716333.48644  21585390.8344   21585389.6844
  52298956.74144  40752433.68944  24994394.6214   24994394.0044
  55528096.81744  43268645.36744  25047054.2104   25047056.1734
  -3586391.97444  -2794590.94744  26591388.5024   26591386.9974
 -14581219.36644 -11361987.07744  23794781.3414   23794780.4654
   4101264.12944   3195791.91544  23153953.4674   23153953.8554
 -17359389.43444 -13526796.86444  24972332.5124   24972330.5934
 96  3  7  6  0  0.0000000  0  8G17G 6G16G20G21G26G23G22
  24592951.79444  19163341.61944  22430097.4864   22430097.0774
  31558045.83544  24590685.45744  21554706.2404   21554705.1524
  52220791.67544  40691525.84344  24979519.2854   24979519.8604
  55455552.48844  43212117.30744  25033250.3104   25033248.8004
  -3861732.00444  -3009141.60744  26538992.5294   26538991.7024
 -14799273.25844 -11531899.19744  23753286.7304   23753285.8864
   3853989.11944   3003110.09644  23106898.6844   23106899.0684
 -17576050.69044 -13695623.80844  24931102.7284   24931100.5764
 96  3  7  6  0 30.0000000  0  8G17G 6G16G20G21G26G23G22
  24383571.69144  19000188.29344  22390253.5314   22390253.0434
  31397267.60844  24465403.71444  21524111.1614   21524110.2634
  52142739.38344  40630705.85644  24964667.2494   24964666.8114
  55383062.00844  43155631.22844  25019455.5164   25019455.5924
  -4136993.20444  -3223630.87544  26486611.5814   26486609.8434
 -15016876.31544 -11701459.99844  23711878.5254   23711877.4684
   3607082.93844   2810715.67844  23059914.3454   23059914.4574
 -17792238.68144 -13864081.99444  24889963.1144   24889961.6744
 96  3  7  6  1  0.0000000  0  8G17G 6G16G20G21G26G23G22
  24174415.05044  18837209.09044  22350452.4934   22350451.9044
  31236993.74144  24340514.97944  21493611.9734   21493610.9934
  52064819.31244  40569988.91844  24949839.0874   24949837.4634
  55310618.85744  43099182.04244  25005669.7504   25005668.6404
  -4412175.01844  -3438058.27144  26434246.5514   26434244.5744
 -15234017.20844 -11870660.66944  23670558.1034   23670557.3924
   3360536.08744   2618601.25844  23012997.7134   23012997.8934
 -18007929.26944 -14032152.59944  24848917.7504   24848917.2524
 96  3  7  6  1 30.0000000  0  8G17G 6G16G20G21G26G23G22
  23965497.30644  18674416.04144  22310697.1284   22310696.6784
  31077228.06844  24216022.24444  21463209.6094   21463208.6804
  51987029.28444  40509373.31944  24935036.2204   24935036.2414
  55238211.20644  43042760.46344  24991890.8824   24991889.2644
  -4687259.54744  -3652409.90044  26381900.5044   26381902.0414
 -15450702.65944 -12039506.46944  23629324.3654   23629323.9034
   3114339.32144   2426759.63344  22966148.1054   22966148.4534
 -18223102.54244 -14199820.08644  24807972.4424   24807973.1134
 96  3  7  6  2  0.0000000  0  8G17G 6G16G20G21G26G23G22
  23756812.31744  18511804.36744  22270985.1434   22270984.8734
  30917955.11244  24091913.44044  21432900.9554   21432899.9004
  51909370.10644  40448859.66044  24920257.4904   24920257.5184
  55165817.50544  42986349.79144  24978113.6244   24978114.9394
  -4962259.83944                  26329566.3974
 -15666924.09344 -12207990.67444  23588178.5304   23588178.1644
   2868495.42944   2235192.96844  22919365.9894   22919365.5704
 -18437760.35544 -14367085.91544  24767124.3284   24767124.3844
 96  3  7  6  2 30.0000000  0  7G17G 6G16G20G26G23G22
  23548342.88844  18349360.65744  22231314.8224   22231314.4184
  30759184.07944  23968195.74544  21402687.7994   21402687.1414
  51831863.91644  40388465.21444  24905508.8444   24905509.4004
  55093436.93644  42929949.33144  24964340.7984   24964343.2684
 -15882654.27844 -12376092.09144  23547126.6094   23547124.8224
   2623012.57844   2043907.64044  22872651.3934   22872651.7074
 -18651897.67044 -14533946.17544  24726375.7164   24726376.1394
 96  3  7  6  3  0.0000000  0  7G17G 6G16G20G26G23G22
  23340056.62844  18187059.67744  22191679.3764   22191679.3064
  30600895.36844  23844853.88144  21372566.6414   21372565.6314
  51754497.53644  40328179.71044  24890786.7114   24890786.5304
  55021072.34044  42873561.34144  24950570.7084   24950571.2864
 -16097906.59844 -12543821.14344  23506165.5314   23506164.7744
   2377874.00744   1852890.58144  22826003.2014   22826003.3684
 -18865533.49944 -14700415.63844  24685721.6214   24685720.5434
 96  3  7  6  3 30.0000000  0  7G17G 6G16G20G26G23G22
  23131936.29844  18024887.99044  22152075.1924   22152074.8424
  30443083.80944  23721883.82944  21342535.9044   21342535.0784
  51677259.48144  40267994.21444  24876088.1414   24876088.0604
  54948722.83544  42817185.08644  24936803.4844   24936804.3734
 -16312683.24544 -12711179.56244  23465294.9684   23465293.8834
   2133084.91744   1662145.85044  22779421.4894   22779421.5844
 -19078681.98144 -14866505.39144  24645160.9514   24645159.6084
 96  3  7  6  4  0.0000000  0  8G17G 6G16G20G21G26G23G22
  22923967.38044  17862834.29144  22112500.4044   22112499.8904
  30285766.09544  23599298.58944  21312599.4544   21312598.6074
  51600166.38644  40207921.66444  24861418.1924   24861418.8904
  54876395.59544  42760826.19144  24923038.8194   24923040.3224
         0.05254                  26120429.0634
 -16526966.68144 -12878153.65344  23424517.6294   23424516.9784
   1888665.95144   1471689.52644  22732910.1464   22732910.0074
 -19291351.43044 -15032221.83744  24604690.6944   24604690.7904
 96  3  7  6  4 30.0000000  0  8G17G 6G16G20G21G26G23G22
  22716145.52244  17700895.18844  22072953.1894   22072952.4394
  30128932.07244  23477090.25144  21282754.8614   21282754.0784
  51523213.15844  40147958.10144  24846774.9274   24846774.4514
  54804095.83744  42704488.70644  24909281.6324   24909280.3204
   -274489.12444   -213885.97044  26068197.6534   26068198.2414
 -16740784.75044 -13044765.11944  23383829.3444   23383828.7294
   1644617.47344   1281521.88944  22686469.4604   22686469.0984
 -19503539.16444 -15197562.95344  24564313.5654   24564313.8654
 96  3  7  6  5  0.0000000  0  8G17G 6G16G20G21G26G23G22
  22508496.12644  17539090.46944  22033438.8074   22033438.1874
  29972583.35744  23355260.08244  21253002.7014   21253001.7044
  51446393.91144  40088098.92044  24832157.6494   24832157.1334
  54731825.08444  42648173.84044  24895528.4734   24895528.1504
   -548856.76744   -427678.92044  26015988.3004   26015985.4214
 -16954134.58344 -13211011.71844  23343231.1084   23343229.9564
   1400955.84744   1091655.69644  22640102.2404   22640101.7724
 -19715232.97844 -15362519.19644  24524029.6864   24524028.8124
 96  3  7  6  5 30.0000000  0  8G17G 6G16G20G21G26G23G22
  22301048.82344  17377443.22244  21993963.0514   21993962.4204
  29816717.70644  23233806.32744  21223342.6234   21223341.6784
  51369705.96344  40028342.07244  24817563.3474   24817563.6674
  54659568.72144  42591870.18344  24881778.7834   24881778.7604
   -823110.15944   -641382.86844  25963799.8714   25963798.3754
 -17167002.31744 -13376882.66444  23302723.2464   23302722.6194
   1157688.62744    902096.83244  22593809.7524   22593809.2004
 -19926414.58044 -15527076.28844  24483844.0204   24483842.5224
 96  3  7  6  6  0.0000000  0  8G17G 6G16G20G21G26G23G22
  22093824.94944  17215970.07544  21954529.4124   21954528.8684
  29661323.86044  23112720.21444  21193772.1544   21193771.1444
  51293145.28044  39968684.40144  24802994.3744   24802992.9714
  54587330.77144  42535580.86644  24868032.0524   24868032.7614
  -1097243.01144   -854992.87144  25911633.6864   25911633.1894
 -17379382.89044 -13542373.99744  23262308.8064   23262307.7094
    914817.54244    712846.64944  22547593.0204   22547592.6524
 -20137074.24744 -15691226.66944  24443757.0544   24443755.6804
 96  3  7  6  6 30.0000000  0  8G17G 6G16G20G21G26G23G22
  21886846.66044  17054688.29344  21915142.7814   21915142.3604
  29506408.81644  22992007.18744  21164292.8724   21164292.0414
  51216697.48444  39909114.68044  24788445.9354   24788444.9774
  54515118.97644  42479311.92644  24854291.0744   24854292.0904
  -1371253.24444  -1068507.29844  25859491.2304   25859488.9544
 -17591265.72144 -13707477.49644  23221988.8194   23221987.2564
    672342.75944    523905.27344  22501451.5904   22501451.3454
 -20347194.45644 -15854956.70744  24403771.8174   24403769.9224
 96  3  7  6  7  0.0000000  0  8G17G 6G16G20G21G26G23G22
  21680104.53944  16893590.53444  21875801.0124   21875800.5534
  29351981.63344  22871674.30944  21134906.4364   21134905.5144
  51140343.50444  39849618.05444  24773917.9744   24773916.2234
  54442909.15244  42423044.54244  24840549.8634   24840550.2824
  -1645158.54044  -1281939.99144  25807366.7734   25807367.1464
 -17802636.85744 -13872182.26644  23181766.3564   23181765.5294
    430255.77044    335266.07344  22455383.7094   22455383.6954
 -20556788.95944 -16018277.08244  24363887.1924   24363887.3774
 96  3  7  6  7 30.0000000  0  8G17G 6G16G20G21G26G23G22
  21473563.46844  16732649.44244  21836497.3984   21836496.8714
  29198037.33244  22751717.70044  21105611.5174   21105610.7904
  51064068.61044  39790183.07444  24759403.2214   24759401.0514
  54370699.84244  42366777.54544  24826809.4364   24826809.4384
  -1918976.77244  -1495304.81544  25755259.8244   25755262.8804
 -18013505.32944 -14036495.35344  23141639.2734   23141638.1484
    188539.44644    146915.70344  22409386.7004   22409386.8974
 -20765880.41244 -16181205.47344  24324098.8874   24324098.2704
 96  3  7  6  8  0.0000000  0  8G17G 6G16G20G21G26G23G22
  21267194.98944  16571842.83444  21797226.6774   21797226.2064
  29044592.57744  22632150.34844  21076411.8954   21076410.8694
  50987880.46944  39730815.68144  24744903.3484   24744903.5534
  54298505.88044  42310522.50944  24813070.7624   24813073.7354
  -2192712.42344  -1708605.26744  25703168.9704   25703173.7494
 -18223859.87644 -14200407.98144  23101610.2994   23101609.2004
    -52802.94644    -41143.28844  22363460.8044   22363460.8454
 -20974475.35544 -16343747.00644  24284404.4674   24284403.8894
 96  3  7  6  8 30.0000000  0  8G17G 6G16G20G21G26G23G22
  21060984.13844  16411159.05444  21757986.1704   21757985.8364
  28891642.02044  22512968.08844  21047306.4104   21047305.4504
  50911781.58844  39671517.83644  24730422.4374   24730422.7474
  54226311.97444  42254267.50844  24799332.6424   24799331.6834
  -2466361.77944  -1921838.50844  25651093.2924
 -18433703.46744 -14363922.45444  23061678.0114   23061677.2274
   -293782.26744   -228919.37244  22317604.3014   22317604.3704
 -21182581.04344 -16505907.30644  24244803.0164   24244801.0254
 96  3  7  6  9  0.0000000  0  8G17G 6G16G20G21G26G23G22
  20854913.44844  16250584.48844  21718772.1094   21718771.6544
  28739173.06344  22394161.09844  21018292.7004   21018291.5094
  50835772.70344  39612290.14644  24715959.2594   24715959.4984
  54154104.35144  42198001.83844  24785592.1054   24785591.7094
  -2739922.41444  -2135002.60944  25599035.5164
 -18643052.65044 -14527051.68244  23021840.0094   23021839.0164
   -534410.85244   -416422.15444  22271814.2164   22271814.2844
 -21390212.81744 -16667698.32244  24205291.2464   24205289.8964
 96  3  7  6  9 30.0000000  0  8G17G 6G16G20G21G26G23G22
  20648985.63244  16090121.25844  21679585.1854   21679585.1044
  28587180.83644  22275725.59144  20989369.5974   20989368.6214
  50759856.49344  39553134.64144  24701513.1754   24701513.5184
  54081879.16144  42141722.45944  24771848.4064   24771848.1854
  -3013383.54244  -2348089.12844  25546996.7274
 -18851912.74144 -14689799.79044  22982095.6534   22982094.0584
   -774691.48044   -603653.79544  22226089.7254   22226090.2664
 -21597365.18844 -16829115.77844  24165871.6734   24165869.6034
 96  3  7  6 10  0.0000000  0  8G17G 6G16G20G21G26G23G22
  20443249.52744  15929807.41944  21640435.0224   21640434.7944
  28435677.96744  22157671.40544  20960539.4664   20960538.4254
  50684046.75244  39494062.12144  24687086.4284   24687086.0764
  54009633.36144  42085427.02444  24758101.0444   24758102.6354
  -3286712.73344  -2561072.87944  25494987.3054
 -19060266.19444 -14852153.12144  22942447.0124   22942445.8864
  -1014604.32444   -790598.85244  22180435.9694   22180435.9714
 -21804005.78444 -16990134.44544  24126549.7444   24126549.2134
 96  3  7  6 10 30.0000000  0  8G17G 6G16G20G21G26G23G22
  20237721.44744  15769655.67944  21601324.4394   21601324.3024
  28284660.94844  22039995.79644  20931801.9624   20931800.9094
  50608328.86244  39435061.16144  24672677.0974   24672676.6244
  53937340.67544  42029095.07144  24744344.5184   24744344.3964
  -3559899.78944  -2773945.90344  25443002.7014
 -19268125.66144 -15014121.51144  22902892.3184   22902891.4114
  -1254143.47644   -977252.72044  22134853.6454   22134853.5314
 -22010136.42544 -17150755.76144  24087323.9634   24087323.6954
 96  3  7  6 11  0.0000000  0  8G17G 6G16G20G21G26G23G22
  20032410.30344  15609672.96944  21562255.1294   21562254.8224
  28134141.52544  21922707.92544  20903158.8764   20903157.9864
  50532703.90144  39376132.61544  24658286.4874   24658285.3334
  53865004.76744  41972729.43544  24730579.0864   24730578.3194
  -3832943.23844                  25391046.0144
 -19475476.68244 -15175693.72844  22863435.0284   22863434.3214
  -1493288.07644  -1163599.15344  22089345.4864   22089345.2684
 -22215758.39744 -17310981.33344  24048194.6394   24048193.6284
 96  3  7  6 11 30.0000000  0  8G17G 6G16G20G21G26G23G22
  19827315.42944  15449858.78144  21523226.7554   21523226.2024
  27984112.30044  21805802.02144  20874609.2624   20874608.3794
  50457175.34544  39317279.18644  24643914.5584   24643915.9914
  53792607.74944  41916316.11744  24716801.4494   24716802.0084
  -4105850.34544  -3199361.95044  25339113.4124
 -19682319.09144 -15336869.61744  22824074.2084   22824073.5324
  -1732034.03644  -1349634.95444  22043913.8434   22043913.5214
 -22420876.90844 -17470813.98844  24009161.8464   24009161.2844
 96  3  7  6 12  0.0000000  0  8G17G 6G16G20G21G26G23G22
  19622440.78844  15290216.21344  21484240.6784   21484240.1024
  27834567.39044  21689273.50844  20846151.9504   20846150.9664
  50381758.01244  39258512.44544  24629563.8624   24629562.6384
  53720161.00444  41859864.15744  24703016.1554   24703015.6194
  -4378613.85544  -3411905.01544  25287207.6474
 -19888645.20744 -15497643.19944  22784812.0874   22784810.9304
  -1970372.61044  -1535353.31244  21998559.5354   21998559.3414
 -22625490.17344 -17630252.10144  23970226.0194   23970226.1584
 96  3  7  6 12 30.0000000  0  8G17G 6G16G20G21G26G23G22
  19417757.37844  15130722.64444  21445290.8394   21445290.2254
  27685496.62544  21573114.45544  20817784.6134   20817783.6034
  50306452.69644  39199832.96544  24615233.9604   24615233.5984
  53647672.73544  41803379.77744  24689222.0724   24689222.1664
  -4651236.03444  -3624337.89744  25235329.4254
 -20094458.23144 -15658016.97844  22745646.6604   22745646.0724
  -2208306.12144  -1720756.03744  21953282.1174   21953281.9304
 -22829612.05144 -17789308.14944  23931382.7974   23931384.8544
 96  3  7  6 13  0.0000000  0  8G17G 6G16G20G21G26G23G22
  19213252.80944  14971368.43444  21406374.7874   21406374.3134
  27536887.44744  21457315.08544  20789505.3664   20789504.2784
  50231254.01444  39141236.55644  24600924.1464   24600923.4004
  53575161.00544  41746877.13144  24675423.8644   24675424.2254
  -4923722.59044  -3836665.12044  25183476.8484   25183472.7474
 -20299749.93244 -15817984.53044  22706581.1654   22706579.4774
  -2445844.06944  -1905850.53244  21908080.2334   21908080.2364
 -23033242.88944 -17947981.56444  23892634.0034   23892632.8794
 96  3  7  6 13 30.0000000  0  8G17G 6G16G20G21G26G23G22
  19008925.78044  14812152.56644  21367492.5614   21367492.2744
  27388743.13744  21341877.95544  20761314.4394   20761313.5254
  50156148.59944  39082712.88744  24586632.1634   24586630.5234
  53502638.27244  41690365.93144  24661621.6794   24661624.7614
  -5196073.27444  -4048886.44944  25131648.5554   25131648.7704
 -20504524.23744 -15977548.93744  22667613.9014   22667612.4284
  -2682998.58944  -2090646.24944  21862951.3764   21862951.0854
 -23236368.47644 -18106261.25344  23853979.8674   23853979.3264
 96  3  7  6 14  0.0000000  0  8G17G 6G16G20G21G26G23G22
  18804774.56844  14653073.69344  21328643.7024   21328643.3654
  27241064.76344  21226803.88744  20733212.2874   20733211.2194
  50081104.07544  39024236.63544  24572351.1734   24572348.8244
  53430119.61144  41633857.92344  24647822.9864   24647820.9524
  -5468291.87344  -4261004.81744  25079847.3114   25079849.3614
 -20708772.54444 -16136703.35444  22628746.5224   22628745.3174
  -2919775.64844  -2275147.84544  21817893.7934   21817893.6254
 -23438980.92544 -18264141.09144  23815424.2344   23815423.2054
 96  3  7  6 14 30.0000000  0  8G17G 6G16G20G21G26G23G22
  18600804.31744  14494135.84344  21289829.6764   21289829.2574
  27093875.19944  21112110.71644  20705203.2504   20705202.1024
  50006102.83444  38965794.05544  24558078.0994   24558081.2654
  53357606.85744  41577354.46844  24634022.5994   24634022.0344
  -5740391.27144  -4473030.30144  25028067.9814   25028069.3294
 -20912484.07444 -16295439.67844  22589981.0954   22589980.5534
  -3156165.82644  -2459347.97144  21772910.3514   21772910.4434
 -23641074.00444 -18421616.24544  23776967.1004   23776966.5124
 96  3  7  6 15  0.0000000  0  8G17G 6G16G20G21G26G23G22
  18397020.94544  14335343.60544  21251050.9434   21251050.4194
  26947197.24244  20997816.19744  20677291.1804   20677290.4864
  49931151.28044  38907390.26044  24543816.0414   24543813.1634
  53285096.66944  41520853.03544  24620224.5114   24620223.7844
  -6012381.89644  -4684971.02544  24976309.5834   24976311.3234
 -21115662.73944 -16453760.71244  22551317.6954   22551317.2864
  -3392175.20944  -2643251.37544  21727998.9164   21727999.0704
 -23842631.55244 -18578674.09544  23738612.3594   23738611.3964
 96  3  7  6 15 30.0000000  0  8G17G 6G16G20G21G26G23G22
  18193419.68044  14176693.27044  21212306.8784   21212306.2394
  26801023.96444  20883914.93344  20649475.4104   20649474.3304
  49856244.13544  38849021.02844  24529562.1714   24529560.2484
  53212556.82344  41464328.51244  24606421.8644   24606422.6164
  -6284276.52944  -4896836.96644  24924569.4474   24924574.5094
 -21318325.11444 -16611679.43144  22512752.6484   22512752.0074
  -3627822.75344  -2826872.82744  21683156.9914   21683157.1524
 -24043655.00944 -18735315.75044  23700359.1964   23700358.1724
 96  3  7  6 16  0.0000000  0  8G17G 6G16G20G21G26G23G22
  17990010.46644  14018192.58644  21173599.4224   21173599.0404
  26655369.42244  20770417.87844  20621757.9684   20621757.0714
  49781402.69644  38790703.01544  24515319.0794   24515318.4454
  53139976.12444  41407772.14444  24592610.2534   24592607.0794
  -6556069.39244  -5108623.62644  24872849.6674   24872851.3144
 -21520458.53944 -16769185.98744  22474287.9194   22474286.4154
  -3863093.51744  -3010200.68644  21638386.4764   21638386.3144
 -24244140.66244 -18891538.36344  23662207.2934   23662206.1344
 96  3  7  6 16 30.0000000  0  8G17G 6G16G20G21G26G23G22
  17786793.32844  13859841.57044  21134928.3934   21134928.0404
  26510236.95144  20657327.62944  20594140.3974   20594139.2914
  49706651.71044  38732455.48444  24501095.1234   24501092.2004
  53067342.05744  41351174.16544  24578787.8954   24578790.3714
  -6827756.23344  -5320327.61644  24821147.5934   24821150.5154
 -21722069.58944 -16926285.48844  22435922.5564   22435921.3784
  -4097978.16944  -3193227.67544  21593689.3844   21593689.5134
 -24444081.52544 -19047336.44044  23624159.1784   23624158.1624
 96  3  7  6 17  0.0000000  0  8G17G 6G16G20G21G26G23G22
  17583778.99544  13701648.58544  21096296.0184   21096295.6894
  26365606.49944  20544628.56044  20566618.1954   20566617.0554
  49631998.17644  38674283.93544  24486889.6004   24486887.3334
  52994631.50644  41294516.61744  24564951.9914   24564950.9334
  -7099315.30344  -5531932.02044  24769471.6324   24769475.4304
 -21923166.50144 -17082984.36044  22397655.1494   22397653.6784
  -4332477.71144  -3375954.58344  21549065.5384   21549065.4424
 -24643472.42344 -19202705.96344  23586217.4544   23586217.5324
 96  3  7  6 17 30.0000000  0  8G17G 6G16G20G21G26G23G22
  17380983.58544  13543626.18444  21057705.4594   21057704.9504
  26221464.83244  20432310.36344  20539188.6884   20539187.8744
  49557426.04344  38616175.77544  24472699.2224   24472702.2744
  52921830.61644  41237788.67544  24551098.4224   24551099.0604
  -7370735.18644  -5743428.03944  24717822.8714
 -22123732.79244 -17239269.78144  22359488.7574   22359487.0544
  -4566569.42044  -3558363.70044  21504519.3624   21504518.9334
 -24842325.42144 -19357656.36144  23548377.0194   23548376.6954
 96  3  7  6 18  0.0000000  0  8G17G 6G16G20G21G26G23G22
  17178392.52744  13385763.02644  21019153.9244   21019153.3414
  26077801.31344  20320364.75044  20511850.8164   20511850.0864
  49482915.53144  38558115.64044  24458520.5504   24458519.3644
  52848930.71644  41180983.59544  24537227.7654
  -7642018.94844  -5954817.99544  24666200.0074   24666200.2754
 -22323782.43444 -17395152.60144  22321420.3104   22321419.3104
  -4800239.97844  -3740444.64244  21460053.5404   21460053.0514
 -25040667.88344 -19512208.93944  23510633.4914   23510633.0974
 96  3  7  6 18 30.0000000  0  8G26G17G 6G16G20G21G23G22
 -22523311.20444 -17550629.55044  22283451.1974   22283449.6584
  16976009.64944  13228062.08644  20980641.5284   20980640.9354
  25934611.56044  20208788.31244  20484602.5234   20484601.2784
  49408466.26344  38500103.23944  24444352.3354   24444353.5964
  52775940.23144  41124107.89444  24523336.6694
  -7913144.68644  -6166084.79044  24614607.5804   24614608.7024
  -5033485.40144  -3922194.31844  21415668.4204   21415668.0864
 -25238498.69244 -19666362.83444  23472987.4214   23472988.1964
 96  3  7  6 19  0.0000000  0  8G26G17G 6G16G20G21G23G22
 -22722286.70644 -17705675.40544  22245587.6094   22245586.0014
  16773852.72344  13070537.21344  20942172.3354   20942172.0514
  25791925.23044  20097604.15144  20457450.1384   20457449.3314
  49334094.07444  38442150.86344  24430199.4384   24430197.4144
  52702892.28044  41067187.40344  24509434.6574
  -8184090.49244  -6377211.40344  24563048.7674   24563044.5464
  -5266293.58244  -4103603.27744  21371366.8584   21371366.3434
 -25435814.57244 -19820115.47444  23435439.8154   23435438.8994
 96  3  7  6 19 30.0000000  0  8G26G17G 6G16G20G21G23G22
 -22920645.65344 -17860240.81044  22207841.0464   22207839.7184
  16571953.28944  12913212.98444  20903752.1654   20903751.7224
  25649806.88044  19986862.57344  20430406.1274   20430405.2444
  49259848.36944  38384297.04144  24416071.6944   24416072.9534
  52629867.80844                  24495541.2504
  -8454813.34344  -6588164.28944  24511532.4654   24511530.7604
  -5498617.20244  -4284634.66444  21327156.6914   21327156.3694
 -25632573.32344 -19973433.98944  23397996.6974   23397996.8434
 96  3  7  6 20  0.0000000  0  8G26G17G 6G16G20G21G23G22
 -23117382.73644 -18013542.40944  22170403.3634   22170402.0774
  16371308.69944  12756866.55244  20865570.9364   20865570.5464
  25509272.41244  19877355.18344  20403663.1714   20403662.1214
  49186744.22544  38327332.81244  24402161.1144   24402158.8454
  52557882.30544  40954192.66044  24481840.9994
  -8724305.46244  -6798158.16044  24460248.9664   24460245.8414
  -5729471.97244  -4464521.48844  21283226.7584   21283226.3364
 -25827749.08844 -20125519.00644  23360855.9814   23360856.4534
 96  3  7  6 20 30.0000000  0  8G26G23G17G 6G16G20G21G22
 -23312452.22744 -18165544.60644  22133282.7164   22133280.9894
  -5958847.06444  -4643255.31444  21239577.7964   21239577.4254
  16171952.23044  12601523.85144  20827634.6964   20827634.1874
  25370356.50544  19769109.01444  20377228.2974   20377227.4214
  49114813.50144  38271282.88844  24388472.7664   24388473.3974
  52486966.70444                  24468346.3094
  -8992541.27844  -7007173.10344  24409206.7554   24409202.0944
 -26021304.61144 -20276341.50744  23324024.0694   23324023.5894
 96  3  7  6 21  0.0000000  0  8G26G17G 6G16G20G21G23G22
 -23506225.23044 -18316536.54244  22096408.8584   22096407.9464
  15973517.82044  12446899.64444  20789873.8374   20789873.4814
  25232688.08744  19661834.91444  20351031.0634   20351030.2784
  49043678.02144  38215852.63244  24374936.4794   24374935.9824
  52416745.56044                  24454986.3334
  -9259910.52844  -7215512.78844  24358327.8094   24358323.6724
  -6187109.84044  -4821122.40144  21196140.8684   21196140.6654
 -26213608.42144 -20426188.64944  23287430.0464   23287429.5154
 96  3  7  6 21 30.0000000  0  8G26G17G 6G16G20G21G23G22
 -23697009.59044 -18465199.65644  22060104.0254   22060103.0844
  15777719.14944  12294329.25644  20752614.7674   20752614.1254
  25097955.56744  19556848.53044  20325392.3544   20325391.3204
  48975038.00544  38162366.90244  24361873.3474   24361871.0574
  52348901.79444                  24442072.5944
  -9524706.75744  -7421847.50744  24307937.6164   24307934.7664
  -6412560.79644  -4996798.46244  21153238.9474   21153238.7304
 -26402951.98844 -20573729.13644  23251399.0214   23251398.6134
 96  3  7  6 22  0.0000000  0  8G26G17G 6G16G20G21G23G22
 -23882914.41444 -18610060.54844  22024727.3284   22024725.3814
  15586469.57644  12145303.61744  20716221.1064   20716220.5074
  24968063.34644  19455633.80244  20300674.6004   20300673.6164
  48910793.94744  38112306.61444  24349648.7004   24349651.2584
  52285325.79344                  24429975.4954
  -9785021.09444  -7624689.80144  24258401.0204   24258401.0674
  -6633285.25944  -5168791.54044  21111236.1614   21111236.1324
 -26587431.14444 -20717479.11444  23216293.4874   23216293.4114
 96  3  7  6 22 30.0000000  0  8G26G17G 6G16G20G21G23G22
 -24057143.03944 -18745823.10344  21991573.0864   21991571.4294
  15406565.14244  12005118.34544  20681986.3284   20681985.7684
  24849795.48044  19363477.01544  20278168.7924   20278168.0434
  48857740.39944  38070966.19744  24339552.1214   24339555.2564
  52232813.26244                  24419983.3244
 -10034047.17944  -7818736.09044  24211010.8904   24211013.5034
  -6842460.85744  -5331785.50444  21071431.4974   21071431.3114
 -26760265.94244 -20852155.56644  23183404.8064   23183404.4484
 96  3  7  6 23  0.0000000  0  8G26G17G 6G16G20G21G23G22
 -24218640.69444 -18871665.42244  21960840.6464   21960839.8614
  15239061.47644  11874596.01344  20650111.2784   20650110.9204
  24744197.37144  19281192.76544  20258074.2514   20258073.3604
  48816932.72444  38039168.00144  24331786.9874   24331787.8104
  52192422.04544                  24412295.8144
 -10270721.75444  -8003157.83544  24165971.8454   24165972.7774
  -7039026.51744  -5484953.54244  21034026.3234   21034026.3724
 -26920394.36044 -20976930.97944  23152933.9364   23152932.9654
 96  3  7  6 23 30.0000000  0  8G26G22G17G 6G16G20G21G23
 -24364759.06444 -18985523.88744  21933035.1634   21933034.2814
 -27065170.40544 -21089743.49644  23125383.5224   23125382.2644
  15086588.92144  11755786.22844  20621096.6354   20621096.0954
  24653912.89844  19210841.21744  20240893.4364   20240892.5764
  48790997.85344  38018958.99244  24326852.5864   24326849.7684
  52166782.71144                  24407417.3614
 -10492387.48144  -8175884.33144  24123790.4924   24123790.5664
  -7220342.05844  -5626238.36644  20999523.2704   20999523.1394
 96  3  7  6 24  0.0000000  0  8G26G22G17G 6G16G20G21G23
 -24504657.79844 -19094535.89544  21906413.9904   21906412.3444
 -27203754.14844 -21197730.83044  23099012.0214   23099012.0434
  14939965.37744  11641534.11744  20593195.0784   20593194.6824
  24569778.08844  19145281.61244  20224883.2424   20224882.5384
  48770742.39344  38003175.56444  24322998.6034   24322997.4704
  52146720.41944                  24403598.7244
 -10708218.48244  -8344064.27344  24082720.8904   24082723.6514
  -7395565.25544  -5762775.91544  20966179.3374   20966179.2984
 96  3  7  6 24 30.0000000  0  8G26G22G17G 6G16G20G21G23
 -24637846.40444 -19198319.19944  21881068.3994   21881067.7534
 -27335664.92044 -21300518.44744  23073910.6284   23073909.7264
  14799666.03944  11532209.95844  20566497.0254   20566496.7424
  24492264.73844  19084881.58744  20210133.1244   20210132.1734
  48756636.96944  37992184.37344  24320315.1884   24320315.1754
  52132691.45844                  24400930.3924
 -10917737.82944  -8507326.09044  24042851.7814   24042854.2944
  -7564243.16344  -5894213.23544  20934081.0024   20934080.9454
 96  3  7  6 25  0.0000000  0  8G26G22G17G 6G16G20G21G23
 -24761547.44744 -19294709.60544  21857529.5504   21857527.7624
 -27458109.98944 -21395930.17444  23050609.9034   23050609.5584
  14668482.88644  11429989.32344  20541533.8054   20541533.4854
  24424181.35744  19031829.58944  20197177.4424   20197176.4214
  48751462.79844  37988152.55844  24319330.5024   24319326.8824
  52127480.58544                  24399938.2534
 -11118166.17844  -8663504.00144  24004711.4184   24004713.1244
  -7723607.02844  -6018392.86044  20903755.0714   20903754.8354
 96  3  7  6 25 30.0000000  0  8G26G17G 6G16G20G21G23G22
 -24875064.47244 -19383164.41744  21835927.1424   21835925.8754
  14547130.47444  11335429.00344  20518441.0474   20518440.7764
  24366248.74844  18986687.28944  20186153.0504   20186152.1774
  48755929.78044  37991633.36044  24320179.6204   24320178.7084
  52131788.70244                  24400757.8264
 -11308793.95844  -8812045.08944  23968436.4894   23968438.1164
  -7872939.72544  -6134755.98944  20875337.9294   20875337.7964
 -27570385.51844 -21483417.64344  23029244.9294   23029244.3524
 96  3  7  6 26  0.0000000  0  7G26G16G21G22G17G 6G23
 -24981927.89444 -19466434.61444  21815591.8324   21815590.7884
  48766529.41344  37999892.77844  24322195.1094
 -11493155.42244  -8955703.36044  23933354.8084   23933355.0794
 -27676028.48644 -21565736.84144  23009141.3214   23009140.6824
  14432080.82844  11245779.92844  20496547.6684   20496547.2614
  24314932.29044  18946700.42744  20176388.0564   20176387.3414
  -8015778.32044  -6246058.78344  20848156.5034   20848156.3014
 96  3  7  6 26 30.0000000  0  7G26G16G17G 6G21G23G22
 -25079171.19844 -19542208.60344  21797086.9934   21797085.7794
  48786252.35944                  24325949.0034
  14326304.88944  11163357.11844  20476419.2424   20476418.9064
  24273197.94144  18914180.14244  20168445.9704   20168445.1424
 -11668283.61244  -9092166.86544  23900029.5754   23900029.8194
  -8149166.48444  -6349997.60044  20822773.8524   20822773.6194
 -27772087.65944 -21640588.14744  22990861.6894   22990862.0404
 96  3  7  6 27  0.0000000  0  7G26G16G21G22G17G 6G23
 -25170080.70744 -19613047.17344  21779787.4664   21779786.5884
  48811807.67144  38035174.55544  24330812.3234
 -11837467.07244  -9223998.10444  23867834.6554   23867835.2594
 -27861849.06544 -21710532.07544  22973779.6714   22973781.3084
  14226516.23544  11085599.72444  20457430.0654   20457429.9504
  24237747.02344  18886556.03944  20161699.8894   20161699.1424
  -8276359.37444  -6449108.93044  20798569.8744   20798569.6454
 96  3  7  6 27 30.0000000  0  7G26G16G21G17G 6G23G22
 -25246338.96744 -19672469.18044  21765276.1574   21765275.0534
  48851485.66144                  24338364.6034
 -11992403.29144  -9344727.59344  23838350.6344   23838349.8704
  14140994.57744  11018959.47244  20441155.8334   20441155.7364
  24216847.30644  18870270.53544  20157722.9814   20157722.3964
  -8389050.34044  -6536920.05844  20777125.7034   20777125.6164
 -27937015.53344 -21769103.35044  22959476.0514   22959475.7604
 96  3  7  6 28  0.0000000  0  7G26G16G21G22G17G 6G23
 -25312297.99644 -19723865.81544  21752725.3234   21752723.7864
  48900915.17844  38104609.02444  24347770.9124
 -12137461.94944  -9457760.30944  23810746.9634   23810744.4324
 -28001955.66344 -21819706.08444  22947117.5904   22947118.2464
  14065362.73444  10960025.56644  20426763.8254   20426763.4654
  24206121.88344  18861913.05444  20155681.9954   20155681.1154
  -8491608.28144  -6616835.32444  20757609.2734   20757609.3254
 96  3  7  6 28 30.0000000  0  7G26G16G21G17G 6G23G22
 -25367811.39744 -19767123.00244  21742160.8084   21742160.4354
  48960229.38044  38150827.83844  24359056.0444   24359055.6204
 -12272487.67944  -9562975.16044  23785052.6264   23785052.5434
  13999775.83644  10908918.89444  20414282.9934   20414282.8464
  24205721.07144  18861600.72344  20155605.7374   20155604.9474
  -8583871.99644  -6688729.11644  20740052.1704   20740052.0334
 -28056517.46844 -21862221.81144  22936735.7664   22936734.8004
 96  3  7  6 29  0.0000000  0  7G26G16G21G22G17G 6G23
 -25415144.25744 -19804005.74444  21733153.3744   21733152.6144
  49027152.13144  38202975.41344  24371791.5624   24371791.2384
 -12399738.60444  -9662131.69244  23760835.4494   23760835.9304
 -28102964.53444 -21898414.32344  22927897.9054   22927896.3954
  13941973.31644  10863877.97744  20403283.2964   20403283.2464
  24213380.57244  18867569.15844  20157063.0844   20157062.1504
  -8668102.06544  -6754362.92344  20724023.8814   20724023.4474
 96  3  7  6 29 30.0000000  0  7G26G16G21G22G17G 6G23
 -25452722.23144 -19833287.27044  21726003.0214   21726002.2704
  49103271.51044                  24386278.3394
 -12517635.75144  -9753999.57244  23738399.9004   23738400.2364
 -28139724.31344 -21927058.29444  22920902.9734   22920903.8474
  13893543.15344  10826140.19644  20394067.6274   20394067.2344
  24230702.12244  18881066.46344  20160359.3384   20160358.4694
  -8742752.39044  -6812531.99744  20709818.0514   20709817.7544
 96  3  7  6 30  0.0000000  0  6G26G21G22G17G 6G23
 -25482074.22344 -19856158.95044  21720417.2144   21720415.3354
 -12627686.62644  -9839753.47344  23717457.3474   23717458.4064
 -28168315.16044 -21949336.89544  22915463.0054   22915459.9574
  13852992.57444  10794542.34344  20386351.0264   20386350.5964
  24256194.05544  18900930.29844  20165210.5614   20165209.6084
  -8809346.03244  -6864423.13244  20697145.8934   20697145.4344
 96  3  7  6 30 30.0000000  0  6G21G26G22G17G 6G23
 -12733015.00944  -9921827.54044  23697414.3244   23697414.0614
 -25506325.27644 -19875055.85744  21715802.6864   21715801.6074
 -28191866.89744 -21967688.93444  22910981.2304   22910978.5244
  13817203.19044  10766654.51644  20379540.2854   20379539.8434
  24286730.86944  18924725.21144  20171021.2884   20171020.4834
  -8871011.41244  -6912474.06544  20685411.1064   20685410.8084
 96  3  7  6 31  0.0000000  0  6G26G21G22G17G 6G23
 -25526799.63844 -19891009.89544  21711906.2864   21711905.5004
 -12834957.40644 -10001263.15544  23678015.9464   23678016.2874
 -28211703.65644 -21983146.15344  22907206.0644   22907205.0774
  13784840.71044  10741437.00444  20373381.9714   20373381.4634
  24320983.37744  18951415.46644  20177539.7744   20177538.6294
  -8929076.14344  -6957719.29944  20674361.9254   20674361.5404
 96  3  7  6 31 30.0000000  0  7G26G16G17G 6G21G23G22
 -25544157.90844 -19904535.80844  21708602.4704   21708601.7924
        -1.23254                  24454388.7974
  13755233.16644  10718366.19044  20367748.0924   20367747.6204
  24358282.24244  18980479.50944  20184637.2394   20184636.3384
 -12934174.39344 -10078575.05444  23659134.7424   23659134.7214
  -8984193.38844  -7000667.78644  20663873.3764   20663873.1844
 -28228465.86544 -21996207.61344  22904015.0584   22904014.7934
 96  3  7  6 32  0.0000000  0  6G26G21G22G17G 6G23
 -25558412.56844 -19915643.33344  21705890.5294   21705889.1934
 -13030670.20644 -10153766.58044  23640773.9504   23640773.8394
 -28242155.72344 -22006875.05444  22901410.0184   22901408.8414
  13728349.15144  10697417.60944  20362632.0174   20362631.8534
  24398599.98344  19011895.92444  20192309.1824   20192308.2794
  -9036346.45144  -7041306.52444  20653949.0714   20653948.6204
 96  3  7  6 32 30.0000000  0  6G26G21G22G17G 6G23
 -25557594.78944 -19915006.10644  21706045.8804   21706045.0154
 -13112507.23244 -10217535.68444  23625201.4154   23625200.8884
 -28240806.17344 -22005823.45644  22901666.9324   22901666.5844
  13716128.12844  10687894.73544  20360306.6434   20360306.2694
  24453898.26144  19054985.48444  20202832.2734   20202831.4544
  -9073570.87444  -7070312.55344  20646865.1464   20646864.7754
 96  3  7  6 33  0.0000000  0  6G26G21G22G17G 6G23
 -25544256.51844 -19904612.64344  21708584.5144   21708582.8954
 -13182218.66544 -10271856.29044  23611936.6674   23611931.6794
 -28226939.30044 -21995018.10344  22904305.3864   22904304.8104
  13716030.35244  10687818.54544  20360288.0814   20360287.5804
  24521662.17544  19107788.52644  20215727.2884   20215726.6944
  -9098401.30144  -7089660.92844  20642140.2844   20642139.9774
 96  3  7  6 33 30.0000000  0  6G21G26G22G17G 6G23
 -13246108.95744 -10321640.91444  23599778.7674   23599776.9064
 -25524731.54144 -19889398.37344  21712299.5904   21712298.3464
 -28206886.43944 -21979392.50144  22908122.7854   22908120.9864
  13721743.47344  10692270.32744  20361375.4664   20361374.7604
  24595581.25744  19165387.80344  20229793.4634   20229792.8384
  -9117160.91144  -7104278.79344  20638570.3154   20638570.2774
 96  3  7  6 34  0.0000000  0  6G21G26G22G17G 6G23
 -13301644.43644 -10364915.28244  23589209.8474   23589209.6774
 -25496479.25244 -19867383.58644  21717676.1394   21717674.7274
 -28178139.53644 -21956992.31344  22913592.6104   22913593.4254
  13735819.61344  10703238.75044  20364053.7234   20364053.2944
  24678204.07744  19229769.20844  20245516.3394   20245515.5194
  -9127316.12544  -7112191.93644  20636638.1304   20636637.7934
 96  3  7  6 34 30.0000000  0  6G26G21G22G17G 6G23
 -25458575.26144 -19837847.99744  21724888.6734   21724887.6514
 -13347918.98744 -10400973.40044  23580403.4584   23580403.4584
 -28139792.17344 -21927111.26244  22920888.2314   22920888.7464
  13759193.99444  10721452.55844  20368501.5374   20368501.3294
  24770439.29344  19301640.78744  20263068.2014   20263067.0994
  -9127966.20144  -7112698.47244  20636514.1464   20636514.1714
 96  3  7  6 35  0.0000000  0  6G21G26G22G17G 6G23
 -13386877.11644 -10431330.36144  23572989.7924   23572990.9874
 -25412984.96944 -19802323.08844  21733564.4664   21733563.0854
 -28093818.70444 -21891287.78244  22929636.7024   22929637.4864
  13789921.98044  10745396.43944  20374349.0014   20374348.6484
  24870293.25744  19379449.05844  20282069.6054   20282068.7674
  -9121084.08344  -7107335.76944  20637823.6254   20637823.4054
 96  3  7  6 35 30.0000000  0  7G26G16G21G22G17G 6G23
 -25362035.51544 -19762622.21044  21743259.9224   21743259.0654
        -0.17854                  24654991.0014
 -13420879.33444 -10457825.57744  23566520.0744   23566520.3224
 -28042578.94444 -21851360.68044  22939388.1534   22939389.1384
  13825654.45444  10773239.92744  20381148.5734   20381148.2124
  24975383.72144  19461337.71444  20302067.8404   20302067.2424
  -9109021.19344  -7097936.10244  20640119.2054   20640119.0344
 96  3  7  6 36  0.0000000  0  7G26G16G21G22G17G 6G23
 -25307047.44544 -19719774.34144  21753723.9184   21753722.2734
    161398.59844                  24685705.8844
 -13451286.87844 -10481519.75344  23560733.8464   23560732.8814
 -27987406.59344 -21808369.24844  22949888.1124   22949887.6504
  13865035.42944  10803926.40544  20388642.7584   20388642.2524
  25084354.25644  19546249.79944  20322804.0384   20322803.2704
  -9093133.61344  -7085556.15944  20643142.3774   20643142.3524
 96  3  7  6 36 30.0000000  0  7G26G16G21G22G17G 6G23
 -25248552.39144 -19674193.76944  21764854.7244   21764853.3284
    325687.71744                  24716967.0214
 -13478621.53744 -10502819.49644  23555531.3284   23555532.5794
 -27928806.53044 -21762706.85444  22961038.1614   22961039.4814
  13907520.84944  10837031.92344  20396727.4534   20396726.9294
  25196681.29144  19633777.34844  20344179.2424   20344178.6854
  -9073952.59844  -7070609.90344  20646792.5154   20646792.3934
 96  3  7  6 37  0.0000000  0  7G26G16G21G22G17G 6G23
 -25177314.81244 -19618683.95244  21778410.9254   21778409.4564
    502102.93344                  24750536.5724
 -13493627.35244 -10514512.34244  23552675.2424   23552677.1994
 -27857530.18544 -21707166.51544  22974601.5724   22974600.4624
  13962343.68044  10879751.01344  20407159.7214   20407159.3874
  25321633.33644  19731142.56544  20367956.7764   20367956.3464
  -9042219.58844  -7045882.87144  20652831.0584   20652830.7054
 96  3  7  6 37 30.0000000  0  6G26G21G22G17G 6G23
 -25090197.77844 -19550800.54544  21794988.7354   21794987.6804
 -13493163.84044 -10514151.12944  23552763.7194   23552764.3564
 -27770432.47844 -21639298.64244  22991176.2344   22991175.9194
  14032626.64844  10934516.96944  20420534.2254   20420533.7794
  25462376.04744  19840812.19644  20394739.1064   20394738.3554
  -8994782.28644  -7008918.72944  20661858.1824   20661857.8684
 96  3  7  6 38  0.0000000  0  6G26G21G22G17G 6G23
 -24991627.00744 -19473992.15344  21813746.1184   21813744.6864
 -13481637.91944 -10505169.88344  23554957.8984   23554957.3334
 -27671935.78744 -21562547.91844  23009919.4434   23009917.2704
  14113947.05444  10997883.52344  20436009.1314   20436008.3934
  25614508.83844  19959357.21444  20423689.3024   20423688.4624
  -8936067.96044  -6963167.29644  20673031.0634   20673030.7554
 96  3  7  6 38 30.0000000  0  6G26G21G22G17G 6G23
 -24887632.80344 -19392957.70644  21833535.6524   21833534.6224
 -13465061.31344 -10492253.07144  23558111.2804   23558110.3554
 -27568078.06644 -21481619.83444  23029682.4484   23029683.6434
  14200293.44044  11065166.42644  20452440.2974   20452439.6474
  25771996.45744  20082074.82744  20453657.9724   20453657.3504
  -8872088.00444  -6913312.77344  20685206.2414   20685206.2624
 96  3  7  6 39  0.0000000  0  6G26G21G22G17G 6G23
 -24776553.82144 -19306402.63644  21854673.3204   21854672.0574
 -13441780.63144 -10474112.28544  23562540.7374   23562542.0994
 -27457222.91444 -21395239.20044  23050778.0214   23050777.1014
  14293327.19244  11137660.26644  20470143.9354   20470143.4534
  25936466.12344  20210232.99444  20484955.5414   20484955.0554
  -8801191.54244  -6858068.76444  20698697.2894   20698696.9594
 96  3  7  6 39 30.0000000  0  6G26G21G22G17G 6G23
 -24658145.27944 -19214136.22844  21877205.4324   21877204.0164
 -13411561.43044 -10450564.85044  23568291.0984   23568292.6284
 -27339140.67444 -21303227.05944  23073247.5204   23073247.1204
  14393292.23344  11215555.10944  20489166.6924   20489166.2564
  26108131.25844  20343998.02544  20517622.5674   20517621.8924
  -8723155.42044  -6797261.38444  20713546.8944   20713546.8014
 96  3  7  6 40  0.0000000  0  6G26G21G22G17G 6G23
 -24533742.70044 -19117199.15044  21900878.5364   21900877.2684
 -13375731.20344 -10422645.17344  23575109.0894   23575110.2874
 -27215169.87644 -21206626.43244  23096839.4154   23096838.4304
  14498866.25344  11297820.58344  20509256.6764   20509256.1284
  26285648.74244  20482323.32444  20551403.0284   20551402.3884
  -8639314.07144  -6731930.45144  20729501.5454   20729501.1744
 96  3  7  6 40 30.0000000  0  6G26G21G22G17G 6G23
 -24404825.48644 -19016744.18144  21925410.8244   21925409.7884
 -13335746.07344 -10391487.91444  23582717.8394   23582719.8094
 -27086773.66844 -21106577.44744  23121273.4544   23121272.4294
  14608596.70744  11383324.83644  20530137.5014   20530137.1134
  26467549.63244  20624064.26644  20586017.5174   20586016.8654
  -8551115.17844  -6663204.03044  20746285.1414   20746284.9814
 96  3  7  6 41  0.0000000  0  6G26G21G22G17G 6G23
 -24272494.57744 -18913629.18544  21950592.6144   21950591.0054
 -13292695.00244 -10357941.64444  23590912.6414   23590911.5674
 -26955027.87344 -21003918.40444  23146342.7144   23146341.8914
  14721391.97644  11471217.26244  20551601.8104   20551601.4414
  26652772.52844  20768393.78144  20621263.8674   20621263.2944
  -8459648.42044  -6591931.22044  20763690.7714   20763690.4574
 96  3  7  6 41 30.0000000  0  6G26G21G22G17G 6G23
 -24136533.91144 -18807685.81244  21976464.6474   21976464.0024
 -13246356.47744 -10321833.69344  23599730.7014   23599729.6094
 -26819697.91844 -20898466.49744  23172095.7964   23172095.2204
  14837475.09444  11561671.64744  20573691.6994   20573691.3044
  26841559.19244  20915500.25944  20657189.4574   20657188.8074
  -8364678.92644  -6517929.00544  20781762.8324   20781762.5264
 96  3  7  6 42  0.0000000  0  6G26G21G22G17G 6G23
 -23986353.69244 -18690662.26244  22005043.7364   22005041.7584
 -13186137.56844 -10274909.88644  23611190.2304   23611190.6674
 -26670164.78344 -20781947.18244  23200551.0614   23200550.3084
  14967443.67144  11662945.86844  20598424.0924   20598423.5674
  27044514.64244  21073647.34944  20695810.1604   20695809.5764
  -8255597.97744  -6432930.85344  20802520.1624   20802519.8434
 96  3  7  6 42 30.0000000  0  6G26G21G22G17G 6G23
 -23827562.38144 -18566928.78244  22035260.1584   22035258.7844
 -13117674.23944 -10221561.82744  23624217.4304   23624218.3614
 -26512031.78344 -20658726.68044  23230642.3354   23230641.2314
  15105675.73344  11770659.16544  20624728.7084   20624728.1364
  27256022.91644  21238458.97544  20736059.0394   20736057.9894
  -8138029.74944  -6341319.23344  20824892.7614   20824892.5594
 96  3  7  6 43  0.0000000  0  6G26G21G22G17G 6G23
 -23676361.92544 -18449110.23744  22064032.7824   22064032.2414
 -13057210.16944 -10174446.96444  23635725.0344   23635724.9034
 -26361517.17244 -20541442.56944  23259284.7254   23259282.5724
  15235931.27544  11872156.98944  20649515.5044   20649515.1024
  27459858.71544  21397292.04344  20774847.5754   20774846.8014
  -8028212.64644  -6255747.45244  20845789.9444   20845789.6274
 96  3  7  6 43 30.0000000  0  6G26G21G22G17G 6G23
 -23530272.84944 -18335274.59344  22091832.4154   22091830.5514
 -13002271.86344 -10131637.90344  23646178.9964   23646177.0684
 -26216157.93744 -20428175.65044  23286945.0704   23286944.6794
  15360677.38044  11969361.75244  20673253.8734   20673253.4524
  27658472.08244  21552055.68544  20812642.7344   20812641.8804
  -7923679.65744  -6174293.16244  20865682.1034   20865681.6934
 96  3  7  6 44  0.0000000  0  6G26G21G22G17G 6G23
 -23397051.08244 -18231465.42744  22117183.7014   22117182.1754
 -12960603.35944 -10099168.94444  23654108.3684   23654108.1434
 -26083728.80444 -20324984.12344  23312145.7064   23312144.3924
  15472151.82444  12056224.95344  20694466.5974   20694466.2674
  27844092.60144  21696695.03544  20847965.2624   20847964.4164
  -7832210.46444  -6103018.45144  20883088.0724   20883087.5294
 96  3  7  6 44 30.0000000  0  6G26G21G22G17G 6G23
 -23270367.17644 -18132750.68644  22141291.0634   22141289.9834
 -12925886.63544 -10072116.95044  23660714.6034   23660713.8644
 -25957960.32144 -20226982.73344  23336078.8604   23336077.9164
  15576661.92944  12137661.39844  20714354.1824   20714353.7564
  28023032.53244  21836128.73344  20882016.1464   20882015.4654
  -7747508.00444  -6037016.52444  20899206.2314   20899205.9634
 96  3  7  6 45  0.0000000  0  7G26G21G22G28G17G 6G23
 -23149886.54744 -18038869.67344  22164217.6904   22164216.2274
 -12897762.78444 -10050202.26844  23666065.5674   23666065.0274
 -25838544.29244 -20133931.28944  23358802.6294   23358801.0554
        -0.19514         0.02814  25372236.714    25372237.525
  15674544.44744  12213933.48944  20732980.6494   20732980.2464
  28195616.67244  21970609.86744  20914858.2324   20914857.2014
  -7669227.28644  -5976018.54644  20914102.7634   20914102.4104
 96  3  7  6 45 30.0000000  0  7G26G21G22G28G17G 6G23
 -23037974.63644 -17951665.58844  22185514.0004   22185512.7734
 -12878570.34244 -10035247.10744  23669716.6544   23669716.2164
 -25727840.55644 -20047668.65544  23379869.1024   23379868.6254
     -2475.486 4     -1928.753 4  25371764.586    25371767.498
  15763464.89144  12283222.15144  20749901.7744   20749901.1174
  28359485.77644  22098300.06444  20946041.1454   20946040.4574
  -7599704.12544  -5921844.64444  20927332.5274   20927332.2194
 96  3  7  6 46  0.0000000  0  7G 6G26G21G28G22G17G23
  28515234.47144  22219662.66944  20975679.2124   20975678.6194
 -22934043.32644 -17870680.15144  22205291.1394   22205289.5304
 -12867727.22244 -10026797.91444  23671779.4534   23671779.5724
    -13516.819 4    -10532.414 4  25369661.820    25369666.152
 -25625261.57644 -19967737.00844  23399389.6454   23399389.1914
  15844019.10244  12345991.67944  20765230.7314   20765230.0224
  -7538340.58244  -5874028.88244  20939009.3734   20939009.0834
 96  3  7  6 46 30.0000000  0  7G 6G26G21G28G22G17G23
  28655839.18044  22329224.76844  21002435.0934   21002434.5114
 -22845138.03944 -17801403.30444  22222208.7404   22222207.6654
 -12872279.17444 -10030344.89844  23670912.9044   23670914.5224
    -40168.378 4    -31299.853 4  25364590.495    25364594.619
 -25537825.11844 -19899604.71044  23416028.0224   23416027.9484
  15909188.12444  12396772.73744  20777631.8754   20777631.2954
  -7492149.41544  -5838035.75744  20947799.5414   20947799.1484
 96  3  7  6 47  0.0000000  0  7G 6G26G21G28G22G17G23
  28792885.58444  22436014.16044  21028514.4074   21028513.4464
 -22759701.10044 -17734829.06044  22238467.6824   22238466.4274
 -12880647.78544 -10036865.87644  23669321.6914   23669322.1624
    -70838.712 4    -55198.840 4  25358754.328    25358761.050
 -25453913.37844 -19834218.96544  23431996.5554   23431994.9774
  15970553.22644  12444589.70444  20789309.1754   20789308.7474
  -7449536.54044  -5804830.90844  20955908.4344   20955907.9964
 96  3  7  6 47 30.0000000  0  7G 6G26G21G28G22G17G23
  28919845.72144  22534944.12344  21052674.1484   21052673.4774
 -22684280.62444 -17676059.86444  22252819.4174   22252818.8624
 -12899389.06544 -10051469.47244  23665756.0604   23665756.6154
   -112067.523 4    -87325.184 4  25350908.766    25350914.462
 -25380051.80844 -19776664.51644  23446050.6644   23446049.9894
  16021568.36944  12484341.76544  20799016.8474   20799016.5774
  -7417055.15644  -5779520.73144  20962089.4274   20962089.0084
 96  3  7  6 48  0.0000000  0  7G 6G26G21G28G22G17G23
  29042575.08144  22630577.38144  21076029.0404   21076028.2794
 -22613028.06544 -17620538.38144  22266378.9064   22266377.5414
 -12922665.96244 -10069607.32244  23661325.6924   23661327.6484
   -158008.147 4   -123123.102 4  25342165.666    25342171.852
 -25310407.18944 -19722395.98444  23459303.7994   23459302.9554
  16068061.97644  12520570.54744  20807864.2434   20807864.0794
  -7388888.28144  -5757572.50444  20967449.6544   20967449.0154
 96  3  7  6 48 30.0000000  0  7G 6G26G28G21G22G17G23
  29157529.82044  22720152.49044  21097904.3414   21097903.4744
 -22549480.40844 -17571020.72544  22278471.1894   22278469.7534
   -212202.414 4   -165352.383 4  25331852.295    25331859.081
 -12954024.51044 -10094042.54644  23655358.6884   23655360.6954
 -25248527.00944 -19674177.66044  23471079.7004   23471078.3794
  16106467.99244  12550497.31044  20815172.7624   20815172.3354
  -7368596.65844  -5741760.84344  20971310.9934   20971310.5324
 96  3  7  6 49  0.0000000  0  7G 6G26G21G28G22G17G23
  29268483.56044  22806609.93744  21119017.6784   21119017.1444
 -22489825.43844 -17524536.33344  22289822.9344   22289821.5194
 -12989669.60744 -10121817.95044  23648575.9334   23648576.5494
   -270861.518 4   -211060.761 4  25320690.026    25320695.775
 -25190633.96844 -19629066.21744  23482095.9054   23482095.2604
  16140553.38644  12577057.35344  20821659.2644   20821658.5994
  -7352397.72944  -5729138.29044  20974393.5284   20974393.0774
 96  3  7  6 49 30.0000000  0  7G 6G26G21G28G22G17G23
  29368125.39244  22884252.90544  21137978.8614   21137978.1724
 -22441336.93444 -17486753.07644  22299050.3764   22299049.1804
 -13036885.32944 -10158609.41244  23639590.9054   23639590.7314
   -341270.597 4   -265924.879 4  25307291.759    25307298.781
 -25144033.50344 -19592754.17644  23490963.9414   23490963.5604
  16163045.17944  12594583.42544  20825939.2374   20825938.7614
  -7347578.47844  -5725383.01744  20975310.6784   20975310.4224
 96  3  7  6 50  0.0000000  0  7G 6G26G28G21G22G17G23
  29461808.16844  22957252.46044  21155805.9154   21155805.3154
 -22398639.33844 -17453482.21544  22307175.8644   22307174.8214
   -418057.627 4   -325758.912 4  25292679.815    25292686.357
 -13090295.71844 -10200227.86744  23629428.5444   23629429.0014
 -25103342.57044 -19561046.97444  23498707.5754   23498706.5654
  16179323.80744  12607268.07244  20829036.8604   20829036.3474
  -7348764.43244  -5726307.12244  20975084.8734   20975084.5694
 96  3  7  6 50 30.0000000  0  7G 6G26G28G21G22G17G23
  29549255.50944  23025393.23544  21172446.7474   21172446.2104
 -22361980.80344 -17424917.12744  22314151.6644   22314150.0504
   -501468.031 4   -390754.128 4  25276806.124    25276810.916
 -13150134.41644 -10246855.45744  23618041.6534   23618040.2324
 -25068793.75644 -19534125.82744  23505282.0624   23505280.7034
  16189152.69244  12614926.94044  20830907.3844   20830907.0884
  -7356175.71744  -5732082.14044  20973674.5504   20973674.4244
 96  3  7  6 51  0.0000000  0  7G 6G26G28G21G22G17G23
  29631111.58044  23089177.17944  21188023.5644   21188022.9664
 -22330722.89644 -17400560.30544  22320099.0504   22320098.0134
   -590844.149 4   -460397.923 4  25259798.682    25259803.803
 -13215733.93544 -10297971.95844  23605557.7974   23605556.6814
 -25039738.12144 -19511485.09144  23510811.1344   23510809.9804
  16193213.81944  12618091.45244  20831680.3124   20831679.8464
  -7369160.48444  -5742200.12844  20971203.6154   20971203.0004
 96  3  7  6 51 30.0000000  0  7G 6G26G28G21G22G17G23
  29708733.88844  23149662.09244  21202794.5764   21202794.0714
 -22303536.85644 -17379376.36144  22325272.3074   22325270.6264
   -684844.009 4   -533644.477 4  25241913.530    25241917.298
 -13285759.76844 -10352537.55544  23592231.7074   23592230.1514
 -25014832.06044 -19492077.78544  23515550.9134   23515550.4314
  16192861.71944  12617817.08244  20831613.3634   20831612.9334
  -7386390.09744  -5755625.78944  20967924.8104   20967924.6554
 96  3  7  6 52  0.0000000  0  7G 6G26G28G21G22G17G23
  29783186.01644  23207676.72344  21216962.5564   21216962.0094
 -22279377.07444 -17360550.55144  22329869.4444   22329868.8744
   -782422.638 4   -609679.692 4  25223346.419    25223345.590
 -13359162.68744 -10409734.62444  23578263.2264   23578263.9074
 -24993035.69844 -19475093.61044  23519698.1284   23519696.7724
  16189119.24344  12614900.86644  20830900.8344   20830900.5714
  -7406831.63044  -5771554.24644  20964035.0194   20964034.3824
 96  3  7  6 52 30.0000000  0  6G 6G26G21G22G17G23
  29854686.06344  23263391.03044  21230568.2054   21230567.8144
 -22258061.04144 -17343940.65344  22333926.6174   22333925.7794
 -13435743.03244 -10469407.62244  23563691.1324   23563690.8634
 -24974173.59144 -19460395.88844  23523287.5544   23523287.1224
  16182174.36544  12609489.26844  20829579.3264   20829578.9134
  -7430287.64144  -5789831.64344  20959571.4904   20959571.0754
 96  3  7  6 53  0.0000000  0  6G 6G26G21G22G17G23
  29912026.88644  23308072.17644  21241480.2604   21241479.5714
 -22250825.89044 -17338302.85944  22335303.4904   22335301.6634
 -13526747.21544 -10540319.95944  23546374.2714   23546373.1854
 -24969483.23244 -19456741.07844  23524178.9624   23524178.6344
  16160786.86844  12592823.68744  20825509.2844   20825509.0154
  -7468003.20344  -5819220.38044  20952394.3434   20952393.8884
 96  3  7  6 53 30.0000000  0  6G 6G26G21G22G17G23
  29962295.43044  23347242.45544  21251046.1554   21251045.4444
 -22250575.96644 -17338108.11244  22335351.0964   22335350.3524
 -13625104.72044 -10616962.18944  23527657.1764   23527655.8074
 -24971862.19144 -19458594.82544  23523726.5144   23523726.0594
  16132032.88044  12570417.98244  20820037.8254   20820037.3304
  -7512869.36644  -5854181.01044  20943856.7224   20943856.3624
 96  3  7  6 54  0.0000000  0  6G 6G21G26G22G17G23
  30005861.72444  23381190.20244  21259336.3004   21259335.5834
 -13730432.29044 -10699035.62344  23507613.8054   23507612.1954
 -22256944.73844 -17343070.79644  22334139.0504   22334137.6374
 -24980933.26544 -19465663.22544  23522001.0014   23521999.1954
  16096276.90244  12542556.17944  20813233.6294   20813233.2804
  -7564498.38344  -5894411.40044  20934031.7304   20934031.2634
 96  3  7  6 54 30.0000000  0  6G 6G21G26G22G17G23
  30035901.19544  23404597.57044  21265052.4984   21265051.7614
 -13849550.67944 -10791855.12244  23484945.6194   23484945.9734
 -22276758.69544 -17358510.22844  22330368.1914   22330367.1024
 -25003508.46244 -19483254.30044  23517704.7654   23517704.1604
  16046712.00344  12503934.18044  20803801.8394   20803801.4724
  -7629700.38644  -5945218.14344  20921624.2444   20921623.9514
 96  3  7  6 55  0.0000000  0  6G 6G21G26G22G17G23
  30056052.64744  23420299.98544  21268887.4424   21268886.4774
 -13978805.67344 -10892573.30844  23460348.9634   23460349.6614
 -22306328.70144 -17381551.78244  22324741.4114   22324740.0494
 -25035927.16844 -19508515.62644  23511535.0554   23511535.2744
  15987006.89244  12457410.71444  20792440.4324   20792440.0374
  -7704815.06744  -6003749.05544  20907330.5594   20907329.9974
 96  3  7  6 55 30.0000000  0  6G 6G21G26G22G17G23
  30073133.14244  23433609.45444  21272137.6134   21272137.0154
 -14111363.89244 -10995865.40944  23435124.0774   23435125.0424
 -22338821.03844 -17406870.46944  22318558.3444   22318557.2694
 -25071373.15844 -19536135.88044  23504791.4804   23504789.8614
  15923991.71744  12408307.98144  20780448.9284   20780448.4364
  -7783020.15344  -6064688.07544  20892448.7204   20892448.2964
 96  3  7  6 56  0.0000000  0  7G 6G28G21G26G22G17G23
  30087706.79444  23444965.53244  21274910.8184   21274910.2344
         0.00114         0.39414  25016390.082    25016388.431
 -14246643.15144 -11101277.81044  23409382.1054   23409382.5284
 -22373670.54744 -17434025.91944  22311926.6704   22311925.4824
 -25109299.00944 -19565688.50744  23497573.6534   23497572.9104
  15858233.79844  12357068.04244  20767935.8824   20767935.2714
  -7863774.23244  -6127613.32744  20877081.5634   20877081.1474
 96  3  7  6 56 30.0000000  0  7G 6G28G21G26G22G17G23
  30100218.59544  23454714.97144  21277292.0484   21277291.5744
   -163335.129 4   -127273.771 4  24985305.342    24985312.808
 -14384183.40744 -11208452.02644  23383208.0494   23383208.5214
 -22410404.50344 -17462649.76244  22304936.4954   22304934.5244
 -25149253.98244 -19596822.26944  23489970.2544   23489969.0634
  15790200.53444  12304055.10944  20754989.5134   20754989.1014
  -7946624.73644  -6192172.14944  20861315.6444   20861315.3494
 96  3  7  6 57  0.0000000  0  7G 6G28G21G26G22G17G23
  30108962.73844  23461528.58144  21278955.6354   21278955.0134
   -330811.623 4   -257774.887 4  24953434.837    24953447.002
 -14525688.16344 -11318715.45144  23356281.3724   23356281.7444
 -22450716.52144 -17494061.71644  22297264.9084   22297264.1904
 -25192950.41544 -19630871.42844  23481655.2494   23481653.6894
  15718180.17244  12247935.34544  20741284.4584   20741283.9224
  -8033281.60944  -6259696.97644  20844825.4694   20844825.0414
 96  3  7  6 57 30.0000000  0  7G 6G28G21G26G22G17G23
  30111704.16944  23463664.75044  21279477.5104   21279476.8134
   -504680.512 4   -393257.088 4  24920348.155    24920354.927
 -14673396.26044 -11433812.64944  23328173.0584   23328173.8884
 -22496884.10044 -17530036.45444  22288479.7354   22288478.4814
 -25242622.17944 -19669576.70644  23472203.1214   23472201.4244
  15639917.02144  12186951.07244  20726391.5044   20726390.9544
  -8125998.04544  -6331943.53544  20827181.8284   20827181.5584
 96  3  7  6 58  0.0000000  0  7G 6G28G21G26G22G17G23
  30103019.06044  23456897.12744  21277824.9374   21277824.0254
   -690362.654 4   -537944.580 4  24885013.180    24885019.931
 -14832724.41644 -11557964.47544  23297854.2684   23297854.0044
 -22554338.82144 -17574806.36044  22277546.4144   22277545.5854
 -25303682.35644 -19717156.09444  23460584.0634   23460583.1844
  15549984.65344  12116873.90344  20709277.6964   20709277.4184
  -8230184.78944  -6413128.00544  20807355.9414   20807355.5174
 96  3  7  6 58 30.0000000  0  7G 6G28G21G26G22G17G23
  30093421.46244  23449418.47044  21275998.5304   21275997.8184
   -877350.038 4   -683649.048 4  24849430.874    24849437.350
 -14993176.21744 -11682991.83844  23267321.5684   23267321.1334
 -22612575.85344 -17620185.86144  22266464.4374   22266463.0264
 -25365623.20744 -19765421.69144  23448797.6364   23448795.7304
  15458885.15444  12045887.28444  20691942.3994   20691941.8814
  -8335314.01144  -6495046.86744  20787350.2984   20787349.9554
 96  3  7  6 59  0.0000000  0  7G 6G28G21G26G22G17G23
  30090095.44744  23446826.76144  21275365.6244   21275365.0094
  -1058466.744 4   -824778.884 4  24814965.130    24814969.196
 -15147591.70544 -11803315.57944  23237937.1614   23237937.0064
 -22664439.08744 -17660598.76244  22256595.5724   22256593.5434
 -25421271.14944 -19808783.75344  23438207.5764   23438207.8084
  15373795.07344  11979583.32644  20675750.0264   20675749.4934
  -8434207.42544  -6572106.65644  20768531.8004   20768531.3984
 96  3  7  6 59 30.0000000  0  7G 6G28G21G26G22G17G23
  30102438.80544  23456444.94544  21277713.9754   21277713.0904
  -1224307.019 4   -954005.029 4  24783404.968    24783410.107
 -15286566.67044 -11911607.76744  23211491.2254   23211490.7014
 -22700540.25744 -17688729.54244  22249725.5824   22249724.0604
 -25461221.12944 -19839913.60344  23430604.8234   23430605.3864
  15304130.97144  11925299.61444  20662493.3714   20662492.7874
  -8517457.46044  -6636976.80144  20752689.7404   20752689.2294
 96  3  7  7  0  0.0000000  0  7G 6G28G21G26G22G17G23
  30122330.66044  23471945.08344  21281499.6584   21281499.1054
  -1382976.717 4  -1077643.765 4  24753209.985    24753217.464
 -15418214.06344 -12014190.13644  23186439.5634   23186440.0584
 -22728979.08744 -17710889.64844  22244313.7804   22244311.7244
 -25493613.16444 -19865154.18644  23424441.8794   23424440.6914
  15241799.58544  11876729.70344  20650632.2304   20650631.4964
  -8593172.04744  -6695975.17144  20738281.9154   20738281.6014
 96  3  7  7  0 30.0000000  0  7G 6G28G21G26G22G17G23
  30147815.33744  23491803.26144  21286349.0664   21286348.5184
  -1536425.733 4  -1197214.484 4  24724011.353    24724013.728
 -15544491.56444 -12112588.17444  23162409.1524   23162409.6474
 -22751703.06944 -17728596.64544  22239989.3254   22239987.8994
 -25520403.37344 -19886029.67744  23419343.5014   23419341.9304
  15184862.92344  11832363.47044  20639797.3874   20639796.8084
  -8663320.60744  -6750636.37544  20724932.8874   20724932.3484
 96  3  7  7  1  0.0000000  0  6G 6G21G26G22G17G23
  30190993.80644  23525448.80344  21294565.9644   21294565.1894
 -15653284.40144 -12197361.80744  23141707.0794   23141706.8774
 -22756607.00144 -17732417.90244  22239056.0294   22239054.5014
 -25529470.99844 -19893095.36844  23417617.1364   23417617.7894
  15145444.45144  11801647.77844  20632296.3664   20632295.7444
  -8715810.45944  -6791537.54744  20714944.3654   20714943.9914
 96  3  7  7  1 30.0000000  0  6G 6G21G26G22G17G23
  30244453.33244  23567105.56944  21304738.8084   21304738.3474
 -15751980.75844 -12274268.04944  23122925.7214   23122925.4034
 -22751084.59444 -17728114.71144  22240107.3704   22240105.8074
 -25528227.80244 -19892126.66144  23417854.5364   23417853.5034
  15116140.80844  11778813.76944  20626720.1294   20626719.5884
  -8758057.13444  -6824457.02244  20706905.1934   20706904.6774
 96  3  7  7  2  0.0000000  0  6G 6G21G26G22G17G23
  30302430.60544  23612282.65144  21315771.5714   21315770.5474
 -15846355.69844 -12347806.97744  23104966.0664   23104965.7464
 -22740886.12344 -17720167.84244  22242047.7224   22242047.1184
 -25522438.37544 -19887615.42944  23418956.3594   23418956.5384
  15091174.11944  11759359.20544  20621969.0634   20621968.4144
  -8795829.06744  -6853889.68444  20699717.3864   20699716.9474
 96  3  7  7  2 30.0000000  0  6G 6G21G26G22G17G23
  30375247.46844  23669023.05244  21329628.2194   21329627.6704
 -15926094.56044 -12409941.13944  23089792.8954   23089792.8854
 -22715692.66644 -17700536.57744  22246841.8754   22246840.0494
 -25501761.49944 -19871503.58244  23422890.6644   23422891.0014
  15080840.44644  11751306.99644  20620002.7284   20620002.1204
  -8818800.78444  -6871789.71344  20695345.9524   20695345.5004
 96  3  7  7  3  0.0000000  0  6G 6G21G26G22G17G23
  30458109.08644  23733590.53344  21345396.3614   21345395.7574
 -15995989.95044 -12464405.08244  23076492.5684   23076492.9544
 -22680298.24944 -17672956.50044  22253576.8334   22253575.8454
 -25471006.72144 -19847538.83344  23428743.6954   23428741.9484
  15080325.94644  11750906.08744  20619904.7364   20619904.2064
  -8831756.73844  -6881885.25544  20692880.3424   20692879.9074
 96  3  7  7  3 30.0000000  0  6G 6G21G26G22G17G23
  30549690.85444  23804952.93944  21362823.5464   21362822.7964
 -16057352.26544 -12512219.87244  23064814.8954   23064815.7974
 -22636014.80044 -17638449.91144  22262004.0194   22262002.3104
 -25431502.76044 -19816756.52544  23436260.4324   23436259.8424
  15088293.48044  11757114.55644  20621420.7824   20621420.1754
  -8836012.70544  -6885201.58144  20692070.5614   20692070.1544
 96  3  7  7  4  0.0000000  0  6G 6G21G26G22G17G23
  30642241.33944  23877070.18844  21380435.3094   21380434.7484
 -16117936.13244 -12559428.06244  23053286.6614   23053287.0234
 -22590604.86444 -17603065.54044  22270645.1614   22270643.8314
 -25390984.46344 -19785183.84644  23443971.3384   23443971.1844
  15096988.48244  11763889.88844  20623075.4584   20623075.0104
  -8839319.38344  -6887778.20444  20691441.4874   20691441.1984
 96  3  7  7  4 30.0000000  0  7G 6G28G21G26G17G23G22
  30728264.24144  23944101.01044  21396805.0444   21396804.4314
        -0.21614        -0.37514  24559652.773    24559655.047
 -16185208.85844 -12611848.36044  23040485.4214   23040484.8664
 -22551569.29744 -17572648.22144  22278073.2474   22278072.2104
  15098920.48944  11765395.35144  20623443.0804   20623442.6234
  -8849182.17544  -6895463.48944  20689564.5914   20689564.0984
 -25356949.20944 -19758662.88244  23450447.6994   23450446.9724
 96  3  7  7  5  0.0000000  0  7G 6G28G21G26G17G23G22
  30811360.10344  24008851.02144  21412617.5194   21412616.7454
    -98958.103 4    -77110.319 4  24540820.955    24540822.227
 -16255565.01244 -12666671.34244  23027096.9204   23027097.3754
 -22515311.90644 -17544395.69844  22284972.8884   22284970.9884
  15097696.25444  11764441.40544  20623210.0034   20623209.5374
  -8862023.47744  -6905469.69344  20687120.9914   20687120.4864
 -25325814.35344 -19734401.95944  23456372.6964   23456370.9674
 96  3  7  7  5 30.0000000  0  7G 6G28G21G17G26G23G22
  30893630.64544  24072957.92944  21428273.3814   21428272.8084
   -199072.437 4   -155121.529 4  24521768.928    24521772.012
 -16326906.94944 -12722262.45544  23013519.9254   23013520.5414
  15095426.16144  11762672.50244  20622778.2094   20622777.7014
 -22479734.64044 -17516673.14644  22291742.9104   22291741.8854
  -8875747.80444  -6916163.97044  20684509.1054   20684508.6224
 -25295466.65044 -19710754.40244  23462146.9664   23462147.6384
 96  3  7  7  6  0.0000000  0  7G 6G28G21G17G26G23G22
  30974399.99044  24135895.07044  21443643.2944   21443642.4574
   -301027.791 4   -234567.222 4  24502367.199    24502369.737
 -16399930.28844 -12779163.75544  22999624.1334   22999624.5804
  15091430.06644  11759558.66444  20622017.4194   20622017.1164
 -22445517.99344 -17490010.81544  22298254.3174   22298253.1004
  -8891025.27544  -6928068.48644  20681601.9574   20681601.4364
 -25266597.37044 -19688258.87744  23467640.8194   23467641.3144
 96  3  7  7  6 30.0000000  0  7G 6G28G21G17G26G23G22
  31054428.99444  24198255.32044  21458872.2554   21458871.5934
   -404064.522 4   -314855.652 4  24482760.311    24482762.469
 -16473881.39044 -12836787.97144  22985552.3804   22985552.6894
  15086465.64944  11755690.29044  20621072.7764   20621072.4664
 -22411890.96344 -17463807.93044  22304653.3924   22304652.8144
  -8907078.26544  -6940577.29944  20678547.2534   20678546.7214
 -25238469.39644 -19666340.99044  23472992.8024   23472993.7454
 96  3  7  7  7  0.0000000  0  7G 6G28G21G17G26G23G22
  31134624.61944  24260745.40244  21474133.0164   21474132.2434
   -507271.372 4   -395276.524 4  24463119.937    24463121.023
 -16547874.87144 -12894445.21944  22971472.0144   22971472.0574
  15081461.99244  11751791.33644  20620120.8084   20620120.5534
 -22377952.07944 -17437362.04644  22311111.7254   22311110.9874
  -8922972.26844  -6952962.22744  20675522.8494   20675522.2274
 -25210168.81744 -19644288.61844  23478378.1304   23478379.6144
 96  3  7  7  7 30.0000000  0  7G 6G28G21G26G17G23G22
  31214919.59844  24323312.91144  21489412.5974   21489412.0594
   -610701.607 4   -475871.527 4  24443435.961    24443439.570
 -16621968.06344 -12952180.16944  22957371.9824   22957371.1294
 -22343753.71244 -17410713.94944  22317619.6284   22317618.2494
  15076371.89944  11747825.02644  20619152.1484   20619151.9764
  -8938743.32044  -6965251.34944  20672521.6994   20672521.3294
 -25181746.84044 -19622141.64744  23483787.4884   23483789.2404
 96  3  7  7  8  0.0000000  0  7G 6G28G21G17G26G23G22
  31295004.07044  24385716.38344  21504652.0454   21504651.5944
   -714643.917 4   -556865.645 4  24423657.410    24423657.618
 -16696451.30944 -13010219.06844  22943198.4874   22943198.6604
  15070895.15744  11743557.43444  20618110.0364   20618109.5864
 -22309610.28844 -17384108.67944  22324116.1484   22324115.0824
  -8954693.30944  -6977679.90544  20669486.2744   20669485.8804
 -25153509.17744 -19600138.29344  23489160.4554   23489160.1054
 96  3  7  7  8 30.0000000  0  6G 6G21G26G22G17G23
  31375083.01644  24448115.55044  21519890.6424   21519890.2954
 -16771096.70944 -13068384.29544  22928993.3744   22928995.5274
 -22275326.17044 -17357393.77844  22330640.6284   22330638.8774
 -25125236.40744 -19578107.56244  23494541.2094   23494541.6494
  15065259.24744  11739165.81744  20617037.5234   20617037.0434
  -8970626.64844  -6990095.48744  20666454.5214   20666454.0844
 96  3  7  7  9  0.0000000  0  6G 6G21G26G22G17G23
  31455484.95544  24510766.39844  21535190.6304   21535190.1994
 -16845551.83144 -13126401.26444  22914825.5584   22914824.9904
 -22240573.77744 -17330313.98744  22337254.1184   22337252.4394
 -25096585.00944 -19555781.84544  23499993.8304   23499994.7874
  15059793.29844  11734906.63844  20615997.6284   20615997.1034
  -8986231.36244  -7002254.99644  20663484.8544   20663484.3114
 96  3  7  7  9 30.0000000  0  6G 6G21G26G17G23G22
  31536144.78244  24573618.19744  21550539.4364   21550538.8564
 -16919864.56544 -13184307.28344  22900684.2274   22900684.5714
 -22205415.05244 -17302917.56844  22343944.8954   22343943.3174
  15054407.61644  11730710.00144  20614972.7614   20614972.3624
  -9001594.40744  -7014226.19044  20660561.3514   20660560.8914
 -25067622.96444 -19533214.02544  23505504.5294   23505505.7004
 96  3  7  7 10  0.0000000  0  6G 6G21G26G22G17G23
  31617097.56744  24636698.27644  21565944.4194   21565943.9544
 -16994005.82644 -13242079.69644  22886576.1424   22886575.4364
 -22169821.50544 -17275182.32244  22350717.6394   22350716.7214
 -25038322.85344 -19510382.77744  23511080.3754   23511080.5194
  15049127.92644  11726595.95744  20613967.8584   20613967.3124
  -9016694.75044  -7025992.68044  20657687.9384   20657687.4644
 96  3  7  7 10 30.0000000  0  6G 6G21G26G17G23G22
  31698400.01244  24700050.81144  21581416.1674   21581415.6234
 -17067945.26744 -13299694.83344  22872505.9944   22872506.1554
 -22133734.47744 -17247062.55444  22357584.9094   22357583.1134
  15044001.90044  11722601.64944  20612992.2854   20612991.8664
  -9031489.14444  -7037520.76844  20654872.5734   20654872.0424
 -25008651.44044 -19487262.21344  23516726.5304   23516727.0774
 96  3  7  7 11  0.0000000  0  7G 6G28G21G17G26G23G22
  31780058.25744  24763680.59844  21596955.0944   21596954.4584
        -0.00214         0.02014  24304710.838    24304712.987
 -17141695.18544 -13357162.28944  22858471.2504   22858472.0354
  15039016.03644  11718716.56244  20612043.7674   20612042.9914
 -22097131.89944 -17218541.06344  22364550.3944   22364548.9084
  -9045961.71344  -7048798.08544  20652118.6214   20652118.0434
 -24978607.83044 -19463851.60444  23522443.8364   23522444.0534
 96  3  7  7 11 30.0000000  0  7G 6G28G21G17G26G23G22
  31862059.98544  24827578.03644  21612559.1114   21612558.2644
   -104045.913 4    -81074.724 4  24284910.564    24284911.508
 -17215291.27944 -13414509.88344  22844466.5914   22844467.1644
  15034166.89844  11714938.00944  20611121.0474   20611120.5654
 -22060025.41444 -17189626.90244  22371611.0714   22371609.7174
  -9060109.50644  -7059822.33044  20649426.4914   20649426.0344
 -24948216.07444 -19440169.73644  23528227.4864   23528226.0614
 96  3  7  7 12  0.0000000  0  6G 6G21G26G17G23G22
  31944410.31944  24891747.10544  21628230.0764   21628229.5104
 -17288737.48044 -13471740.68044  22830490.2324   22830490.4234
 -22022408.20644 -17160314.77944  22378769.4164   22378768.1514
  15029472.46144  11711280.00144  20610227.6184   20610227.0284
  -9073920.97344  -7070584.50044  20646797.8674   20646797.4254
 -24917478.40344 -19416218.31244  23534076.7264   23534074.3884
 96  3  7  7 12 30.0000000  0  7G 6G28G21G17G26G23G22
  32027114.58844  24956191.97544  21643968.4244   21643967.8544
        -0.30214        -0.17414  24245346.716    24245346.759
 -17362015.09744 -13528840.11744  22816546.0024   22816546.2404
  15024951.21644  11707756.95244  20609367.3084   20609366.7144
 -21984259.63044 -17130588.62644  22386028.9544   22386027.6724
  -9087370.48944  -7081064.63444  20644238.6424   20644238.2134
 -24886372.78344 -19391980.20344  23539995.9374   23539995.2664
 96  3  7  7 13  0.0000000  0  7G 6G28G21G17G26G23G22
  32110170.39344  25020910.76844  21659773.4664   21659772.5654
   -103815.989 4    -80895.502 4  24225591.950    24225590.665
 -17435083.62844 -13585776.62144  22802641.4224   22802641.4464
  15020626.58744  11704387.11444  20608544.5914   20608544.1484
 -21945555.95644 -17100429.91344  22393394.0514   22393392.1584
  -9100432.35744  -7091242.70244  20641753.1564   20641752.3334
 -24854863.11744 -19367427.22944  23545991.7354   23545990.2344
 96  3  7  7 13 30.0000000  0  7G 6G28G21G17G26G23G22
  32193548.28944  25085880.55044  21675639.7714   21675639.0994
   -207549.019 4   -161726.383 4  24205851.243    24205850.872
 -17507958.07644 -13642561.88744  22788773.9574   22788775.1584
  15016497.08244  11701169.31844  20607758.4914   20607758.0834
 -21906343.36644 -17069874.63644  22400855.7674   22400854.6324
  -9113152.04844  -7101154.13944  20639332.4554   20639332.1114
 -24822972.74944 -19342577.62944  23552060.1534   23552057.9294
 96  3  7  7 14  0.0000000  0  7G 6G28G17G21G26G23G22
  32277272.38044  25151120.07344  21691571.5764   21691570.4714
   -311167.718 4   -242468.246 4  24186131.560    24186133.558
  15012596.28944  11698129.74044  20607016.0814   20607015.6754
 -17580592.28444 -13699159.95644  22774952.2574   22774952.1314
 -21866594.63344 -17038901.60044  22408419.7274   22408418.4554
  -9125509.96144  -7110783.67544  20636981.0004   20636980.4084
 -24790663.58044 -19317401.65044  23558208.5214   23558206.5444
 96  3  7  7 14 30.0000000  0  7G 6G28G17G21G26G23G22
  32361345.18944  25216631.33444  21707570.4494   21707569.6584
   -414661.044 4   -323112.423 4  24166437.357    24166438.541
  15008919.00044  11695264.31744  20606316.5964   20606316.0864
 -17652975.99744 -13755562.83544  22761177.5074   22761178.6014
 -21826309.75144 -17007510.77444  22416085.9264   22416084.8934
  -9137507.20044  -7120132.16344  20634697.8094   20634697.3244
 -24757932.81844 -19291897.18444  23564437.1694   23564435.4914
 96  3  7  7 15  0.0000000  0  7G 6G28G17G21G26G23G22
  32445784.53544  25282428.20844  21723638.7844   21723637.9514
   -518019.337 4   -403651.336 4  24146769.940    24146771.264
  15005475.17244  11692580.81544  20605661.0694   20605660.6814
 -17725099.85744 -13811763.23744  22747453.2734   22747453.0764
 -21785503.23744 -16975713.49844  22423850.2614   22423849.4194
  -9149155.42844  -7129208.69644  20632481.4704   20632480.9644
 -24724791.29544 -19266072.64944  23570742.4924   23570742.5004
 96  3  7  7 15 30.0000000  0  7G 6G28G17G21G26G23G22
  32530633.26544  25348544.08544  21739784.7164   21739784.1674
   -621229.798 4   -484075.092 4  24127130.026    24127131.506
  15002276.23344  11690088.13444  20605052.3294   20605051.9944
 -17796952.88144 -13867752.60344  22733779.8984   22733780.5244
 -21744168.90844 -16943504.92444  22431716.6424   22431714.4574
  -9160434.41144  -7137997.50244  20630334.9654   20630334.5074
 -24691233.17944 -19239923.48044  23577129.3304   23577130.5764
 96  3  7  7 16  0.0000000  0  7G 6G28G17G21G26G23G22
  32615895.44444  25414982.13644  21756009.2134   21756008.7274
   -724286.762 4   -564379.204 4  24107518.684    24107519.999
  14999306.61744  11687774.14544  20604487.3644   20604486.7654
 -17868522.56044 -13923521.16844  22720160.6044   22720161.0074
 -21702287.42244 -16910870.00544  22439685.9464   22439685.1784
  -9171319.61544  -7146479.46844  20628263.5634   20628263.1714
 -24657273.71544 -19213461.59644  23583591.9044   23583592.2914
 96  3  7  7 16 30.0000000  0  7G 6G17G28G21G26G23G22
  32701555.08144  25481729.89844  21772309.9744   21772309.1674
  14996544.17644  11685621.59544  20603961.4374   20603961.1034
   -827207.873 4   -644577.447 4  24087933.578    24087934.739
 -17939829.48844 -13979084.99644  22706591.5744   22706591.4634
 -21659873.15744 -16877819.93544  22447757.3934   22447756.1704
  -9181826.39644  -7154666.56044  20626264.2954   20626263.6514
 -24622939.81044 -19186707.91844  23590124.7434   23590125.9614
 96  3  7  7 17  0.0000000  0  7G 6G17G28G21G26G23G22
  32787623.37244  25548796.08644  21788687.9914   21788687.9374
  14994008.17144  11683645.48844  20603479.0054   20603478.5754
   -929987.307 4   -724665.351 4  24068374.387    24068376.208
 -18010872.03544 -14034442.81244  22693072.0714   22693072.9144
 -21616915.98444 -16844346.81144  22455932.1044   22455930.6544
  -9191936.10844  -7162544.24444  20624340.7354   20624340.0274
 -24588225.60444 -19159657.93244  23596731.8914   23596732.2874
 96  3  7  7 17 30.0000000  0  7G 6G17G28G21G26G23G22
  32874084.14744  25616168.10644  21805141.2464   21805140.2334
  14991685.18244  11681835.37244  20603036.8434   20603036.3584
  -1032629.372 4   -804646.192 4  24048842.674    24048843.171
 -18081666.63144 -14089607.42644  22679600.9854   22679601.5014
 -21573404.36444 -16810441.62944  22464212.3464   22464210.7124
  -9201644.45444  -7170109.18444  20622493.0924   20622492.5854
 -24553131.68844 -19132312.02144  23603409.7554   23603409.6334
 96  3  7  7 18  0.0000000  0  7G 6G28G17G21G26G23G22
  32960901.14044  25683817.70644  21821662.4244   21821661.6614
  -1135135.650 4   -884521.193 4  24029337.280    24029337.594
  14989574.59644  11680190.76644  20602635.2834   20602634.8934
 -18152239.62144 -14144599.35444  22666171.1014   22666170.7754
 -21529338.60044 -16776104.67544  22472597.6584   22472595.7984
  -9210979.09344  -7177382.91544  20620716.4904   20620715.9674
 -24517655.68144 -19104668.37744  23610160.3464   23610159.8414
 96  3  7  7 18 30.0000000  0  7G 6G17G28G21G26G23G22
  33048073.16244  25751743.93844  21838250.1164   21838249.4894
  14987688.18244  11678720.83644  20602276.2934   20602275.8654
  -1237495.348 4   -964281.991 4  24009858.415    24009858.692
 -18222609.79444 -14199433.24644  22652779.7244   22652779.7394
 -21484723.13544 -16741339.37744  22481087.7944   22481085.7754
  -9219948.97644  -7184372.42644  20619009.7424   20619009.3714
 -24481765.77444 -19076702.22444  23616989.7404   23616990.3904
 96  3  7  7 19  0.0000000  0  7G 6G17G28G21G26G23G22
  33135596.74844  25819944.11944  21854905.0544   21854904.5384
  14986025.08044  11677424.91444  20601959.8824   20601959.3504
  -1339701.063 4  -1043922.832 4  23990409.974    23990410.195
 -18292778.40044 -14254110.07444  22639427.7104   22639427.1534
 -21439570.49244 -16706155.49244  22489679.6494   22489678.5754
  -9228556.53344  -7191079.60344  20617371.8244   20617371.3044
 -24445453.58344 -19048407.04344  23623899.7794   23623899.6234
 96  3  7  7 19 30.0000000  0  7G 6G17G28G21G26G23G22
  33223450.70744  25888401.74244  21871623.3004   21871622.8974
  14984573.67044  11676293.94844  20601683.6754   20601683.1894
  -1441754.394 4  -1123444.866 4  23970989.865    23970990.538
 -18362741.95244 -14308627.12144  22626114.2544   22626114.1324
 -21393900.86644 -16670568.76544  22498370.1064   22498369.6324
  -9236818.36244  -7197517.38044  20615799.5064   20615799.0944
 -24408722.67644 -19019785.56044  23630889.0654   23630889.3934
 96  3  7  7 20  0.0000000  0  7G 6G17G28G21G26G23G22
  33311644.14144  25957123.88444  21888406.5854   21888406.1444
  14983336.49444  11675329.91744  20601448.4364   20601447.7394
  -1543647.060 4  -1202841.762 4  23951599.683    23951602.107
 -18432481.79444 -14362969.84644  22612842.9274   22612842.9044
 -21347722.37644 -16634585.53044  22507157.8194   22507156.6274
  -9244724.95044  -7203678.34944  20614294.9684   20614294.4124
 -24371564.39044 -18990831.06244  23637959.8244   23637958.7204
 96  3  7  7 20 30.0000000  0  7G 6G17G28G21G26G23G22
  33400198.04944  26026126.92344  21905256.9374   21905256.4744
  14982299.72844  11674522.05544  20601250.8744   20601250.3124
  -1645381.176 4  -1282115.090 4  23932240.513    23932243.048
 -18501974.02544 -14417119.63244  22599619.2854   22599618.9444
 -21301045.74744 -16598214.12744  22516040.6464   22516038.7964
  -9252256.74844  -7209547.27044  20612861.9824   20612861.2134
 -24334002.74444 -18961562.24244  23645107.9784   23645106.2474
 96  3  7  7 21  0.0000000  0  7G 6G17G28G21G26G23G22
  33489129.74644  26095424.34244  21922180.8254   21922179.8784
  14981477.56944  11673881.41544  20601094.6814   20601094.3104
  -1746946.211 4  -1361256.652 4  23912913.247    23912915.518
 -18571181.26944 -14471047.34644  22586449.5844   22586448.9674
 -21253864.23844 -16561449.30544  22525018.3894   22525017.0734
  -9259400.84344  -7215114.08844  20611502.3694   20611501.9204
 -24296053.13444 -18931991.11144  23652329.1664   23652328.5994
 96  3  7  7 21 30.0000000  0  7G 6G17G28G21G26G23G22
  33578440.14044  26165016.84844  21939175.7624   21939175.3014
  14980868.99744  11673407.20644  20600978.7284   20600978.1524
  -1848345.915 4  -1440269.397 4  23893617.751    23893619.507
 -18640104.39544 -14524753.67044  22573333.3834   22573333.2984
 -21206165.78144 -16524281.67644  22534095.3164   22534092.8824
  -9266164.76544  -7220384.66944  20610215.0514   20610214.5114
 -24257727.85944 -18902127.25944  23659621.9264   23659623.4874
 96  3  7  7 22  0.0000000  0  7G 6G17G28G21G26G23G22
  33668132.54344  26234907.02244  21956243.5614   21956242.6774
  14980478.76644  11673103.13544  20600904.3974   20600903.9334
  -1949581.011 4  -1519153.854 4  23874352.852    23874354.382
 -18708750.98344 -14578244.49844  22560270.3964   22560270.1434
 -21157942.20444 -16486704.86244  22543271.7034   22543270.8484
  -9272555.40744  -7225364.38044  20608999.0074   20608998.4424
 -24219036.11844 -18871977.85944  23666986.4214   23666985.0254
 96  3  7  7 22 30.0000000  0  7G 6G17G28G21G26G23G22
  33758197.88844  26305087.81444  21973382.2804   21973381.5274
  14980317.34244  11672977.34944  20600873.5044   20600873.0004
  -2050651.344 4  -1597909.954 4  23855120.399    23855120.354
 -18777122.77644 -14631521.20744  22547259.3784   22547259.5964
 -21109191.80044 -16448717.53844  22552548.8814   22552548.1714
  -9278591.65044  -7230067.94044  20607850.3994   20607849.8644
 -24179994.89544 -18841556.12744  23674415.7484   23674414.8344
 96  3  7  7 23  0.0000000  0  7G 6G17G28G21G26G23G22
  33848606.71244  26375536.24744  21990587.0954   21990585.8064
  14980393.17344  11673036.43744  20600888.2074   20600887.7384
  -2151566.706 4  -1676545.250 4  23835916.967    23835916.903
 -18845243.06344 -14684601.94144  22534296.7474   22534296.7134
 -21059927.46944 -16410329.74244  22561923.8284   22561922.7814
  -9284305.93444  -7234520.61944  20606762.8424   20606762.2464
 -24140599.73944 -18810858.63744  23681910.8594   23681911.7154
 96  3  7  7 23 30.0000000  0  7G 6G17G28G21G26G23G22
  33939359.12344  26446252.40244  22007856.3574   22007855.3674
  14980723.09644  11673293.52744  20600950.8334   20600950.2924
  -2252308.166 4  -1755045.097 4  23816745.761    23816746.326
 -18913111.21244 -14737486.20644  22521382.2014   22521382.5354
 -21010129.65044 -16371526.24444  22571399.6754   22571397.6974
  -9289684.04244  -7238711.34244  20605739.2604   20605738.8184
 -24100834.05444 -18779872.38844  23689479.1404   23689480.0504
 96  3  7  7 24  0.0000000  0  7G17G 6G28G21G26G23G22
  14981307.57144  11673748.96544  20601062.0324   20601061.7544
  34030444.01044  26517227.64644  22025189.3364   22025188.9614
  -2352872.361 4  -1833406.795 4  23797609.738    23797609.600
 -18980729.52944 -14790175.79944  22508515.0214   22508514.6134
 -20959813.81244 -16332319.08744  22580975.0774   22580974.0734
  -9294720.82144  -7242636.09944  20604781.0444   20604780.3724
 -24060702.47244 -18748601.03744  23697114.4704   23697116.4814
 96  3  7  7 24 30.0000000  0  7G17G 6G28G21G26G23G22
  14982137.04944  11674395.30844  20601219.9504   20601219.5524
  34121847.70244  26588451.29344  22042582.5344   22042582.2534
  -2453265.187 4  -1911634.971 4  23778504.775    23778506.245
 -19048110.66344 -14842680.56944  22495692.7924   22495692.0254
 -20908993.80144 -16292719.07644  22590645.6464   22590645.2094
  -9299417.07344  -7246295.50744  20603887.5924   20603887.0724
 -24020204.63644 -18717044.31544  23704821.8244   23704823.0404
 96  3  7  7 25  0.0000000  0  7G17G 6G28G21G26G23G22
  14983213.00844  11675233.71744  20601424.8124   20601424.4514
  34213575.04144  26659927.12544  22060037.6784   22060036.8224
  -2553479.407 4  -1989723.975 4  23759434.813    23759435.672
 -19115258.31244 -14895003.39844  22482914.6934   22482915.5614
 -20857673.63444 -16252729.34944  22600411.0284   22600409.0414
  -9303749.46444  -7249671.39344  20603063.0714   20603062.6034
 -23979329.68044 -18685193.70444  23712599.9094   23712601.1454
 96  3  7  7 25 30.0000000  0  7G17G 6G28G21G26G23G22
  14984511.78344  11676245.74944  20601672.0724   20601671.5124
  34305628.87544  26731657.37244  22077555.5194   22077555.2744
  -2653510.375 4  -2067670.167 4  23740399.883    23740401.238
 -19182159.31744 -14947134.04444  22470183.7244   22470184.0644
 -20805851.61244 -16212348.54144  22610272.4024   22610270.9454
  -9307699.80944  -7252749.58144  20602311.2224   20602310.6604
 -23938092.93944 -18653061.20344  23720447.6564   23720448.0234
 96  3  7  7 26  0.0000000  0  7G17G 6G28G21G26G23G22
  14986022.54444  11677422.96444  20601959.4304   20601959.0164
  34398015.19244  26803646.68644  22095136.2014   22095135.4234
  -2753354.432 4  -2145470.724 4  23721400.273    23721401.316
 -19248800.78244 -14999062.45244  22457502.2164   22457502.3584
 -20753527.90044 -16171576.81944  22620229.3694   22620228.0044
  -9311263.92144  -7255526.80844  20601633.0294   20601632.2824
 -23896492.45444 -18620645.26244  23728364.2034   23728363.3684
 96  3  7  7 26 30.0000000  0  7G17G 6G28G21G26G23G22
  14987753.78644  11678771.98744  20602288.7354   20602288.3324
  34490743.30944  26875902.34644  22112781.1544   22112780.8574
  -2853003.646 4  -2223119.439 4  23702437.154    23702438.874
 -19315174.96344 -15050782.58444  22444871.4184   22444871.7734
 -20700688.17144 -16130403.00744  22630284.1054   22630281.9864
  -9314442.32244  -7258003.48244  20601027.9834   20601027.4154
 -23854519.25844 -18587938.87444  23736351.4244   23736349.3554
 96  3  7  7 27  0.0000000  0  7G17G 6G28G21G26G23G22
  14989725.61344  11680308.47644  20602663.8974   20602663.4254
  34583840.69244  26948445.73844  22130497.1664   22130496.6034
  -2952424.384 4  -2300590.159 4  23683518.114    23683519.618
 -19381243.81044 -15102264.79244  22432298.8114   22432299.3834
 -20647295.80144 -16088798.55144  22640445.1364   22640442.8534
  -9317214.98944  -7260163.99644  20600500.7184   20600500.0804
 -23812162.55444 -18554933.65844  23744410.9434   23744410.5134
 96  3  7  7 27 30.0000000  0  7G17G 6G28G21G26G23G22
  14991895.95744  11681999.65144  20603076.9604   20603076.9364
  34677257.40544  27021237.96444  22148274.0164   22148273.3374
  -3051658.147 4  -2377915.160 4  23664635.147    23664636.311
 -19447048.80344 -15153541.40244  22419777.3274   22419777.0024
 -20593395.93844 -16046798.65544  22650701.7774   22650700.3794
  -9319648.66944  -7262060.36344  20600037.4254   20600036.9794
 -23769477.04144 -18521672.22644  23752534.0904   23752534.3514
 96  3  7  7 28  0.0000000  0  7G17G 6G28G21G26G23G22
  14994301.49444  11683874.09744  20603534.5624   20603534.4824
  34771012.97244  27094294.24144  22166114.9664   22166114.4744
  -3150689.368 4  -2455082.343 4  23645790.369    23645790.684
 -19512598.96044 -15204619.43944  22407303.8384   22407304.4084
 -20538980.97744 -16004397.39244  22661056.0504   22661055.6594
  -9321739.07644  -7263689.24844  20599639.7474   20599639.3394
 -23726444.74544 -18488140.59144  23760722.0814   23760722.4084
 96  3  7  7 28 30.0000000  0  7G17G 6G28G21G26G23G22
  14996973.26444  11685955.99044  20604043.0294   20604042.6444
  34865129.73644  27167631.96544  22184024.8144   22184024.3094
  -3249496.904 4  -2532075.206 4  23626987.562    23626988.990
 -19577891.13544 -15255496.45744  22394878.5294   22394879.0034
 -20484038.05344 -15961584.72344  22671511.6494   22671510.3494
  -9323474.51044  -7265041.53244  20599309.5324   20599308.8894
 -23683045.46044 -18454322.98744  23768981.0894   23768981.0654
 96  3  7  7 29  0.0000000  0  7G17G 6G28G21G26G23G22
  14999891.66144  11688230.06844  20604598.3624   20604598.0834
  34959582.73844  27241231.69744  22201998.9734   22201998.5314
  -3348094.854 4  -2608904.775 4  23608224.263    23608225.779
 -19642942.60844 -15306185.90944  22382499.3464   22382499.6834
 -20428598.22444 -15918384.84844  22682061.3944   22682060.2044
  -9324871.54844  -7266130.12344  20599043.5914   20599043.0074
 -23639307.01244 -18420241.10944  23777305.3664   23777305.0254
 96  3  7  7 29 30.0000000  0  7G17G 6G28G21G26G23G22
  15003048.23544  11690689.73844  20605198.9974   20605198.5044
  35054358.45144  27315082.90344  22220033.8824   22220033.4864
  -3446492.212 4  -2685578.042 4  23589499.778    23589501.225
 -19707768.85244 -15356699.85544  22370163.1954   22370163.2564
 -20372679.90244 -15874812.11844  22692701.9254   22692700.8154
  -9325936.94044  -7266960.29144  20598840.7864   20598840.2524
 -23595235.29044 -18385899.53644  23785690.9354   23785689.9944
 96  3  7  7 30  0.0000000  0  7G17G 6G28G21G26G23G22
  15006416.69444  11693314.51144  20605840.2934   20605839.7974
  35149444.19944  27389175.67244  22238128.2614   22238127.5544
  -3544700.693 4  -2762104.121 4  23570811.687    23570812.678
 -19772382.84144 -15407048.41144  22357867.9734   22357867.9994
 -20316286.06444 -15830868.87444  22703433.1894   22703431.8004
  -9326666.97544  -7267529.14344  20598701.7854   20598701.3004
 -23550830.33644 -18351298.26644  23794142.1504   23794141.5214
 96  3  7  7 30 30.0000000  0  7G17G 6G28G21G26G23G22
  15010007.11244  11696112.24244  20606523.3264   20606522.8464
  35244840.01244  27463510.06244  22256281.2974   22256280.3364
  -3642694.208 4  -2838462.700 4  23552163.727    23552165.533
 -19836741.47544 -15457197.99144  22345621.0384   22345620.8884
 -20259394.88144 -15786538.08644  22714260.0704   22714258.2474
  -9327043.75244  -7267822.72744  20598629.9934   20598629.5604
 -23506074.39744 -18316423.53444  23802658.2844   23802657.1084
 96  3  7  7 31  0.0000000  0  8G17G 6G28G 1G21G26G23G22
  15013839.87844  11699098.80844  20607252.8944   20607252.1654
  35340557.99644  27538095.51844  22274495.6474   22274494.9574
  -3740449.148 4  -2914635.401 4  23533561.776    23533563.637
         0.15454                  25092798.9544
 -19900802.84444 -15507115.93844  22333430.2624   22333429.9324
 -20201982.46344 -15741801.13444  22725184.9234   22725183.2894
  -9327037.84544  -7267818.11944  20598631.2674   20598630.8784
 -23460954.38144 -18281265.06644  23811244.3634   23811242.9604
 96  3  7  7 31 30.0000000  0  8G17G 6G28G 1G21G26G23G22
  15017868.09644  11702237.68344  20608019.2084   20608018.7174
  35436559.64444  27612901.99444  22292764.3504   22292763.0384
  -3838013.817 4  -2990659.847 4  23514995.645    23514997.935
   -110025.54244                  25071861.7054
 -19964610.83644 -15556836.43844  22321288.6574   22321288.0214
 -20144091.42644 -15696691.22944  22736201.1754   22736199.8064
  -9326692.07344  -7267548.67744  20598697.2214   20598696.5594
 -23415509.04344 -18245853.10444  23819892.5194   23819891.4114
 96  3  7  7 32  0.0000000  0  8G17G 6G28G 1G21G26G23G22
  15022114.49144  11705546.56444  20608827.4384   20608826.8284
  35532850.11744  27687933.51344  22311087.7184   22311087.4074
  -3935379.786 4  -3066529.437 4  23496468.357    23496468.796
   -220164.17944                  25050904.1804
 -20028154.37544 -15606350.88044  22309195.9404   22309196.3714
 -20085718.19344 -15651205.59544  22747309.1564   22747307.1434
  -9325998.85944  -7267008.50144  20598828.9594   20598828.4484
 -23369731.61044 -18210182.37744  23828602.5654   23828603.7054
 96  3  7  7 32 30.0000000  0  8G17G 6G28G 1G21G26G23G22
  15026621.97744  11709058.89244  20609685.2014   20609684.7434
  35629445.68044  27763202.77044  22329470.2044   22329469.2024
  -4032521.736 4  -3142224.440 4  23477983.531    23477983.852
   -330392.10644                  25029927.3824
 -20091411.57744 -15655642.19244  22297158.3504   22297158.1874
 -20026847.21144 -15605332.10644  22758511.7684   22758510.7354
  -9324951.97144  -7266192.74244  20599028.0004   20599027.5914
 -23323616.22644 -18174248.34044  23837378.6624   23837378.8274
 96  3  7  7 33  0.0000000  0  8G17G 6G28G 1G21G26G23G22
  15031392.76444  11712776.38844  20610593.0354   20610592.6444
  35726357.39544  27838718.37544  22347910.7894   22347910.2774
  -4129441.342 4  -3217746.208 4  23459539.715    23459541.152
   -440711.18344                  25008932.7684
 -20154398.72644 -15704723.07844  22285172.1764   22285172.5944
 -19967479.31244 -15559071.40544  22769809.5414   22769807.9214
  -9323555.66444  -7265104.70444  20599293.9894   20599293.3484
 -23277164.89144 -18138052.53344  23846217.1254   23846219.1384
 96  3  7  7 33 30.0000000  0  8G17G 6G28G 1G21G26G23G22
  15036441.32244  11716710.33244  20611553.8274   20611553.3234
  35823594.64644  27914487.66144  22366414.8944   22366414.4364
  -4226124.038 4  -3293083.390 4  23441141.754    23441142.301
   -551104.38444                  24987926.0514
 -20217116.86244 -15753594.34844  22273237.6834   22273237.2234
 -19907609.50744 -15512419.60044  22781202.2914   22781201.4014
  -9321805.26144  -7263740.74744  20599627.0344   20599626.5754
 -23230367.69644 -18101587.21344  23855122.7354   23855123.3184
 96  3  7  7 34  0.0000000  0  8G17G 6G28G 1G21G26G23G22
  15041757.06544  11720852.47144  20612565.3744   20612564.8924
  35921134.77244  27990492.95044  22384976.0774   22384975.1764
  -4322571.639 4  -3368237.358 4  23422787.720    23422789.327
   -661573.98244                  24966905.3244
 -20279580.90144 -15802267.61444  22261351.2054   22261351.1384
 -19847251.88444 -15465387.69544  22792687.3204   22792685.3254
  -9319722.35044  -7262117.69944  20600023.3034   20600022.7884
 -23183255.50444 -18064876.45344  23864089.0994   23864089.4804
 96  3  7  7 34 30.0000000  0  8G17G 6G28G 1G21G26G23G22
  15047314.63944  11725183.05044  20613622.9924   20613622.3704
  36018969.68244  28066727.93744  22403593.5554   22403593.4234
  -4418791.145 4  -3443213.618 4  23404478.071    23404479.282
   -772119.76044                  24945869.2904
 -20341808.27544 -15850756.47444  22249509.5824   22249509.5634
 -19786426.78944 -15417991.51844  22804262.7064   22804261.1994
  -9317330.85344  -7260254.19244  20600478.5274   20600477.7124
 -23135850.40244 -18027937.41644  23873110.8344   23873110.2794
 96  3  7  7 35  0.0000000  0  8G17G 6G28G 1G21G26G23G22
  15053113.70044  11729701.79844  20614726.5054   20614725.9774
  36117115.19044  28143204.93344  22422269.6714   22422269.0114
  -4514770.489 4  -3518002.714 4  23386213.890    23386214.628
   -882731.33644   -687842.22744  24924820.9234
 -20403785.14244 -15899050.12144  22237716.1994   22237716.5804
 -19725143.16144 -15370238.04544  22815923.9794   22815923.1024
  -9314612.22944  -7258135.78644  20600995.8644   20600995.3374
 -23088144.10644 -17990763.69744  23882188.8344   23882188.1174
 96  3  7  7 35 30.0000000  0  8G17G 6G28G 1G21G26G23G22
  15059158.37544  11734411.93144  20615876.7154   20615876.1844
  36215571.55744  28219924.18644  22441005.3114   22441004.5504
  -4610501.453 4  -3592598.263 4  23367996.982    23367997.888
   -993392.92044   -774071.98844  24903761.0574
 -20465500.95544 -15947140.35944  22225972.1274   22225972.6294
 -19663401.81644 -15322127.91144  22827673.6474   22827671.6044
  -9311557.20544  -7255755.24444  20601577.1594   20601576.5454
 -23040139.45044 -17953357.46544  23891322.7164   23891322.1284
 96  3  7  7 36  0.0000000  0  8G17G 6G28G 1G21G26G23G22
  15065458.81044  11739321.36344  20617075.6554   20617075.1824
  36314357.74744  28296900.42744  22459803.6054   22459803.1754
  -4705964.285 4  -3666984.892 4  23349830.738    23349832.142
  -1104071.73144                  24882700.1234
 -20526953.13944 -15995025.16944  22214278.2624   22214278.3424
 -19601184.95944 -15273647.24044  22839512.1684   22839511.8334
  -9308156.83944  -7253105.60444  20602224.0804   20602223.4574
 -22991819.66344 -17915705.66544  23900517.0104   23900513.0664
 96  3  7  7 36 30.0000000  0  8G17G 6G28G 1G21G26G23G22
  15071993.50944  11744413.33844  20618318.9994   20618318.4204
  36413444.31044  28374110.71644  22478659.4814   22478659.2454
  -4801180.129 4  -3741179.073 4  23331712.128    23331712.889
  -1214779.93544   -946581.32944  24861633.9734
 -20588159.47944 -16042718.40644  22202631.0134   22202631.3174
 -19538518.75944 -15224816.43944  22851437.5634   22851436.9794
  -9304420.72544  -7250194.34544  20602935.3704   20602934.8224
 -22943185.32944 -17877808.79744  23909771.6504   23909773.0844
 96  3  7  7 37  0.0000000  0  8G17G 6G28G 1G21G26G23G22
  15078758.07144  11749684.43044  20619605.9704   20619605.5194
  36512809.96144  28451538.49644  22497568.5334   22497568.1464
  -4896153.735 4  -3815184.472 4  23313639.789    23313639.782
  -1325527.82644  -1032878.33644  24840558.9644   24840556.2484
 -20649121.65944 -16090221.39244  22191030.0544   22191030.4734
 -19475392.86944 -15175627.44244  22863450.2254   22863448.1384
  -9300341.74844  -7247015.91844  20603711.3164   20603710.6854
 -22894234.78944 -17839665.53244  23919086.8984   23919086.7854
 96  3  7  7 37 30.0000000  0  8G17G 6G28G 1G21G26G23G22
  15085751.87844  11755134.15444  20620936.8024   20620936.3794
  36612438.19944  28529170.88444  22516527.0254   22516526.6314
  -4990883.810 4  -3889000.099 4  23295613.241    23295613.678
  -1436316.31444  -1119207.03744  24819476.3634
 -20709842.54744 -16137536.36344  22179475.6184   22179476.0204
 -19411789.91244 -15126066.70144  22875553.3214   22875552.8014
  -9295927.04444  -7243575.88544  20604551.3924   20604550.5124
 -22844976.05244 -17801282.10244  23928459.9334   23928460.1874
 96  3  7  7 38  0.0000000  0  8G17G 6G28G 1G21G26G23G22
  15092999.53444  11760781.67544  20622316.1084   20622315.7924
  36712331.17244  28607009.54344  22535536.4844   22535535.4934
  -5085351.140 4  -3962611.028 4  23277636.685    23277636.987
  -1547145.45544  -1205567.38344  24798387.0734   24798388.0764
 -20770298.80044 -16184645.11944  22167971.0294   22167971.2024
 -19347702.37244 -15076128.36844  22887748.7844   22887747.7134
  -9291159.61844  -7239861.00644  20605458.5814   20605458.2624
 -22795395.40944 -17762647.83644  23937896.0644   23937894.7144
 96  3  7  7 38 30.0000000  0  8G17G 6G28G 1G21G26G23G22
  15100502.53444  11766628.17144  20623744.2704   20623743.9574
  36812475.73744  28685044.27144  22554592.1464   22554591.6184
  -5179560.422 4  -4036020.874 4  23259708.506    23259709.082
  -1658042.99644  -1291981.03444  24777283.4304   24777285.2044
 -20830473.07844 -16231534.15844  22156520.1954   22156520.5054
 -19283141.22244 -15025820.98444  22900034.3544   22900033.8614
  -9286037.29044  -7235869.58144  20606433.4364   20606432.8594
 -22745498.78344 -17723767.37544  23947390.2284   23947389.9744
 96  3  7  7 39  0.0000000  0  8G17G 6G28G 1G21G26G23G22
  15108273.34044  11772683.34844  20625222.8054   20625222.3674
  36912876.69944  28763278.77544  22573698.2834   22573697.8954
  -5273515.907 4  -4109232.944 4  23241830.172    23241830.428
  -1769025.16544  -1378460.59744  24756163.7934   24756161.3194
 -20890371.08144 -16278207.92044  22145121.8344   22145121.4374
 -19218108.14644 -14975145.86344  22912409.3134   22912408.7264
  -9280578.57044  -7231616.02544  20607472.2154   20607471.7674
 -22695313.97344 -17684662.32744  23956940.4694   23956939.9944
 96  3  7  7 39 30.0000000  0  8G17G 6G28G 1G21G26G23G22
  15116332.66744  11778963.34544  20626756.5214   20626756.1394
  37013560.19144  28841733.42744  22592857.4484   22592856.8774
  -5367199.882 4  -4182233.428 4  23224002.526    23224003.013
  -1880057.66844  -1464979.40844  24735035.9854   24735039.0824
 -20949982.81644 -16324658.61644  22133778.2024   22133778.4534
 -19152613.30544 -14924110.93744  22924872.6214   22924873.1704
  -9274779.72444  -7227097.44044  20608575.4634   20608575.1324
 -22644829.90344 -17645324.09844  23966547.4474   23966546.9394
 96  3  7  7 40  0.0000000  0  8G17G 6G28G 1G21G26G23G22
  15124673.29844  11785462.54444  20628343.6864   20628343.3364
  37114528.97744  28920410.38844  22612071.1214   22612070.6534
  -5460613.481 4  -4255023.248 4  23206225.180    23206226.702
  -1991131.92144  -1551530.74944  24713900.0394
 -21009317.52544 -16370893.44244  22122486.8444   22122486.8384
 -19086673.99744 -14872729.66244  22937421.1834   22937419.5644
  -9268656.82944  -7222326.34944  20609740.8574   20609740.1674
 -22594036.07644 -17605744.50144  23976213.5094   23976213.6104
 96  3  7  7 40 30.0000000  0  8G17G 6G28G 1G21G26G23G22
  15133298.12744  11792183.19144  20629984.7884   20629984.4274
  37215815.07544  28999334.59244  22631345.2964   22631345.6144
  -5553744.460 4  -4327592.841 4  23188502.969    23188504.099
  -2102210.92244  -1638085.86844  24692760.9074   24692762.2804
 -21068370.46244 -16416908.71244  22111249.7114   22111250.2714
 -19020278.00244 -14820992.52044  22950055.9304   22950054.3464
  -9262214.74944  -7217306.53944  20610966.4284   20610965.8834
 -22542918.71544 -17565912.77744  23985940.8954   23985940.8494
 96  3  7  7 41  0.0000000  0  8G17G 6G28G 1G21G26G23G22
  15142193.97644  11799115.02844  20631677.6714   20631677.4794
  37317416.08044  29078504.18344  22650679.1954   22650678.8384
  -5646591.515 4  -4399941.193 4  23170835.698    23170836.421
  -2213269.74044  -1724625.18844  24671627.8184   24671627.6074
 -21127153.98944 -16462714.05544  22100063.4924   22100063.6764
 -18953431.84744 -14768904.59944  22962776.2944   22962775.6264
  -9255456.62744  -7212040.46544  20612252.8384   20612252.3524
 -22491484.54044 -17525834.22444  23995728.0234   23995729.3494
 96  3  7  7 41 30.0000000  0  8G17G 6G28G 1G21G26G23G22
  15151327.19944  11806231.82344  20633415.5614   20633415.1044
  37419317.31744  29157907.73044  22670071.2354   22670070.7454
  -5739159.228 4  -4472071.879 4  23153220.629    23153220.972
  -2324306.69244  -1811147.49744  24650499.2864   24650499.1034
 -21185678.77544 -16508317.77544  22088926.0394   22088926.1874
 -18886147.60044 -14716475.33144  22975579.7354   22975579.3984
  -9248390.16844  -7206534.13044  20613597.4464   20613596.8814
 -22439739.74144 -17485513.62344  24005575.4834   24005575.5584
 96  3  7  7 42  0.0000000  0  8G17G 6G28G 1G21G26G23G22
  15160681.97044  11813521.25544  20635195.8434   20635195.4744
  37521502.17144  29237532.24944  22689515.5754   22689515.1354
  -5831455.353 4  -4543990.938 4  23135657.065    23135657.578
  -2435356.22344  -1897679.64244  24629366.5484
 -21243952.69144 -16553726.02144  22077837.3084   22077837.4574
 -18818427.40044 -14663706.35844  22988467.1804   22988466.0824
  -9241019.46644  -7200790.72244  20614999.9594   20614999.3034
 -22387705.48644 -17444967.46844  24015476.3434   24015475.7494
 96  3  7  7 42 30.0000000  0  8G17G 6G28G 1G21G26G23G22
  15170247.17744  11820974.66444  20637015.9344   20637015.7774
  37623950.14144  29317361.81244  22709011.1274   22709010.5544
  -5923491.215 4  -4615707.203 4  23118143.184    23118144.278
  -2546442.43044  -1984240.30044  24608227.0844   24608229.6434
 -21301992.98044 -16598952.20844  22066792.8284   22066792.7354
 -18750281.62544 -14610605.75944  23001434.3754   23001432.6324
  -9233340.74344  -7194807.29744  20616461.0814   20616460.5494
 -22335409.22244 -17404217.15744  24025426.8934   24025429.3874
 96  3  7  7 43  0.0000000  0  8G17G 6G28G 1G21G26G23G22
  15180022.99244  11828592.18244  20638876.2744   20638875.7624
  37726645.83244  29397384.40344  22728553.5714   22728552.5514
  -6015261.896 4  -4687216.830 4  23100680.211    23100680.922
  -2657574.01344  -2070836.34544  24587079.0334   24587079.3034
 -21359805.69244 -16644001.06444  22055790.8504   22055790.6124
 -18681707.39644 -14557171.28744  23014483.6534   23014482.2034
  -9225342.42944  -7188574.83844  20617982.9874   20617982.4704
 -22282857.14344 -17363267.50444  24035428.8854   24035428.0204
 96  3  7  7 43 30.0000000  0  8G17G 6G28G 1G21G26G23G22
  15190027.35844  11836387.79044  20640780.0594   20640779.6124
  37829599.59444  29477608.08544  22748145.3644   22748144.8174
  -6106755.444 4  -4758510.480 4  23083269.495    23083270.322
  -2768757.61944  -2157472.99844  24565920.7424   24565921.6084
 -21417384.57044 -16688867.71544  22044834.0274   22044833.8134
 -18612700.38444 -14503399.60544  23027614.9384   23027614.2424
  -9217024.27344  -7182093.14944  20619566.0184   20619565.5534
 -22230045.53944 -17322115.61444  24045478.1574   24045477.6874
 96  3  7  7 44  0.0000000  0  8G17G 6G28G 1G21G26G23G22
  15200271.84444  11844370.50144  20642729.5864   20642729.1004
  37932806.18244  29558028.78144  22767784.9014   22767784.8294
  -6197974.699 4  -4829590.399 4  23065910.872    23065912.152
  -2879999.68444  -2244155.14644  24544754.3984   24544756.4704
 -21474728.80344 -16733551.51044  22033921.9794   22033921.5754
 -18543267.08144 -14449295.74344  23040827.8814   23040826.3994
  -9208389.02244  -7175364.37544  20621209.1564   20621208.6994
 -22176977.87944 -17280764.17844  24055576.7324   24055575.9164
 96  3  7  7 44 30.0000000  0  8G17G 6G28G 1G21G26G23G22
  15210784.79244  11852562.40644  20644730.0314   20644729.5644
  38036269.27344  29638649.33044  22787473.1804   22787472.6914
  -6288901.467 4  -4900442.431 4  23048607.692    23048609.287
  -2991264.37944  -2330854.99544  24523581.0054   24523581.0044
 -21531816.59444 -16778035.48844  22023058.3774   22023058.5704
 -18473388.92644 -14394845.21644  23054125.6434   23054123.9374
  -9199430.75744  -7168383.90144  20622913.8564   20622913.2164
 -22123640.52644 -17239202.62444  24065726.9114   24065724.7894
 96  3  7  7 45  0.0000000  0  8G17G 6G28G 1G21G26G23G22
  15221564.23344  11860961.96544  20646781.3504   20646780.8614
  38139977.84844  29719461.19444  22807208.1134   22807207.7664
  -6379541.080 4  -4971070.700 4  23031360.159    23031360.407
  -3102558.02244  -2417577.32344  24502401.3694   24502402.6954
 -21588646.81644 -16822318.76244  22012244.4414   22012244.0614
 -18403079.94144 -14340058.99444  23067504.8284   23067503.3324
  -9190167.74644  -7161165.95544  20624676.7464   20624676.1924
 -22070045.23844 -17197440.07644  24075925.0964   24075923.8274
 96  3  7  7 45 30.0000000  0  8G17G 6G28G 1G21G26G23G22
  15232631.10344  11869585.49544  20648887.1234   20648886.7944
  38243931.54744  29800464.04844  22826989.5064   22826989.7284
  -6469882.851 4  -5041466.852 4  23014169.126    23014169.274
  -3213873.61444  -2504316.80944  24481220.3344   24481217.0824
 -21645194.79844 -16866382.11144  22001483.1954   22001483.0954
 -18332326.73944 -14284926.61044  23080968.5394   23080967.4034
  -9180598.86744  -7153709.67644  20626497.5854   20626497.1154
 -22016184.90744 -17155471.01544  24086173.3754   24086175.5794
 96  3  7  7 46  0.0000000  0  8G17G 6G28G 1G21G26G23G22
  15243972.69544  11878423.09644  20651045.5414   20651045.0154
  38348098.83944  29881633.32744  22846812.2334   22846812.5014
  -6559938.417 4  -5111640.018 4  22997031.515    22997032.383
  -3325206.95544  -2591070.10244  24460034.6634   24460034.5544
 -21701469.69744 -16910232.67044  21990774.6754   21990774.2954
 -18261137.74444 -14229454.67344  23094515.2504   23094513.9754
  -9170728.88444  -7146018.77244  20628375.7444   20628375.1864
 -21962076.17044 -17113308.40344  24096471.7844   24096473.2484
 96  3  7  7 46 30.0000000  0  8G17G 6G28G 1G21G26G23G22
  15255593.82344  11887478.51944  20653256.7954   20653256.3604
  38452478.45444  29962968.06544  22866675.5124   22866675.8954
  -6649691.163 4  -5181577.207 4  22979951.977    22979952.735
  -3436534.05244  -2677818.53244  24438849.5654   24438849.2344
 -21757468.71144 -16953868.25844  21980118.2874   21980118.6394
 -18189505.94144 -14173637.69844  23108146.5454   23108144.6834
  -9160538.82644  -7138078.45744  20630314.8694   20630314.3244
 -21907710.14944 -17070945.31244  24106816.7654   24106816.0054
 96  3  7  7 47  0.0000000  0  8G17G 6G28G 1G21G26G23G22
  15267475.70444  11896737.12444  20655517.9214   20655517.3584
  38557075.14644  30044471.98344  22886579.4134   22886578.6214
  -6739139.983 4  -5251277.552 4  22962930.511    22962931.075
  -3547849.93944  -2764558.23144  24417667.1154   24417666.6884
 -21813195.58444 -16997291.78244  21969513.9744   21969514.3464
 -18117445.04844 -14117486.35444  23121859.0854   23121857.5404
  -9150024.08944  -7129885.14544  20632315.4894   20632314.9704
 -21853089.49444 -17028383.77044  24117211.5924   24117211.0574
 96  3  7  7 47 30.0000000  0  8G17G 6G28G 1G21G26G23G22
  15279622.07844  11906201.82944  20657829.3094   20657828.9254
  38661900.84344  30126154.33544  22906527.2904   22906527.7104
  -6828269.340 4  -5320728.990 4  22945969.713    22945970.472
  -3659130.42144  -2851270.36044  24396492.0554   24396490.5284
 -21868639.79744 -17040495.05344  21958963.4144   21958963.6284
 -18044944.45044 -14060992.39944  23135655.5054   23135653.4414
  -9139168.95344  -7121426.59644  20634381.3664   20634380.7374
 -21798212.48744 -16985622.43644  24127653.8064   24127653.4834
 96  3  7  7 48  0.0000000  0  8G17G 6G28G 1G21G26G23G22
  15292033.73344  11915873.25244  20660191.1964   20660190.8034
  38766971.76644  30208027.77044  22926521.0284   22926521.3704
  -6917069.191 4  -5389923.658 4  22929071.295    22929072.357
  -3770364.12844  -2937945.99244  24375324.4984   24375322.9734
 -21923805.05744 -17083480.96744  21948465.7014   21948466.1124
 -17972005.96944 -14004157.22544  23149535.7104   23149534.3554
  -9127965.14744  -7112696.35444  20636513.4224   20636512.7104
 -21743078.57244 -16942660.94744  24138144.2704   24138144.8944
 96  3  7  7 48 30.0000000  0  8G17G 6G28G 1G21G26G23G22
  15304694.84144  11925739.05344  20662600.6684   20662600.2924
  38872288.37644  30290092.64344  22946562.2504   22946562.4594
  -7005548.945 4  -5458868.900 4  22912234.051    22912235.470
  -3881572.88044  -3024602.21044  24354161.2834   24354159.5624
 -21978701.60744 -17126257.49044  21938019.6874   21938019.3164
 -17898650.63844 -13946997.23544  23163494.6204   23163493.2174
  -9116444.08544  -7103718.89844  20638705.6534   20638704.9094
 -21687698.02044 -16899507.28944  24148684.0494   24148684.1034
 96  3  7  7 49  0.0000000  0  8G17G 6G28G 1G21G26G23G22
  15317612.37444  11935804.66844  20665058.6434   20665058.2434
  38977856.42544  30372353.43944  22966650.7924   22966649.9514
  -7093707.248 4  -5527563.673 4  22895458.065    22895459.712
  -3992762.70644  -3111243.66144  24333002.0294   24333002.5064
 -22033318.94744 -17168816.44944  21927626.1954   21927625.7984
 -17824882.34844 -13889515.44444  23177532.2014   23177530.6454
  -9104621.64344  -7094506.59744  20640955.6014   20640954.9114
 -21632070.84644 -16856161.42244  24159269.9004   24159270.8344
 96  3  7  7 49 30.0000000  0  8G17G 6G28G 1G21G26G23G22
  15330798.19244  11946079.33144  20667567.7994   20667567.3734
  39083663.12944  30454800.23244  22986785.2414   22986784.6984
  -7181545.238 4  -5596008.834 4  22878743.178    22878744.689
  -4103943.61944  -3197878.17344  24311843.9604   24311843.9974
 -22087663.19144 -17211162.61344  21917284.5964   21917284.3444
 -17750700.09044 -13831711.08344  23191648.0104   23191647.8064
  -9092512.16944  -7085070.63344  20643259.9344   20643259.4004
 -21576193.03344 -16812620.26944  24169902.2494   24169901.5784
 96  3  7  7 50  0.0000000  0  8G17G 6G28G 1G21G26G23G22
  15344250.01344  11956561.26644  20670127.5934   20670127.1914
  39189700.57544  30537426.81244  23006963.4794   23006963.1774
  -7269064.515 4  -5664205.660 4  22862088.726    22862090.315
  -4215112.29944  -3284503.11444  24290690.5904   24290691.9094
 -22141740.46344 -17253300.74044  21906993.7514   21906994.0644
 -17676117.75944 -13773594.97544  23205841.2514   23205840.3704
  -9080137.31444  -7075427.87744  20645614.7984   20645614.1304
 -21520050.56544 -16768872.91844  24180585.9644   24180586.9624
 96  3  7  7 50 30.0000000  0  8G17G 6G28G 1G21G26G23G22
  15357974.01544  11967255.29344  20672739.1454   20672738.6254
  39295952.05744  30620220.16844  23027183.0354   23027182.3524
  -7356261.180 4  -5732151.094 4  22845495.888    22845496.977
  -4326257.09244  -3371109.49944  24269541.2884   24269538.6264
 -22195554.49244 -17295233.74444  21896753.5354   21896753.3394
 -17601145.27744 -13715174.84244  23220107.2444   23220105.6404
  -9067496.53044  -7065577.90044  20648020.1594   20648019.5974
 -21463633.03644 -16724911.19944  24191321.9764   24191321.5494
 96  3  7  7 51  0.0000000  0  8G17G 6G28G 1G21G26G23G22
  15371973.43144  11978163.93044  20675403.1324   20675402.7424
  39402411.45244  30703175.53444  23047441.2574   23047440.2424
  -7443134.202 4  -5799844.349 4  22828963.997    22828965.983
  -4437382.40644  -3457700.70544  24248394.8684   24248394.5424
 -22249118.60444 -17336972.01044  21886560.5984   21886560.6744
 -17525782.35744 -13656450.50344  23234449.0704   23234448.7534
  -9054571.43344  -7055506.38144  20650479.6994   20650479.1724
 -21406954.79644 -16680746.33644  24202107.7984   24202107.2004
 96  3  7  7 51 30.0000000  0  8G17G 6G28G 1G21G26G23G22
  15386254.31744  11989291.89244  20678120.8094   20678120.3934
  39509086.19744  30786298.68844  23067740.9924   23067740.4154
  -7529676.836 4  -5867280.178 4  22812495.912    22812497.605
  -4548484.13044  -3544273.46944  24227252.2014   24227251.7914
 -22302443.28344 -17378523.70244  21876413.3684   21876413.3904
 -17450019.75744 -13597414.73144  23248865.9344   23248864.7344
  -9041352.24844  -7045205.70044  20652995.4254   20652994.7354
 -21350021.04444 -16636382.38144  24212940.8604   24212939.7744
 96  3  7  7 52  0.0000000  0  8G17G 6G28G 1G21G26G23G22
  15400809.99144  12000633.97744  20680890.6554   20680890.1004
  39615982.75244  30869594.70144  23088083.4024   23088083.3524
  -7615889.165 4  -5934458.602 4  22796090.547    22796091.337
  -4659566.79144  -3630831.42044  24206112.3504   24206112.8584
 -22355531.91744 -17419891.46644  21866310.4224   21866310.8164
 -17373862.83744 -13538071.67244  23263358.6054   23263356.6084
  -9027828.72244  -7034667.86344  20655568.5424   20655567.9374
 -21292857.57144 -16591839.41744  24223818.7844   24223818.4794
 96  3  7  7 52 30.0000000  0  8G17G 6G28G 1G21G26G23G22
  15415634.79944  12012185.77144  20683711.7544   20683711.1794
  39723108.53244  30953069.33244  23108468.3184   23108466.4574
  -7701773.317 4  -6001381.316 4  22779746.739    22779748.347
  -4770645.04244  -3717385.90044  24184975.1914   24184976.5574
 -22408389.27744 -17461079.01044  21856251.9674   21856252.0554
 -17297306.92044 -13478417.70244  23277926.0804   23277925.4414
  -9013987.74244  -7023882.66744  20658202.3124   20658201.6494
 -21235486.88944 -16547134.99644  24234736.9204   24234736.6994
 96  3  7  7 53  0.0000000  0  8G17G 6G28G 1G21G26G23G22
  15430719.85544  12023940.36244  20686582.3704   20686581.8104
  39830486.56344  31036740.53444  23128901.6554   23128901.3374
  -7787328.157 4  -6068047.427 4  22763466.176    22763467.522
  -4881716.43644  -3803935.05944  24163840.9854   24163839.0014
 -22461005.34044 -17502078.53444  21846239.9554   21846239.9304
 -17220340.70344 -13418444.05344  23292572.6154   23292571.9584
  -8999828.97244  -7012849.84344  20660896.7874   20660896.1424
 -21177921.80044 -16502279.08144  24245691.2394   24245689.3234
 96  3  7  7 53 30.0000000  0  8G17G 6G28G 1G21G26G23G22
  15446061.71444  12035895.05644  20689501.7284   20689501.3394
  39938114.35344  31120606.32944  23149382.0474   23149381.5714
  -7872551.581 4  -6134455.286 4  22747248.992    22747249.770
  -4992765.10744  -3890466.54644  24142708.5544   24142708.6274
 -22513367.31244 -17542880.06444  21836275.8094   21836275.8884
 -17142971.77344 -13358156.57444  23307295.5344   23307293.2414
  -8985373.05544  -7001585.47244  20663647.5334   20663647.0404
 -21120154.04544 -16457265.24844  24256685.7614   24256685.1564
 96  3  7  7 54  0.0000000  0  8G17G 6G28G 1G21G26G23G22
  15461657.78444  12048047.83044  20692469.7924   20692469.1754
  40045993.84644  31204668.26644  23169910.7784   23169911.1294
  -7957434.987 4  -6200598.195 4  22731096.225    22731097.283
  -5103776.78944  -3976969.16044  24121583.7324   24121582.1554
 -22565460.86544 -17583472.44044  21826362.6154   21826362.9334
 -17065200.76044 -13297555.79144  23322094.9724   23322092.9254
  -8970616.09644  -6990086.52744  20666455.7304   20666455.3414
 -21062177.43744 -16412088.66344  24267717.3834   24267717.0354
 96  3  7  7 54 30.0000000  0  8G17G 6G28G 1G21G26G23G22
  15477496.91944  12060390.01144  20695483.8104   20695483.3494
  40154099.98744  31288906.82544  23190482.4764   23190482.6204
  -8041984.693 4  -6266481.089 4  22715006.813    22715008.263
  -5214749.97744  -4063441.81844  24100465.4984   24100463.6634
 -22617288.11144 -17623857.30144  21816500.1204   21816500.3404
 -16987037.77444 -13236649.55744  23336968.6724   23336966.9874
  -8955572.23944  -6978364.02544  20669318.5744   20669318.0974
 -21003992.94344 -16366750.09644  24278789.3374   24278788.5354
 96  3  7  7 55  0.0000000  0  8G17G 6G28G 1G21G26G23G22
  15493586.23444  12072927.14244  20698545.6144   20698545.1754
  40262398.92444  31373295.61644  23211092.4204   23211092.3684
  -8126204.579 4  -6332106.982 4  22698980.009    22698981.792
  -5325690.03344  -4149888.61744  24079355.0174   24079354.0294
 -22668846.50344 -17664032.66144  21806688.7594   21806688.9564
 -16908498.91644 -13175450.47144  23351914.1504   23351913.3684
  -8940260.63544  -6966432.89144  20672232.0814   20672231.6194
 -20945604.89544 -16321252.92544  24289898.8204   24289896.3994
 96  3  7  7 55 30.0000000  0  8G17G 6G28G 1G21G26G23G22
  15509935.00444  12085666.44244  20701656.3184   20701655.9784
  40370864.01244  31457813.88244  23231731.7694   23231731.2754
  -8210084.401 4  -6397467.890 4  22683018.759    22683019.859
  -5436590.68844  -4236304.75244  24058251.2324   24058251.6504
 -22720135.71144 -17703998.26644  21796928.9324   21796928.9524
 -16829582.92244 -13113957.49544  23366931.4524   23366930.0284
  -8924681.38444  -6954293.20544  20675196.6694   20675196.2104
 -20887016.07144 -16275599.29544  24301047.1314   24301047.9554
 96  3  7  7 56  0.0000000  0  8G17G 6G28G 1G21G26G23G22
  15526549.94844  12098613.14944  20704818.2674   20704817.6234
  40479484.37844  31542453.16244  23252401.9684   23252400.2694
  -8293610.406 4  -6462553.077 4  22667124.629    22667125.557
  -5547439.96144  -4322680.81344  24037157.1484   24037157.5674
 -22771145.63244 -17743746.24144  21787222.0744   21787221.9694
 -16750279.89944 -13052162.93744  23382022.3074   23382019.9854
  -8908808.89144  -6941925.01744  20678217.4334   20678216.8124
 -20828220.46044 -16229784.52044  24312237.3564   24312236.1884
 96  3  7  7 56 30.0000000  0  8G17G 6G28G 1G21G26G23G22
  15543442.17344  12111775.92044  20708032.8424   20708032.3864
  40588247.02844  31627203.28844  23273098.7934   23273097.2294
  -8376775.563 4  -6527357.090 4  22651298.878    22651299.735
  -5658239.80544  -4409018.39844  24016072.7524   24016074.8534
 -22821871.87244 -17783273.15944  21777569.4504   21777569.1694
 -16670595.50244 -12990071.20444  23397184.9594   23397183.2004
  -8892651.25144  -6929334.63344  20681291.9514   20681291.3034
 -20769219.01744 -16183809.34644  24323464.0884   24323466.2924
 96  3  7  7 57  0.0000000  0  8G17G 6G28G 1G21G26G23G22
  15560610.63144  12125153.93044  20711299.7104   20711299.3424
  40697149.73344  31712062.55144  23293822.3704   23293821.3484
  -8459585.222 4  -6591884.097 4  22635540.411    22635541.461
  -5768998.89344  -4495324.20744  23994995.6714   23994994.7504
 -22872337.41944 -17822596.94744  21767965.9924   21767966.0184
 -16590546.41644 -12927695.29044  23412418.7004   23412416.6334
  -8876232.46844  -6916540.76844  20684416.3664   20684415.8054
 -20710026.90244 -16137685.62444  24334728.3994   24334727.4704
 96  3  7  7 57 30.0000000  0  8G17G 6G28G 1G21G26G23G22
  15578059.15044  12138750.17044  20714620.0344   20714619.5994
  40806207.48844  31797042.64744  23314575.1804   23314573.9654
  -8542026.525 4  -6656124.087 4  22619852.164    22619853.581
  -5879712.10044  -4581594.25444  23973927.7274   23973930.6234
 -22922545.74644 -17861720.30744  21758411.6244   21758411.5814
 -16510128.85344 -12865032.25344  23427721.9614   23427721.5364
  -8859529.93944  -6903525.80044  20687594.7874   20687594.0634
 -20650644.19244 -16091413.35844  24346027.0884   24346030.2594
 96  3  7  7 58  0.0000000  0  8G17G 6G28G 1G21G26G23G22
  15595800.01344  12152574.21444  20717995.9654   20717995.4534
  40915453.28844  31882169.27644  23335362.3504   23335362.0294
  -8624089.869 4  -6720069.556 4  22604236.047    22604237.320
  -5990374.43544  -4667824.65844  23952869.7934   23952870.2264
 -22972492.46244 -17900639.81144  21748907.1434   21748906.9994
 -16429352.37944 -12802089.56444  23443092.6384   23443090.7174
  -8842536.63644  -6890284.25844  20690828.3804   20690827.8094
 -20591055.92344 -16044980.95644  24357367.6974   24357367.8024
 96  3  7  7 58 30.0000000  0  8G17G 6G28G 1G21G26G23G22
  15613847.64244  12166637.29444  20721430.5254   20721429.9964
  41024917.68344  31967466.23544  23356193.2114   23356193.1174
  -8705770.336 4  -6783716.672 4  22588692.856    22588693.985
  -6100977.29644  -4754008.72844  23931822.5264   23931825.4454
 -23022187.05744 -17939362.86044  21739450.3744   21739450.4444
 -16348209.06044 -12738861.02344  23458533.8014   23458533.6694
  -8825261.94544  -6876823.46044  20694115.5534   20694114.9164
 -20531259.23044 -15998386.12644  24368747.6494   24368748.0244
 96  3  7  7 59  0.0000000  0  8G17G 6G28G 1G21G26G23G22
  15632189.94444  12180929.98944  20724920.8154   20724920.3104
  41134593.08144  32052927.60744  23377063.3364   23377061.8144
  -8787074.965 4  -6847070.922 4  22573220.914    22573222.386
  -6211514.13544  -4840141.34944  23910787.6224   23910788.2154
 -23071639.80744 -17977897.46344  21730039.5764   21730039.4294
 -16266706.47844 -12675352.49244  23474043.2474   23474041.6104
  -8807695.48144  -6863135.30344  20697458.5454   20697457.7274
 -20471255.68244 -15951630.09944  24380166.3384   24380164.8604
 96  3  7  7 59 30.0000000  0  8G17G 6G28G 1G21G26G23G22
  15650812.51944  12195441.07844  20728464.5974   20728464.1634
  41244473.17144  32138548.49044  23397973.8304   23397972.5734
  -8868002.193 4  -6910131.100 4  22557820.632    22557822.278
  -6321979.81644  -4926218.48044  23889766.5024   23889766.1924
 -23120843.63444 -18016238.10044  21720676.1734   21720676.4944
 -16184844.10444 -12611563.61344  23489621.1064   23489619.3644
  -8789824.55044  -6849209.89944  20700859.0394   20700858.3934
 -20411035.52144 -15904705.29944  24391625.6114   24391623.4684
 96  3  7  8  0  0.0000000  0  8G17G 6G28G 1G21G26G23G22
  15669707.50344  12210164.43744  20732060.2824   20732060.0204
  41354553.33444  32224325.25844  23418921.4024   23418921.9994
  -8948556.314 4  -6972900.550 4  22542491.857    22542493.273
  -6432352.87544  -5012223.46444  23868764.2474   23868763.4544
 -23169797.65644 -18054384.08244  21711361.0644   21711361.0604
 -16102624.83144 -12547496.65844  23505266.7594   23505266.2424
  -8771677.28644  -6835069.17444  20704312.5184   20704311.9084
 -20350591.06244 -15857605.68744  24403126.9034   24403128.7544
 96  3  7  8  0 30.0000000  0  8G17G 6G28G 1G21G26G23G22
  15688882.48744  12225105.97844  20735709.2294   20735708.8034
  41464817.04644  32310245.05244  23439903.6994   23439903.3774
  -9028733.162 4  -7035376.018 4  22527235.118    22527236.331
  -6542626.99744  -5098151.35844  23847780.8474   23847779.3654
 -23218489.31544 -18092325.62044  21702095.2924   21702095.2364
 -16020027.89044 -12483135.41744  23520984.0384   23520983.4584
  -8753250.94144  -6820710.98244  20707818.9744   20707818.2314
 -20289935.56344 -15810341.66444  24414668.2084   24414669.5694
 96  3  7  8  1  0.0000000  0  8G17G 6G28G 1G21G26G23G22
  15708327.76944  12240258.14444  20739409.4054   20739408.9924
  41575248.09944  32396295.20844  23460918.2674   23460916.6624
  -9108534.515 4  -7097558.896 4  22512049.273    22512050.572
  -6652822.73844  -5184018.13644  23826809.2644   23826808.2114
 -23266912.10644 -18130057.64844  21692880.9154   21692880.7104
 -15937067.75744 -12418491.15744  23536770.4764   23536769.8744
  -8734544.08244  -6806134.21544  20711378.6254   20711377.9874
 -20229094.98644 -15762933.43044  24426244.6574   24426246.1714
 96  3  7  8  1 30.0000000  0  8G17G 6G28G 1G21G26G23G22
  15728039.61044  12255618.01944  20743160.5074   20743160.1364
  41685847.54844  32482476.61244  23481964.4084   23481963.4654
  -9187965.239 4  -7159452.962 4  22496934.312    22496935.209
  -6762949.80344  -5269831.41544  23805853.1424   23805852.5884
 -23315073.04744 -18167585.63444  21683716.2114   21683716.0164
 -15853748.00644 -12353566.68844  23552625.8424   23552624.7264
  -8715578.50144  -6791355.84844  20714987.7104   20714986.8874
 -20168096.65144 -15715402.26344  24437854.8914   24437853.8104
 96  3  7  8  2  0.0000000  0  8G17G 6G28G 1G21G26G23G22
  15748039.30444  12271202.19444  20746966.2214   20746965.6004
  41796623.33944  32568795.40044  23503044.9514   23503043.5054
  -9267017.419 4  -7221052.061 4  22481890.998    22481892.225
  -6872997.99344  -5355583.22344  23784912.0264   23784910.7124
 -23362966.31144 -18204905.04044  21674602.0904   21674602.1474
 -15770061.45544 -12288356.36844  23568550.3044   23568550.0304
  -8696358.39244  -6776379.14244  20718645.0944   20718644.5324
 -20106954.16544 -15667758.76244  24449490.0584   24449491.0294
 96  3  7  8  2 30.0000000  0  8G17G 6G28G 1G21G26G23G22
  15768331.97744  12287014.66144  20750827.8544   20750827.4024
  41907573.60044  32655250.15844  23524157.6384   23524155.7164
  -9345683.782 4  -7282350.512 4  22466921.530    22466922.525
  -6982980.17544  -5441283.59444  23763982.3464   23763982.7504
 -23410592.88744 -18242016.63944  21665538.9834   21665538.7864
 -15686011.68844 -12222863.05144  23584545.6104   23584545.1304
  -8676865.82144  -6761190.13544  20722354.3874   20722353.9114
 -20045679.90344 -15620012.55944  24461150.2704   24461151.8514
 96  3  7  8  3  0.0000000  0  8G17G 6G28G 1G21G26G23G22
  15788897.15044  12303039.46944  20754741.2354   20754740.7964
  42018674.03044  32741821.92344  23545299.0074   23545299.4184
  -9423974.400 4  -7343356.180 4  22452022.818    22452024.621
  -7092905.19644  -5526939.40944  23743064.2924   23743064.0514
 -23457970.76644 -18278934.45144  21656523.2634   21656522.9314
 -15601630.12144 -12157111.17244  23600602.9774   23600602.4294
  -8657122.34444  -6745805.61644  20726111.7014   20726110.9014
 -19984273.75244 -15572163.60944  24472834.1234   24472831.9184
 96  3  7  8  3 30.0000000  0  8G17G 6G28G 1G21G26G23G22
  15809762.76844  12319298.39144  20758711.8024   20758711.3204
  42129930.38744  32828515.19544  23566470.4244   23566470.6344
  -9501867.482 4  -7404052.084 4  22437200.090    22437201.984
  -7202743.74544  -5612527.83644  23722163.2124   23722162.0844
 -23505090.89444 -18315651.41844  21647556.6444   21647556.4864
 -15516905.63244 -12091092.10544  23616725.5544   23616723.9474
  -8637127.72244  -6730225.39344  20729916.4114   20729915.7334
 -19922704.47044 -15524187.55644  24484550.0794   24484551.8154
 96  3  7  8  4  0.0000000  0  8G17G 6G28G 1G21G26G23G22
  15830919.84944  12335784.42844  20762738.0284   20762737.6994
  42241327.54044  32915318.16144  23587668.1844   23587668.5454
  -9579366.731 4  -7464441.104 4  22422452.505    22422454.244
  -7312501.08344  -5698052.95844  23701278.2364   23701278.8844
 -23551958.90844 -18352171.93044  21638638.0054   21638637.8074
 -15431863.07444 -12024825.17844  23632909.1924   23632905.9884
  -8616894.93944  -6714459.58944  20733766.5544   20733765.9994
 -19860969.51844 -15476082.38744  24496298.5554   24496296.0334
 96  3  7  8  4 30.0000000  0  8G28G17G 6G 1G21G26G23G22
  -9656464.017 4  -7524516.908 4  22407781.785    22407782.886
  15852362.12244  12352492.68744  20766818.1614   20766817.7004
  42352857.59844  33002224.66844  23608891.9974   23608892.1584
  -7422179.63444  -5783516.71144  23680405.6834   23680405.8954
 -23598568.28644 -18388490.90244  21629768.4174   21629768.4844
 -15346497.45844 -11958306.52744  23649153.4094   23649150.6544
  -8596419.46944  -6698504.67544  20737663.1284   20737662.4764
 -19799062.70644 -15427843.31344  24508080.3754   24508080.0084
 96  3  7  8  5  0.0000000  0  8G28G17G 6G 1G21G26G23G22
  -9733145.782 4  -7584268.929 4  22393189.683    22393190.584
  15874098.40644  12369430.04744  20770954.3324   20770953.9404
  42464530.09944  33089242.16344  23630143.4864   23630141.6724
  -7531768.46044  -5868910.52844  23659552.8694   23659552.3384
 -23644904.85544 -18424597.30344  21620951.0854   21620951.2694
 -15260798.58844 -11891528.20144  23665461.6784   23665461.6354
  -8575695.61144  -6682356.21244  20741606.6534   20741606.0654
 -19736978.52744 -15379466.02644  24519894.2694   24519893.1554
 96  3  7  8  5 30.0000000  0  8G28G17G 6G 1G21G26G23G22
  -9809419.863 4  -7643703.270 4  22378675.361    22378676.335
  15896116.88344  12386587.30244  20775144.3454   20775143.9374
  42576351.56044  33176375.76144  23651422.4424   23651420.2304
  -7641274.42344  -5954239.77444  23638714.0284   23638712.2764
 -23690990.51644 -18460508.19244  21612181.4144   21612180.9324
 -15174772.39844 -11824494.83544  23681831.8414   23681831.3544
  -8554730.81444  -6666020.00944  20745596.0514   20745595.4144
 -19674734.81944 -15330964.41044  24531737.5864   24531735.7904
 96  3  7  8  6  0.0000000  0  8G28G17G 6G 1G21G26G23G22
  -9885286.606 4  -7702820.200 4  22364238.677    22364239.519
  15918396.46044  12403948.00844  20779384.0264   20779383.6444
  42688326.68144  33263629.05444  23672730.3484   23672729.5854
  -7750692.14444  -6039500.28544  23617892.1974   23617891.9814
 -23736820.93244 -18496220.18844  21603460.0854   21603460.1104
 -15088409.99944 -11757199.48744  23698265.2644   23698263.2214
  -8533512.04644  -6649485.90444  20749633.9304   20749633.1844
 -19612338.70344 -15282344.06644  24543612.2084   24543609.4164
 96  3  7  8  6 30.0000000  0  8G28G17G 6G 1G21G26G23G22
  -9960746.787 4  -7761620.337 4  22349879.001    22349880.273
  15940940.89144  12421515.09844  20783674.0544   20783673.6434
  42800452.47244  33350999.78544  23694067.4024   23694065.8234
  -7860028.05944  -6124697.07644  23597086.9394   23597086.5714
 -23782402.70044 -18531738.43944  21594785.9954   21594785.9344
 -15001704.45444 -11689636.70144  23714764.4644   23714765.0154
  -8512029.55144  -6632746.29544  20753721.8594   20753721.0574
 -19549794.76444 -15233608.54844  24555513.4104   24555514.5944
 96  3  7  8  7  0.0000000  0  8G28G17G 6G 1G21G26G23G22
 -10035801.239 4  -7820104.320 4  22335596.504    22335598.065
  15963759.60844  12439295.91044  20788016.5084   20788016.3114
  42912735.41644  33438493.01544  23715434.2174   23715432.3184
  -7969266.98944  -6209818.27644  23576298.6864   23576297.4724
 -23827739.96344 -18567066.16644  21586158.7594   21586158.3384
 -14914676.45344 -11621822.68844  23731324.9364   23731324.2884
  -8490285.49344  -6615802.87544  20757859.5274   20757858.8954
 -19487101.88944 -15184756.93244  24567442.6874   24567443.1074
 96  3  7  8  7 30.0000000  0  8G28G17G 6G 1G21G26G23G22
 -10110454.684 4  -7878275.831 4  22321390.390    22321391.536
  15986854.66844  12457292.05844  20792411.3634   20792410.9704
  43025179.23344  33526111.58144  23736830.4574   23736826.9994
  -8078400.03544  -6294857.00044  23555531.0184   23555531.4614
 -23872839.21644 -18602208.43044  21577576.5564   21577576.1814
 -14827338.41944 -11553767.08144  23747945.6714   23747944.2374
  -8468284.00844  -6598658.86444  20762046.4224   20762045.5034
 -19424257.54844 -15135787.32844  24579400.9594   24579403.5994
 96  3  7  8  8  0.0000000  0  8G28G17G 6G 1G21G26G23G22
 -10184697.548 4  -7936127.403 4  22307262.250    22307263.474
  16010247.81544  12475520.48044  20796862.9904   20796862.6294
  43137780.71444  33613853.06144  23758257.7404   23758258.6634
  -8187419.89844  -6379807.51044  23534785.0354   23534784.1984
 -23917669.85844 -18637141.38844  21569045.3824   21569045.2404
 -14739690.56444 -11485470.03544  23764625.1294   23764622.4164
  -8446002.17244  -6581296.39244  20766286.4604   20766285.6424
 -19361262.65644 -15086700.46944  24591389.8114   24591389.4384
 96  3  7  8  8 30.0000000  0  7G28G 6G 1G21G17G26G23
 -10258538.358 4  -7993665.697 4  22293210.409    22293212.185
  43250518.75944  33701700.92444  23779711.7884   23779710.4074
  -8296331.82744  -6464673.94944  23514060.2034   23514058.9134
 -23962237.11644 -18671869.11044  21560564.4094   21560564.4164
  16033946.14344  12493986.70644  20801372.8054   20801372.3624
 -14651760.10044 -11416952.81344  23781357.4104   23781356.9234
  -8423457.36344  -6563729.01044  20770576.6974   20770575.7754
 96  3  7  8  9  0.0000000  0  7G28G 6G 1G17G21G26G23
 -10331973.207 4  -8050887.658 4  22279236.385    22279237.855
  43363390.04144  33789652.66144  23801190.8994   23801188.5614
  -8405137.88644  -6549457.88344  23493354.8584   23493354.8954
  16057944.64444  12512686.83244  20805939.3804   20805938.8554
 -24006530.72244 -18706383.59044  21552135.7464   21552135.3694
 -14563544.68644 -11348213.54744  23798144.7264   23798141.6654
  -8400650.83844  -6545957.68844  20774916.4294   20774915.6284
 96  3  7  8  9 30.0000000  0  7G 6G28G 1G21G17G26G23
  43476410.86144  33877720.86844  23822697.1834   23822695.9984
 -10404975.100 4  -8107772.238 4  22265344.739    22265346.081
  -8513831.48144  -6634154.17944  23472671.3584   23472671.2684
 -24050530.56844 -18740669.16644  21543762.9474   21543762.8224
  16082245.86244  12531622.84444  20810563.6744   20810563.2844
 -14475006.85344 -11279223.01844  23814992.8784   23814990.9034
  -8377564.27144  -6527968.15444  20779309.6374   20779309.0204
 96  3  7  8 10  0.0000000  0  7G 6G28G 1G21G17G26G23
  43589568.71344  33965895.88444  23844229.6634   23844231.3444
 -10477522.542 4  -8164302.706 4  22251539.364    22251540.899
  -8622390.38244  -6718745.54844  23452012.7134   23452013.1714
 -24094220.95744 -18774713.60244  21535449.0444   21535448.6624
  16106849.68344  12550794.65444  20815245.6014   20815245.2544
 -14386127.58044 -11209966.44444  23831906.2014   23831905.9054
  -8354195.92744  -6509759.05644  20783756.5554   20783755.8954
 96  3  7  8 10 30.0000000  0  7G 6G28G 1G21G26G17G23
  43702852.48444  34054168.99544  23865787.0534   23865787.2874
 -10549619.122 4  -8220481.863 4  22237819.584    22237821.419
  -8730819.73744  -6803235.95844  23431379.8814   23431380.4704
 -24137627.27044 -18808536.67944  21527188.9664   21527188.6004
 -14296906.68044 -11140443.63844  23848883.9114   23848882.5474
  16131736.68144  12570187.11544  20819981.2154   20819980.8394
  -8330586.04244  -6491361.74444  20788249.3444   20788248.6834
 96  3  7  8 11  0.0000000  0  7G 6G28G 1G21G17G26G23
  43816258.91444  34142537.65144  23887367.9154   23887367.7904
 -10621264.421 4  -8276309.363 4  22224186.150    22224187.537
  -8839118.78444  -6887624.84844  23410771.0734   23410771.8494
 -24180771.06344 -18842155.19644  21518979.0414   21518978.7524
  16156905.42044  12589799.11944  20824770.9014   20824770.4834
 -14207340.96644 -11070652.18244  23865927.0394   23865926.5954
  -8306737.24844  -6472778.26644  20792787.6734   20792786.7764
 96  3  7  8 11 30.0000000  0  7G 6G28G 1G21G26G17G23
  43929771.46744  34230988.99244  23908968.4714   23908967.0094
 -10692460.604 4  -8331786.900 4  22210638.058    22210639.606
  -8947267.46344  -6971896.56544  23390191.0924   23390190.7584
 -24223670.63344 -18875583.41144  21510815.3454   21510815.1534
 -14117453.16244 -11000609.72944  23883031.8524   23883032.4124
  16182368.37744  12609640.37944  20829616.2184   20829615.8884
  -8282668.56844  -6454023.44844  20797367.8444   20797367.1874
 96  3  7  8 12  0.0000000  0  7G 6G28G 1G21G17G26G23
  44043359.88944  34319499.46344  23930583.2424   23930582.5674
 -10763231.504 4  -8386933.062 4  22197171.140    22197172.166
  -9055274.94544  -7056058.28944  23369637.7654   23369637.5914
 -24266349.95144 -18908840.00244  21502693.7854   21502693.3334
  16208131.73044  12629715.71244  20834518.9574   20834518.5754
 -14027279.37044 -10930344.47544  23900191.9284   23900191.8534
  -8258390.24944  -6435105.27744  20801987.6744   20801987.0314
 96  3  7  8 12 30.0000000  0  7G 6G28G 1G21G26G17G23
  44157045.18944  34408085.39444  23952217.2874   23952215.4194
 -10833570.755 4  -8441742.865 4  22183786.035    22183786.842
  -9163152.67744  -7140118.90044  23349109.4734   23349108.9024
 -24308812.41444 -18941927.61444  21494613.5394   21494613.3794
 -13936821.57644 -10859857.86544  23917406.3044   23917403.9874
  16234216.94444  12650041.84644  20839482.8264   20839482.4634
  -8233867.82244  -6415996.89544  20806654.3294   20806653.7364
 96  3  7  8 13  0.0000000  0  7G 6G28G17G 1G21G26G23
  44270824.26744  34496744.39144  23973867.7884   23973867.3914
 -10903482.276 4  -8496219.371 4  22170482.061    22170483.180
  16260607.09144  12670605.59544  20844504.6674   20844504.1814
  -9270907.33744  -7224083.58444  23328604.9884   23328605.3834
 -24351060.65044 -18974848.30144  21486573.8634   21486573.6434
 -13846091.21044 -10789158.88544  23934671.0774   23934667.7814
  -8209077.35744  -6396679.64344  20811371.7214   20811371.0054
 96  3  7  8 13 30.0000000  0  7G17G 6G28G 1G21G26G23
  16287286.12544  12691394.45244  20849581.6724   20849581.1074
  44384702.45644  34585480.61044  23995539.4274   23995537.0154
 -10972961.252 4  -8550358.831 4  22157260.336    22157262.002
  -9378546.13844  -7307957.96144  23308122.2174   23308122.4404
 -24393077.98144 -19007589.06444  21478578.1184   21478577.6984
 -13755098.24344 -10718255.26444  23951985.2964   23951984.7994
  -8184013.13844  -6377149.08144  20816141.1034   20816140.5634
 96  3  7  8 14  0.0000000  0  8G17G 6G28G 1G21G26G23G31
  16314234.42944  12712393.13044  20854709.7544   20854709.1634
  44498694.97444  34674305.93744  24017231.0904   24017228.8964
 -11041997.890 4  -8604153.607 4  22144123.080    22144124.605
  -9486065.84444  -7391739.52044  23287661.4734   23287661.6584
 -24434842.21344 -19040132.60344  21470630.8264   21470630.6064
 -13663828.45844 -10647135.98744  23969354.9134   23969353.1284
  -8158661.35444  -6357394.44444  20820965.4504   20820964.9304
        -0.72054                  24923919.2564
 96  3  7  8 14 30.0000000  0  7G 6G28G 1G21G26G17G23
  44612812.55844  34763228.70844  24038947.0904   24038945.6504
 -11110575.126 4  -8657590.399 4  22131073.297    22131074.573
  -9593449.94844  -7475415.41644  23267226.8094   23267228.0964
 -24476332.26244 -19072462.50544  21462735.0764   21462734.7864
 -13572266.54144 -10575789.04544  23986778.8224   23986774.6284
  16341442.92844  12733594.55844  20859887.2784   20859886.7304
  -8133032.07244  -6337423.57744  20825842.6704   20825842.0514
 96  3  7  8 15  0.0000000  0  7G 6G28G 1G21G17G26G23
  44727040.55944  34852237.49644  24060683.8394   24060683.7704
 -11178697.412 4  -8710672.695 4  22118110.004    22118111.574
  -9700681.62744  -7558972.54544  23246821.5344   23246822.0184
 -24517539.97544 -19104572.40144  21454893.7594   21454893.5104
  16368904.85744  12754993.45844  20865112.9264   20865112.5434
 -13480415.41944 -10504216.75844  24004257.0784   24004255.4604
  -8107171.06244  -6317272.13844  20830763.9214   20830763.3084
 96  3  7  8 15 30.0000000  0  7G 6G28G 1G21G26G17G23
  44841387.49244  34941338.95344  24082443.3404   24082443.8684
 -11246342.875 4  -8763383.447 4  22105237.357    22105239.112
  -9807721.18244  -7642379.98344  23226451.7554   23226452.2054
 -24558450.16944 -19136450.46844  21447108.7074   21447108.7714
 -13388260.95844 -10432408.10644  24021792.7294   24021791.4024
  16396661.31144  12776621.86644  20870395.0534   20870394.4874
  -8081085.30344  -6296945.57444  20835727.8244   20835727.1354
 96  3  7  8 16  0.0000000  0  7G 6G28G 1G17G21G26G23
  44955830.09144  35030515.03344  24104221.8524   24104219.0164
 -11313526.918 4  -8815734.651 4  22092452.790    22092454.792
  -9914577.95844  -7725644.99644  23206118.0354   23206118.9354
  16424716.30444  12798482.89944  20875733.7224   20875733.3084
 -24599102.99644 -19168127.99344  21439372.8194   21439372.6584
 -13295808.19744 -10360366.99744  24039385.5274   24039385.1444
  -8054804.13144  -6276466.73744  20840728.9454   20840728.2174
 96  3  7  8 16 30.0000000  0  7G 6G28G 1G21G26G17G23
  45070363.50944  35119761.87944  24126017.4844
 -11380251.001 4  -8867727.428 4  22079756.053    22079757.406
 -10021264.88844  -7808777.64244  23185816.2904   23185816.7244
 -24639528.89544 -19199628.68344  21431680.0064   21431679.7544
 -13203063.57144 -10288098.48644  24057034.5954   24057035.1014
  16453093.81544  12820595.24044  20881133.6744   20881133.3404
  -8028339.03344  -6255844.57844  20845765.1104   20845764.4554
 96  3  7  8 17  0.0000000  0  7G 6G28G 1G21G17G26G23
  45184986.59344  35209078.60744  24147827.7594
 -11446521.244 4  -8919366.564 4  22067145.142    22067146.639
 -10127786.85844  -7891781.76544  23165546.2804   23165547.1034
 -24679752.69044 -19230971.89044  21424025.4144   21424025.2014
  16481799.20444  12842963.06944  20886596.0484   20886595.6684
 -13110046.88844 -10215617.92744  24074735.0404   24074735.2954
  -8001685.91144  -6235075.91044  20850837.0734   20850836.5104
 96  3  7  8 17 30.0000000  0  7G 6G28G 1G21G26G17G23
  45299696.30444                  24169657.9224
 -11512339.115 4  -8970653.218 4  22054620.332    22054621.648
 -10234162.30544  -7974671.69344  23145302.4704   23145302.9334
 -24719787.77644 -19262168.05744  21416407.3864   21416407.3744
 -13016778.17344 -10142941.02344  24092482.9914   24092480.2404
  16510825.05644  12865580.61144  20892119.6654   20892119.2714
  -7974827.44044  -6214147.23044  20855947.6894   20855947.2664
 96  3  7  8 18  0.0000000  0  7G17G 6G28G 1G21G26G23
  16540161.33644  12888440.05044  20897701.8804   20897701.6314
  45414481.87944  35387906.13144  24191499.8914
 -11577713.593 4  -9021594.370 4  22042179.988    22042181.087
 -10340419.70344  -8057469.64844  23125082.6414   23125082.2804
 -24759627.92844 -19293212.32344  21408825.9984   21408825.7894
 -12923274.75944 -10070081.22444  24110276.5764   24110274.9384
  -7947763.85344  -6193058.71844  20861097.9524   20861097.2524
 96  3  7  8 18 30.0000000  0  8G 6G17G28G 1G21G26G23G31
  45529333.83644                  24213354.5784
  16569794.72044  12911530.99244  20903341.2354   20903340.5194
 -11642644.445 4  -9072189.835 4  22029823.974    22029825.338
 -10446559.24344  -8140175.78044  23104886.4094   23104886.1014
 -24799232.39744 -19324072.93544  21401289.7244   21401289.3974
 -12829549.14444  -9997048.29844  24128112.8954   24128112.1184
  -7920484.67444  -6171802.20944  20866288.7764   20866287.6954
        -1.21954                  24753836.1324
 96  3  7  8 19  0.0000000  0  8G17G 6G28G 1G21G26G23G31
  16599707.49344  12934839.63844  20909033.1924   20909032.5814
  45644239.13944                  24235221.5644
 -11707131.008 4  -9122439.093 4  22017552.497    22017553.816
 -10552570.95444  -8222782.30644  23084712.3004   23084712.4414
 -24838575.08144 -19354729.55244  21393803.0094   21393802.9934
 -12735610.25444  -9923849.16644  24145988.6234   24145987.1894
  -7892986.83244  -6150375.31144  20871521.9784   20871521.3324
    -98331.28344                  24735128.3334
 96  3  7  8 19 30.0000000  0  7G 6G28G 1G21G26G17G23
  45759218.16744                  24257101.2044
 -11771145.419 4  -9172320.455 4  22005371.076    22005372.548
 -10658431.50744  -8305271.05044  23064567.3584   23064566.7904
 -24877620.23844 -19385154.33744  21386373.0484   21386372.4944
 -12641425.79044  -9850458.69944  24163911.4534   24163910.6034
  16629922.96044  12958384.15044  20914783.2384   20914782.7144
  -7865257.04644  -6128767.68644  20876798.4724   20876797.9244
 96  3  7  8 20  0.0000000  0  6G28G 1G21G26G17G23
 -11834682.207 4  -9221829.639 4  21993280.749    21993282.001
 -10764124.07944  -8387628.88344  23044455.3764   23044454.8004
 -24916365.27344 -19415345.25544  21378999.7414   21378999.3664
 -12546987.79044  -9776870.65744  24181882.5454   24181880.7914
  16660444.21144  12982166.93844  20920591.2834   20920590.8634
  -7837302.18544  -6106984.68044  20882118.1914   20882117.5354
 96  3  7  8 20 30.0000000  0  7G17G 9G28G 1G21G26G23
  16691282.21244  13006196.54144  20926459.3754   20926458.9784
        -0.16154         0.13954  24505272.5364   24505272.4564
 -11897712.501 4  -9270944.146 4  21981286.393    21981287.748
 -10869613.27344  -8469828.26844  23024381.1124   23024380.6184
 -24954810.32144 -19445302.42744  21371683.9004   21371683.4314
 -12452274.83344  -9703068.34544  24199905.6854   24199904.1414
  -7809096.46744  -6085006.19344  20887485.5504   20887484.8604
 96  3  7  8 21  0.0000000  0  8G28G17G 9G 1G21G26G23G31
 -11960229.179 4  -9319658.439 4  21969389.647    21969391.086
  16722441.09144  13030476.17944  20932388.8704   20932388.3754
    -48656.76844    -37914.06944  24496013.1064   24496015.3814
 -10974894.41344  -8551865.51544  23004346.4514   23004347.2524
 -24992989.89244 -19475052.73044  21364418.4604   21364418.4984
 -12357284.07444  -9629049.57144  24217981.0134   24217982.5714
  -7780643.69244  -6062835.19244  20892900.0214   20892898.9404
        -0.41054         0.53054  24660723.0954
 96  3  7  8 21 30.0000000  0  7G28G 9G 1G21G26G17G23
 -12022260.834 4  -9367994.789 4  21957585.276    21957586.788
    -97031.25944    -75608.42744  24486808.2384   24486808.6944
 -11079998.37444  -8633764.68344  22984345.4414   22984345.7024
 -25030947.60944 -19504630.16644  21357195.6294   21357195.1184
 -12262036.00544  -9554830.35244  24236107.5344   24236106.7564
  16753888.69744  13054980.79544  20938373.2684   20938372.8174
  -7751964.15744  -6040487.50244  20898357.4134   20898356.7114
 96  3  7  8 22  0.0000000  0  7G28G17G 9G 1G21G26G23
 -12083796.447 4  -9415944.609 4  21945875.406    21945877.017
  16785632.69944  13079716.37644  20944413.7684   20944413.7564
   -145103.57144   -113067.35144  24477658.8304   24477661.1164
 -11184911.12444  -8715514.87344  22964381.3654   22964382.5034
 -25068669.63344 -19534023.94444  21350017.4294   21350016.9234
 -12166525.47744  -9480406.55844  24254282.2894   24254281.1024
  -7723035.24444  -6017945.49544  20903862.6744   20903861.9864
 96  3  7  8 22 30.0000000  0  8G28G17G 9G 1G21G26G23G31
 -12144824.792 4  -9463499.161 4  21934262.335    21934263.684
  16817689.97844  13104696.07044  20950514.1074   20950513.9674
   -192856.63444   -150277.47844  24468572.0554   24468573.5824
 -11289627.78444  -8797112.25044  22944454.8934   22944454.8414
 -25106138.23244 -19563220.24744  21342887.3124   21342886.9774
 -12070739.48044  -9405768.09544  24272510.1214   24272507.6234
  -7693845.00244  -5995199.85544  20909417.5034   20909416.6524
        -0.88554                  24605373.9044
 96  3  7  8 23  0.0000000  0  8G28G17G 9G 1G21G26G23G31
 -12205364.617 4  -9510673.056 4  21922741.963    21922743.157
  16850056.62344  13129916.81644  20956673.4964   20956672.5414
   -240307.42444   -187252.08644  24459542.2074   24459541.5714
 -11394154.58044  -8878561.68144  22924563.6274   22924564.2234
 -25143350.44344 -19592216.77244  21335806.1384   21335805.6264
 -11974693.25744  -9330926.91344  24290786.1604   24290783.6034
  -7664422.89444  -5972273.53744  20915016.3734   20915015.4104
    -96531.33244                  24587004.8094
 96  3  7  8 23 30.0000000  0  8G28G17G 9G 1G21G26G23G31
 -12265430.013 4  -9557477.261 4  21911311.953    21911313.172
  16882730.44244  13155376.93044  20962890.7264   20962890.3134
   -287461.88644   -223995.77444  24450569.0214   24450568.6554
 -11498494.79044  -8959865.72644  22904708.6654   22904708.3184
 -25180299.89444 -19621008.54344  21328774.6184   21328774.2824
 -11878411.92844  -9255902.48144  24309108.0414   24309107.9104
  -7634804.74544  -5949194.45644  20920652.3644   20920651.6544
   -192864.89544                  24568675.0494
 96  3  7  8 24  0.0000000  0  8G28G17G 9G 1G21G26G23G31
 -12325006.252 4  -9603900.301 4  21899975.017    21899976.301
  16915736.74044  13181096.12344  20969171.8264   20969171.4614
   -334298.75444   -260491.95544  24441656.5404   24441656.1914
 -11602634.75644  -9041013.73344  22884891.6704   22884891.3374
 -25216968.35444 -19649581.36344  21321797.0284   21321796.6744
 -11781899.22544  -9180697.78644  24327474.5244   24327473.4114
  -7605004.37744  -5925973.39244  20926322.8944   20926322.4544
   -288973.14344   -225172.93144  24550382.3814
 96  3  7  8 24 30.0000000  0  8G28G17G 9G 1G21G26G23G31
 -12384096.210 4  -9649944.428 4  21888730.648    21888731.892
  16949065.13244  13207066.29444  20975514.3224   20975513.6264
   -380833.55944   -296752.78444  24432802.2564   24432799.9704
 -11706579.21944  -9122009.41344  22865111.5344   22865111.9064
 -25253369.46344 -19677945.85044  21314869.9824   21314869.7644
 -11685168.07844  -9105322.88044  24345881.9534   24345880.9144
  -7575035.24644  -5902620.82944  20932025.9124   20932025.4734
   -384844.06844   -299877.48044  24532141.6364   24532140.7264
 96  3  7  8 25  0.0000000  0  8G28G17G 9G 1G21G26G23G31
 -12442696.346 4  -9695606.875 4  21877579.403    21877580.373
  16982707.38544  13233281.03144  20981915.7554   20981915.0354
   -427065.40544   -332777.65044  24424003.0044   24424000.9304
 -11810321.06544  -9202847.21044  22845370.1174   22845369.5724
 -25289511.81244 -19706108.71444  21307992.1274   21307992.1234
 -11588226.00544  -9029783.60044  24364328.5854   24364327.4814
  -7544897.51044  -5879136.88244  20937760.9774   20937760.2054
   -480452.78944                  24513949.5754
 96  3  7  8 25 30.0000000  0  8G17G 9G28G 1G21G26G23G31
  17016667.94044  13259743.79944  20988378.1384   20988377.6364
   -472973.42044   -368550.09544  24415269.0054   24415268.7264
 -12500787.699 4  -9740872.865 4  21866524.848    21866526.069
 -11913856.73644  -9283524.34344  22825668.1454   22825667.9794
 -25325403.74744 -19734076.45044  21301162.2424   21301162.0254
 -11491063.68444  -8954072.68644  24382818.0434   24382818.4964
  -7514561.33944  -5855498.30844  20943533.7654   20943533.1774
   -575769.17844   -448650.39044  24495806.8414
 96  3  7  8 26  0.0000000  0  8G17G 9G28G 1G21G26G23G31
  17050928.81444  13286440.57844  20994897.9754   20994897.5334
   -518566.83244   -404077.38944  24406592.0284   24406590.5114
 -12558374.630 4  -9785745.796 4  21855566.383    21855567.660
 -12017199.55044  -9364051.19844  22806002.2594   22806002.9314
 -25361079.35944 -19761875.62144  21294373.4534   21294373.0824
 -11393685.05044  -8878193.23144  24401349.4514   24401346.4464
  -7484008.34344  -5831690.77744  20949347.9824   20949347.2834
   -670797.01744                  24477726.0474
 96  3  7  8 26 30.0000000  0  8G17G 9G28G 1G21G26G23G31
  17085474.47444  13313359.26744  21001471.9344   21001471.7434
   -563860.41744   -439371.01244  24397972.5014   24397972.5074
 -12615468.837 4  -9830234.793 4  21844701.723    21844703.169
 -12120360.36844  -9444436.21644  22786371.4164   22786371.9744
 -25396555.73744 -19789519.54744  21287622.6744   21287622.2464
 -11296098.99444  -8802152.17244  24419918.6194   24419916.8924
  -7453236.90744  -5807713.02944  20955203.3004   20955202.3164
   -765555.88144                  24459694.7664
 96  3  7  8 27  0.0000000  0  8G17G 9G28G 1G21G26G23G31
  17120333.98844  13340522.51344  21008105.2584   21008104.9784
   -608832.83744   -474414.43644  24389414.6564   24389416.3954
 -12672051.365 4  -9874325.084 4  21833934.391    21833935.738
 -12223322.01944  -9524666.04844  22766778.6374   22766778.1974
 -25431811.80044 -19816991.79444  21280913.9774   21280913.5944
 -11198290.58244  -8725937.86044  24438531.0304   24438527.9064
  -7422234.89844  -5783555.62144  20961103.0294   20961102.2884
   -860052.89544                  24441710.1064
 96  3  7  8 27 30.0000000  0  8G17G 9G28G 1G21G26G23G31
  17155518.25844  13367938.81744  21014800.9924   21014800.1334
   -653488.25544   -509210.83744  24380916.9964   24380915.2174
 -12728115.783 4  -9918011.643 4  21823265.886    21823267.142
 -12326076.69744  -9604734.62144  22747225.6604   22747225.1304
 -25466831.45544 -19844279.82544  21274249.9374   21274249.3034
 -11100255.22044  -8649546.62444  24457187.1184   24457184.6414
  -7391003.29844  -5759219.31044  20967046.0914   20967045.1284
   -954301.73044   -743610.85544  24423777.9054   24423774.9954
 96  3  7  8 28  0.0000000  0  8G17G 9G28G 1G21G26G23G31
  17191002.41844  13395588.80644  21021553.3424   21021552.8394
   -697864.51844   -543789.74644  24372471.8014   24372473.7754
 -12783687.157 4  -9961314.013 4  21812690.681    21812691.985
 -12428641.64344  -9684655.34444  22727707.7704   22727706.9624
 -25501614.78744 -19871383.70644  21267630.5964   21267630.0984
 -11002022.82844  -8573001.89944  24475880.0364   24475879.5734
  -7359584.95744  -5734737.48444  20973024.6494   20973023.9464
  -1048337.24144                  24405881.3684
 96  3  7  8 28 30.0000000  0  8G17G 9G28G 1G21G26G23G31
  17226794.19444  13423478.50044  21028363.9374   21028364.0084
   -741940.66344   -578134.71644  24364086.0414   24364088.1694
 -12838749.173 4 -10004219.488 4  21802212.682    21802214.130
 -12530999.24844  -9764414.49344  22708229.8994   22708230.1734
 -25536125.53144 -19898275.18244  21261063.2244   21261062.9064
 -10903582.50144  -8496295.17444  24494611.7404   24494611.3024
  -7327972.71844  -5710104.56544  20979040.2214   20979039.6294
  -1142139.18344   -889977.79744  24388033.1764   24388034.5994
 96  3  7  8 29  0.0000000  0  8G17G 9G28G 1G21G26G23G31
  17262912.70244  13451622.78844  21035237.3294   21035236.8894
   -785674.32044   -612212.88444  24355762.8694   24355762.6074
 -12893269.618 4 -10046702.954 4  21791837.993    21791839.208
 -12633111.74444  -9843982.64344  22688798.5774   22688798.2464
 -25570350.11444 -19924943.68544  21254550.5354   21254550.2264
 -10804904.49944  -8419403.24444  24513389.2504   24513392.2244
  -7296145.87544  -5685304.42644  20985096.7984   20985095.9664
  -1235668.01644   -962857.43744  24370236.5724   24370237.2504
 96  3  7  8 29 30.0000000  0  8G17G 9G28G 1G21G26G23G31
  17299314.79344  13479988.04644  21042164.2864   21042163.7864
   -829104.41844   -646054.46344  24347498.4154   24347501.7094
 -12947288.554 4 -10088795.631 4  21781558.618    21781559.797
 -12735007.97744  -9923382.30544  22669408.4834   22669407.8244
 -25604341.97944 -19951430.85444  21248081.9904   21248081.9444
 -10706027.83344  -8342356.44544  24532205.2244   24532203.5454
  -7264149.42344  -5660372.12544  20991185.7084   20991184.9814
  -1328951.49644  -1035545.87244  24352483.4544
 96  3  7  8 30  0.0000000  0  8G17G 9G28G 1G21G26G23G31
  17336017.93344  13508587.89544  21049148.7614   21049148.4934
   -872185.35744   -679624.02944  24339299.9264   24339300.2884
 -13000782.123 4 -10130478.938 4  21771379.115    21771380.147
 -12836666.77244 -10002596.94444  22650062.3584   22650061.9534
 -25638104.95244 -19977739.66344  21241656.9944   21241656.6644
 -10606929.98144  -8265137.35144  24551061.9314   24551062.1774
  -7231960.31344  -5635289.70044  20997311.0054   20997310.4314
  -1421963.78144                  24334785.0564
 96  3  7  8 30 30.0000000  0  8G17G 9G28G 1G21G26G23G31
  17373072.36044  13537461.47044  21056200.2134   21056199.5094
   -914876.43844   -712889.75344  24331176.8394   24331176.8494
 -13053719.669 4 -10171728.978 4  21761305.402    21761306.608
 -12938067.79744 -10081610.71244  22630766.4684   22630766.7524
 -25671630.14944 -20003863.18744  21235277.5444   21235277.1494
 -10507580.81844  -8187722.41444  24569968.8724   24569968.7104
  -7199546.94644  -5610032.53244  21003479.1944   21003478.6774
  -1514669.04144  -1180260.82444  24317142.7294   24317140.5634
 96  3  7  8 31  0.0000000  0  8G17G 9G28G 1G21G26G23G31
  17410506.62644  13566631.01444  21063323.0744   21063322.7664
   -957174.06244   -745848.89344  24323126.6224   24323128.1624
 -13106097.310 4 -10212542.730 4  21751338.343    21751339.631
 -13039207.29744 -10160420.69744  22611520.5364   22611520.1884
 -25704914.53544 -20029799.06444  21228943.7124   21228943.4404
 -10407978.77844  -8110110.46644  24588921.5724   24588916.7574
  -7166912.92844  -5584603.42844  21009688.9894   21009688.5034
  -1607062.66044  -1252255.88744  24299560.0034
 96  3  7  8 31 30.0000000  0  8G17G 9G28G 1G21G26G23G31
  17448235.34744  13596030.00844  21070503.0334   21070502.7154
   -999171.86044   -778574.40544  24315135.3604   24315135.5764
 -13158000.284 4 -10252986.615 4  21741461.611    21741462.840
 -13140183.27144 -10239103.25544  22592305.5494   22592305.5684
 -25738019.05544 -20055594.79044  21222644.2824   21222643.8994
 -10308219.74744  -8032376.17844  24607905.8274   24607900.5384
  -7134134.00144  -5559061.40844  21015926.5104   21015925.8464
  -1699229.12744  -1324073.94144  24282020.5534
 96  3  7  8 32  0.0000000  0  8G17G 9G28G 1G21G26G23G31
  17486295.43244  13625687.20544  21077745.7924   21077745.4934
  -1040814.95644   -811023.56044  24307210.4324   24307209.3944
 -13209381.433 4 -10293023.885 4  21731684.045    21731685.087
 -13240959.83644 -10317630.42244  22573128.1484   22573128.0734
 -25770881.34144 -20081201.76744  21216390.7964   21216390.1824
 -10208270.99444  -7954493.94344  24626925.9144   24626921.8964
  -7101158.97944  -5533366.58544  21022201.5794   21022200.9414
  -1791116.29544  -1395674.28844  24264533.4924
 96  3  7  8 32 30.0000000  0  8G17G 9G28G 1G21G26G23G31
  17524685.51644  13655601.56144  21085050.8424   21085051.1004
  -1082109.62544   -843201.20044  24299351.8524   24299352.2134
 -13260238.094 4 -10332652.453 4  21722006.169    21722007.340
 -13341526.72844 -10395994.20644  22553990.8054   22553991.4384
 -25803472.35244 -20106597.35944  21210188.8544   21210188.2704
 -10108143.14844  -7876472.26544  24645978.3524   24645975.1274
  -7067987.55144  -5507518.72044  21028513.8224   21028513.1864
  -1882715.14244  -1467050.00944  24247100.5064
 96  3  7  8 33  0.0000000  0  8G17G 9G28G 1G21G26G23G31
  17563364.70444  13685741.18544  21092411.3794   21092410.9554
  -1123056.14144   -875107.50844  24291561.1014   24291560.0574
 -13310571.038 4 -10371872.934 4  21712428.206    21712429.471
 -13441866.62444 -10474181.10044  22534896.7254   22534897.1104
 -25835790.61244 -20131780.41644  21204038.8764   21204038.4214
 -10007855.09844  -7798325.72844  24665063.4344   24665063.7464
  -7034621.63244  -5481519.30144  21034863.0804   21034862.5684
  -1974029.40944                  24229727.4904
 96  3  7  8 33 30.0000000  0  8G17G 9G28G 1G21G26G23G31
  17602312.47844  13716090.09344  21099823.2174   21099822.6634
  -1163640.29644   -906731.46744  24283838.0114   24283835.2064
 -13360368.949 4 -10410676.508 4  21702952.055    21702953.184
 -13541958.95244 -10552175.08544  22515850.4124   22515850.0164
 -25867842.55244 -20156755.95044  21197939.7864   21197939.3874
  -9907403.30244  -7720051.56344  24684178.8294   24684178.4644
  -7001060.10444  -5455367.46244  21041249.6204   21041249.1714
  -2065051.72644  -1609130.49444  24212405.9864
 96  3  7  8 34  0.0000000  0  8G17G 9G28G 1G21G26G23G31
  17641544.30644  13746660.34144  21107288.4774   21107288.4864
  -1203849.86444   -938063.52444  24276186.2814   24276184.3764
 -13409627.501 4 -10449059.801 4  21693578.599    21693579.636
 -13641779.96244 -10629957.65144  22496855.0064   22496855.3734
 -25899641.82544 -20181534.60344  21191888.4574   21191888.1324
  -9806783.65644  -7641646.63444  24703327.1074   24703325.2024
  -6967309.60644  -5429068.37144  21047672.3504   21047671.6784
  -2155779.86644                  24195139.4694
 96  3  7  8 34 30.0000000  0  8G17G 9G28G 1G21G26G23G31
  17681074.06344  13777462.74144  21114810.6434   21114810.3394
  -1243681.30544   -969101.00244  24268606.7374   24268609.1484
 -13458337.634 4 -10487015.753 4  21684309.368    21684310.333
 -13741320.05044 -10707521.32144  22477912.8654   22477912.5014
 -25931197.59744 -20206123.51144  21185883.4914   21185883.3684
  -9705980.95844  -7563099.08044  24722508.1694
  -6933365.10844  -5402618.11144  21054131.6934   21054131.0964
  -2246201.15044                  24177935.2914
 96  3  7  8 35  0.0000000  0  8G17G 9G28G 1G21G26G23G31
  17720918.26944  13808510.16444  21122392.9164   21122392.3104
  -1283137.15044   -999845.81344  24261098.1244   24261097.2524
 -13506497.075 4 -10524542.596 4  21675144.660    21675145.906
 -13840588.53744 -10784873.34344  22459022.8514   22459022.4344
 -25962530.00044 -20230538.36444  21179921.1264   21179920.7084
  -9604989.06944  -7484404.10144  24741725.9584   24741727.9294
  -6899219.56344  -5376011.19844  21060629.4184   21060628.5124
  -2336314.52544                  24160788.6544
 96  3  7  8 35 30.0000000  0  8G17G 9G28G 1G21G26G23G31
  17761131.09244  13839844.82044  21130044.7684   21130044.4914
  -1322199.05044  -1030283.59744  24253665.0064   24253665.3574
 -13554084.089 4 -10561623.386 4  21666089.094    21666090.481
 -13939575.06444 -10862005.65344  22440185.9284   22440185.6414
 -25993620.76644 -20254764.92144  21174004.7864   21174004.5054
  -9503778.28744  -7405538.54744  24760985.4264
  -6864846.93044  -5349227.32544  21067170.4504   21067169.4894
  -2426093.03844                  24143705.2464
 96  3  7  8 36  0.0000000  0  8G17G 9G28G 1G21G26G23G31
  17801659.03944  13871425.03444  21137757.5534   21137757.2364
  -1360952.25644  -1060480.84344  24246290.1954   24246290.0414
 -13601172.744 4 -10598315.853 4  21657128.477    21657130.228
 -14038357.47344 -10938978.91444  22421388.3954   22421388.0164
 -26024544.57744 -20278861.38544  21168120.1824   21168119.8694
  -9402435.00744  -7326569.73644  24780269.2034
  -6830312.22844  -5322317.16844  21073742.0554   21073741.4904
  -2515607.05844                  24126669.1544
 96  3  7  8 36 30.0000000  0  8G17G 9G28G 1G21G26G23G31
  17842461.65044  13903219.26544  21145521.9594   21145521.5334
  -1399426.57144  -1090460.80244  24238969.6294   24238967.0014
 -13647789.109 4 -10634640.301 4  21648257.815    21648259.214
 -14136976.37444 -11015824.77244  22402621.0234   22402620.4174
 -26055340.04044 -20302857.83744  21162259.8224   21162259.4474
  -9300988.27944  -7247520.33544  24799574.5974   24799574.2674
  -6795653.91144  -5295310.68744  21080337.1474   21080336.7154
  -2604883.84544  -2029778.79444  24109683.7084
 96  3  7  8 37  0.0000000  0  8G17G 9G28G 1G21G26G23G31
  17883655.90744  13935318.66744  21153360.7334   21153360.1924
  -1437493.19844  -1120123.09644  24231725.9354   24231726.0354
 -13693809.069 4 -10670500.025 4  21639500.539    21639501.750
 -14235287.90544 -11092431.12544  22383913.3824   22383912.7124
 -26085872.00444 -20326648.96844  21156449.8754   21156449.3764
  -9199323.89644  -7168301.32444  24818922.5254   24818919.2224
  -6760761.71444  -5268121.96144  21086976.8454   21086976.3294
  -2693809.87644                  24092760.6164
 96  3  7  8 37 30.0000000  0  8G17G 9G28G 1G21G26G23G31
  17925179.02744  13967674.33744  21161262.5434   21161262.1244
  -1475185.51644  -1149493.70544  24224552.2054   24224550.7244
 -13739275.832 4 -10705928.691 4  21630848.712    21630849.765
 -14333319.11044 -11168819.04544  22365259.0504   22365258.7224
 -26116175.34144 -20350261.94644  21150683.4744   21150682.9584
  -9097499.32944  -7088957.50644  24838298.1584   24838297.1044
  -6725698.92144  -5240800.30444  21093649.1214   21093648.3284
  -2782423.01844                  24075897.5004
 96  3  7  8 38  0.0000000  0  8G17G 9G28G 1G21G26G23G31
  17966980.41444  14000246.84944  21169217.0444   21169216.8314
  -1512522.97244  -1178587.78544  24217447.0234   24217447.1604
 -13784215.167 4 -10740946.368 4  21622297.131    21622297.928
 -14431099.97644 -11245011.89744  22346651.5544   22346651.3134
 -26146272.13944 -20373713.98544  21144956.2554   21144955.8094
  -8995552.72844  -7009518.55944  24857698.3574   24857695.9264
  -6690509.83844  -5213380.23844  21100345.2744   21100344.4534
  -2870758.71844  -2236954.06144  24059086.5234
 96  3  7  8 38 30.0000000  0  8G17G 9G28G 1G21G26G23G31
  18009074.87344  14033047.72044  21177227.3964   21177226.8384
  -1549475.02544  -1207381.53544  24210415.6404   24210417.0954
 -13828600.446 4 -10775532.311 4  21613850.757    21613851.846
 -14528610.63644 -11320994.20744  22328095.9044   22328095.8044
 -26176122.18544 -20396973.75444  21139276.1174   21139275.9854
  -8893449.16344  -6929957.35044  24877126.0514   24877125.8494
  -6655173.34344  -5185845.30944  21107069.7134   21107068.9614
  -2958799.76244                  24042332.1434
 96  3  7  8 39  0.0000000  0  8G17G 9G28G 1G21G26G23G31
  18051469.49444  14066082.48044  21185294.8184   21185294.2174
  -1586049.50744  -1235881.16644  24203455.4674   24203455.8864
 -13872433.968 4 -10809688.329 4  21605509.344    21605510.608
 -14625845.91744 -11396761.94444  22309593.0114   22309593.3034
 -26205708.61344 -20420028.10844  21133645.7284   21133645.6994
  -8791207.56244  -6850288.53744  24896582.8704   24896582.6064
  -6619668.75644  -5158179.39344  21113826.1014   21113825.4884
  -3046541.49844                  24025634.4814
 96  3  7  8 39 30.0000000  0  8G17G 9G28G 1G21G26G23G31
  18094165.42844  14099352.02644  21193419.3144   21193419.0354
  -1622255.56144  -1264093.68544  24196566.6394   24196566.7954
 -13915716.113 4 -10843414.687 4  21597273.057    21597274.397
 -14722834.41744 -11472337.39244  22291136.0114   22291135.9644
 -26235035.09944 -20442879.90244  21128065.1594   21128064.7964
  -8688830.49044  -6770514.16844  24916066.2684   24916063.6304
  -6583992.15744  -5130379.44844  21120615.2254   21120614.5624
  -3133974.03444  -2442056.88844  24008996.8364
 96  3  7  8 40  0.0000000  0  8G17G 9G28G 1G21G26G23G31
  18137176.93144  14132867.48544  21201604.3494   21201603.9594
  -1658091.55844  -1292017.66744  24189747.0074   24189746.0424
 -13958440.779 4 -10876706.650 4  21589142.561    21589144.042
 -14819574.95644 -11547719.61244  22272727.1264   22272726.7604
 -26264093.67344 -20465522.92644  21122535.4974   21122534.9424
  -8586298.91644  -6690619.45844  24935575.2954   24935572.3884
  -6548128.91644  -5102434.06644  21127439.9924   21127439.1134
  -3221092.86544                  23992420.6754
 96  3  7  8 40 30.0000000  0  8G17G 9G28G 1G21G26G23G31
  18180512.23544  14166635.24444  21209850.8334   21209850.3754
  -1693561.65644  -1319656.67244  24182996.2204   24182999.0344
 -14000609.496 4 -10909565.404 4  21581118.217    21581119.619
 -14916055.16344 -11622898.98044  22254367.3944   22254367.8214
 -26292894.31244 -20487964.97444  21117054.7464   21117054.4414
  -8483602.42644  -6610596.22844  24955115.5294   24955114.4964
  -6512080.84744  -5074344.65844  21134299.1874   21134298.2824
  -3307880.32444                  23975904.2814
 96  3  7  8 41  0.0000000  0  8G17G 9G28G 1G21G26G23G31
  18224178.25144  14200660.70544  21218160.0064   21218159.6484
  -1728654.73844  -1347001.92244  24176318.9544   24176318.6594
 -14042215.585 4 -10941985.749 4  21573201.008    21573202.535
 -15012259.89644 -11697863.69244  22236060.5814   22236060.4584
 -26321442.43244 -20510210.25944  21111622.0654   21111621.9624
  -8380738.47744  -6530442.48544  24974692.4384
  -6475856.09144  -5046117.57444  21141192.5954   21141191.8134
  -3394304.80244                  23959461.0484
 96  3  7  8 41 30.0000000  0  8G17G 9G28G 1G21G26G23G31
  18268178.82844  14234946.86844  21226533.0404   21226532.6964
  -1763343.32944  -1374031.98944  24169717.8614   24169716.2194
 -14083246.858 4 -10973958.181 4  21565393.275    21565394.304
 -15108177.71344 -11772604.84444  22217807.6014   22217807.1134
 -26349731.83844 -20532253.94544  21106238.9214   21106238.5474
  -8277687.53944  -6450142.95444  24994302.4724
  -6439477.43644  -5017770.57144  21148115.5584   21148114.9144
  -3480361.16544  -2711968.94644  23943084.7684
 96  3  7  8 42  0.0000000  0  7G17G 9G28G 1G21G23G31
  18312506.28944  14269487.72644  21234968.4634   21234968.0204
  -1797626.98944  -1400746.50144  24163194.2234   24163190.9484
 -14123713.668 4 -11005490.774 4  21557692.672    21557693.906
 -15203806.56944 -11847120.83244  22199610.3204   22199609.8794
 -26377789.39044 -20554116.96444  21100899.7804   21100899.2624
  -6402956.40044  -4989312.62444  21155065.1794   21155064.6084
  -3566065.28344  -2778751.35944  23926774.2874   23926773.9374
 96  3  7  8 42 30.0000000  0  7G17G 9G28G 1G21G23G31
  18357146.89744  14304272.59144  21243463.2324   21243462.7684
  -1831515.20144  -1427152.83344  24156745.8704   24156743.2234
 -14163624.065 4 -11036589.803 4  21550097.929    21550099.284
 -15299155.40444 -11921418.61244  22181466.3624   22181466.0094
 -26405638.24944 -20575817.36644  21095600.3214   21095599.7504
  -6366302.31944  -4960751.00344  21162040.3964   21162039.7544
  -3651425.12744  -2845265.49844  23910530.4614
 96  3  7  8 43  0.0000000  0  8G17G 9G28G 1G21G22G23G31
  18402136.91644  14339329.74444  21252024.3914   21252023.9454
  -1864969.92144  -1453221.44944  24150378.5184   24150379.5974
 -14202947.894 4 -11067231.756 4  21542615.043    21542616.187
 -15394199.44044 -11995478.89944  22163380.4344   22163380.0724
 -26433244.31844 -20597328.58244  21090347.1574   21090346.8174
        -0.02954                  25465503.6784
  -6329473.18244  -4932052.97444  21169048.4154   21169047.6164
  -3736431.96644  -2911504.53644  23894356.0854   23894352.8694
 96  3  7  8 43 30.0000000  0  8G17G 9G28G 1G21G22G23G31
  18447451.48344  14374639.79544  21260647.5634   21260647.1764
  -1898020.74044  -1478975.31844  24144089.0144   24144085.6884
 -14241715.229 4 -11097440.084 4  21535237.649    21535238.464
 -15488968.63044 -12069325.01044  22145346.4254   22145346.0934
 -26460646.98044 -20618681.30344  21085132.6054   21085132.5424
     65864.20844                  25478036.5574
  -6292476.02044  -4903224.01444  21176088.8094   21176088.0354
  -3821134.34444  -2977506.38344  23878238.4014   23878237.1354
 96  3  7  8 44  0.0000000  0  8G17G 9G28G 1G21G22G23G31
  18493090.23244  14410202.46344  21269332.3804   21269332.2524
  -1930682.03244  -1504425.63544  24137874.0344   24137872.4464
 -14279932.166 4 -11127219.529 4  21527965.283    21527966.304
 -15583466.45244 -12142959.67844  22127363.9274   22127363.5664
 -26487869.99444 -20639894.03844  21079952.2464   21079951.8904
    131676.06044                  25490558.2614
  -6255299.13344  -4874255.01144  21183163.2524   21183162.4634
  -3905529.99844  -3043269.26144  23862177.1104   23862174.8054
 96  3  7  8 44 30.0000000  0  8G17G 9G28G 1G21G22G23G31
  18539063.26244  14446025.60144  21278080.5094   21278080.3954
  -1962947.16644  -1529567.28844  24131734.4244   24131733.9754
 -14317593.471 4 -11156566.011 4  21520798.464    21520799.619
 -15677673.42744 -12216367.70844  22109436.8424   22109436.3524
 -26514891.48144 -20660949.73444  21074810.3194   21074809.8664
    197444.41344                  25503074.4264
  -6217937.13644  -4845141.77144  21190273.0604   21190272.4644
  -3989607.12744  -3108783.87944  23846176.4574   23846175.5344
 96  3  7  8 45  0.0000000  0  8G17G 9G28G 1G21G22G23G31
  18585398.62144  14482131.07244  21286897.9494   21286897.5904
  -1994787.12144  -1554377.61344  24125676.0154   24125678.8534
 -14354677.726 4 -11185462.843 4  21513741.700    21513742.801
 -15771567.02444 -12289531.55244  22091569.1434   22091569.1054
 -26541679.91644 -20681823.82744  21069712.4564   21069711.5064
    263173.82844                  25515584.1044
  -6180373.42144  -4815871.34944  21197421.1604   21197420.7074
  -4073339.63044  -3174029.94644  23830240.8594   23830239.9664
 96  3  7  8 45 30.0000000  0  8G17G 9G28G 1G21G22G23G31
  18632100.80144  14518522.37244  21295785.4464   21295785.0434
  -2026190.67944  -1578847.88544  24119700.0814   24119696.8634
 -14391164.828 4 -11213894.356 4  21506798.676    21506799.750
 -15865129.69144 -12362437.52244  22073764.6734   22073765.1784
 -26568221.67544 -20702505.71244  21064661.7524   21064661.1474
    328873.59044    256265.00044  25528085.7984
  -6142609.11444  -4786444.62144  21204607.3654   21204606.8094
  -4156685.12044  -3238974.48444  23814380.9214   23814380.6364
 96  3  7  8 46  0.0000000  0  8G17G 9G28G 1G21G22G23G31
  18679126.00644  14555165.38344  21304733.9184   21304733.8434
  -2057188.57944  -1603002.05044  24113799.9284   24113800.6994
 -14427078.395 4 -11241878.962 4  21499964.292    21499965.425
 -15958382.23344 -12435101.83144  22056019.8014   22056020.2264
 -26594526.22844 -20723002.76244  21059656.2184   21059655.7464
    394510.33044                  25540576.4894
  -6104694.09144  -4756900.44744  21211822.3114   21211821.6784
  -4239655.85944  -3303626.97944  23798592.0274   23798592.3334
 96  3  7  8 46 30.0000000  0  8G17G 9G28G 1G21G22G23G31
  18726448.53344  14592040.06444  21313738.9384   21313738.4834
  -2087787.42944  -1626845.29944  24107977.3984   24107977.9404
 -14462421.475 4 -11269419.035 4  21493238.725    21493239.835
 -16051333.32944 -12507531.24544  22038331.6024   22038331.4494
 -26620580.62144 -20743304.88244  21054698.2744   21054697.8464
    460076.11844                  25553051.9884
  -6066637.20144  -4727245.72544  21219064.1874   21219063.6624
  -4322264.15344  -3367997.05744  23782873.9494   23782872.2264
 96  3  7  8 47  0.0000000  0  8G17G 9G28G 1G21G22G23G31
  18774044.22444  14629127.60544  21322796.6254   21322795.7474
  -2118003.38444  -1650390.16844  24102228.4914   24102227.7014
 -14497197.733 4 -11296517.434 4  21486620.934    21486622.016
 -16144007.22644 -12579744.66244  22020696.5044   22020695.9954
 -26646403.39844 -20763426.51444  21049784.2374   21049783.6624
    525557.34844                  25565513.3774
  -6028441.25944  -4697482.65144  21226332.9414   21226332.1344
  -4404518.78244  -3432091.59144  23767221.1344   23767219.2034
 96  3  7  8 47 30.0000000  0  7G17G 9G28G 1G21G23G31
  18821916.49144  14666430.66044  21331905.7234   21331905.8194
  -2147825.81144  -1673628.43744  24096552.8584   24096555.7954
 -14531396.204 4 -11323165.605 4  21480113.177    21480114.134
 -16236389.62644 -12651730.93044  22003116.5134   22003115.9454
 -26671985.09644 -20783360.29344  21044916.1314   21044915.6914
  -5990097.93944  -4667604.73444  21233629.3054   21233628.8114
  -4486415.94344  -3495907.53444  23751637.8614   23751637.6484
 96  3  7  8 48  0.0000000  0  7G17G 9G28G 1G21G23G31
  18870077.45844  14703958.66944  21341070.6554   21341070.2184
  -2177239.05544  -1696547.76544  24090955.9474   24090956.2304
 -14565012.860 4 -11349360.412 4  21473716.316    21473717.338
 -16328465.58544 -12723478.41344  21985595.2614   21985594.8164
 -26697322.66044 -20803103.83644  21040094.5854   21040094.2494
  -5951589.13444  -4637597.87444  21240957.0624   21240956.6474
  -4567969.29444  -3559455.59744  23736118.7704   23736117.8614
 96  3  7  8 48 30.0000000  0  8G17G 9G28G 1G21G26G23G31
  18918558.67944  14741736.23044  21350296.1124   21350295.8784
  -2206226.30244  -1719135.19944  24085440.1094   24085438.0434
 -14598042.064 4 -11375097.465 4  21467431.217    21467432.324
 -16420225.66944 -12794979.75244  21968133.2694   21968133.2204
 -26722424.98544 -20822664.08544  21035317.8764   21035317.5044
        -0.70154                  25271427.8764
  -5912898.24044  -4607449.13044  21248320.2604   21248319.2914
  -4649184.06644  -3622739.82444  23720663.9374   23720664.4234
 96  3  7  8 49  0.0000000  0  8G17G 9G28G 1G21G26G23G31
  18967395.92544  14779791.21544  21359589.6324   21359589.5534
  -2234783.22544  -1741387.33644  24080005.2784   24080002.9134
 -14630475.446 4 -11400370.239 4  21461259.299    21461260.257
 -16511650.00844 -12866219.48144  21950735.7734   21950735.4104
 -26747299.76244 -20842047.02344  21030584.3914   21030584.1184
    104866.35744                  25291387.1874
  -5874033.37444  -4577164.82044  21255716.0554   21255715.0814
  -4730039.35744  -3685743.95344  23705277.8544   23705276.1404
 96  3  7  8 49 30.0000000  0  8G17G 9G28G 1G21G26G23G31
  19016600.80944  14818132.66044  21368953.2114   21368952.8884
  -2262903.23244  -1763298.99244  24074654.2014   24074652.8324
 -14662312.633 4 -11425178.450 4  21455200.928    21455201.838
 -16602724.03944 -12937186.23744  21933405.5344   21933405.2344
 -26771953.72244 -20861257.89644  21025892.6514   21025892.7404
    209841.95344    163513.23644  25311363.0904
  -5835010.98744  -4546757.76844  21263141.6054   21263141.0284
  -4810530.60744  -3748464.43144  23689960.3324   23689963.3674
 96  3  7  8 50  0.0000000  0  7G17G 9G28G 1G21G23G31
  19066167.06644  14856755.70344  21378385.5614   21378385.3064
  -2290603.94044  -1784883.91744  24069382.7524   24069382.9514
 -14693563.599 4 -11449529.858 4  21449253.999    21449254.953
 -16693462.53944 -13007891.53944  21916137.8424   21916137.9524
 -26796412.36144 -20880316.56844  21021238.3084   21021238.0184
  -5795844.88444  -4516238.72944  21270594.8364   21270594.2804
  -4890654.43644  -3810898.55844  23674713.5714   23674713.5034
 96  3  7  8 50 30.0000000  0  7G17G 9G28G 1G21G23G31
  19116105.89444  14895669.08244  21387888.4674   21387888.2634
  -2317884.19344  -1806141.23144  24064191.9154   24064191.7364
 -14724216.011 4 -11473414.863 4  21443420.688    21443422.054
 -16783871.80144 -13078340.28744  21898934.0584   21898934.4424
 -26820663.76344 -20899213.75344  21016623.4494   21016622.9144
  -5756534.00744  -4485606.87344  21278075.3364   21278074.8374
  -4970377.90544  -3873020.71344  23659542.3054   23659544.0924
